Wetterdaten: Mittwoch, 31.05.2017
Datum Zeit Temp. A. Pool Temp. Feuchte A. Luftdruck Regen Wind Richtung Richtung Sonnenschein ET UV Solar Taupunkt Windchill Windben Empfang
31.05.2017 00:00 17,6 C 26,1 C 91 % 1014,3 hPa 0,0 l/m 0,9 km/h (0 Bft) SW 232 0 min 0,000 mm 0,0 UV-I 0 W/m 16,1 C 17,6 C 3,2 km/h (1 Bft) 96,00 %
31.05.2017 00:02 17,6 C 26,1 C 91 % 1014,4 hPa 0,0 l/m 3,5 km/h (1 Bft) W-SW 250 0 min 0,000 mm 0,0 UV-I 0 W/m 16,1 C 17,6 C 6,4 km/h (2 Bft) 91,18 %
31.05.2017 00:04 17,6 C 26,1 C 91 % 1014,5 hPa 0,0 l/m 1,9 km/h (1 Bft) W 266 0 min 0,000 mm 0,0 UV-I 0 W/m 16,1 C 17,6 C 6,4 km/h (2 Bft) 94,83 %
31.05.2017 00:06 17,5 C 26,1 C 91 % 1014,4 hPa 0,0 l/m 2,5 km/h (1 Bft) W 269 0 min 0,000 mm 0,0 UV-I 0 W/m 16,0 C 17,5 C 3,2 km/h (1 Bft) 97,50 %
31.05.2017 00:08 17,4 C 26,1 C 91 % 1014,4 hPa 0,0 l/m 1,6 km/h (1 Bft) NW 305 0 min 0,000 mm 0,0 UV-I 0 W/m 15,9 C 17,4 C 4,8 km/h (1 Bft) 96,00 %
31.05.2017 00:10 17,4 C 26,1 C 91 % 1014,4 hPa 0,0 l/m 1,4 km/h (1 Bft) W 280 0 min 0,000 mm 0,0 UV-I 0 W/m 15,9 C 17,4 C 4,8 km/h (1 Bft) 97,87 %
31.05.2017 00:12 17,4 C 26,1 C 92 % 1014,4 hPa 0,0 l/m 1,5 km/h (1 Bft) W 279 0 min 0,000 mm 0,0 UV-I 0 W/m 16,1 C 17,4 C 3,2 km/h (1 Bft) 95,74 %
31.05.2017 00:14 17,5 C 26,1 C 92 % 1014,3 hPa 0,0 l/m 1,2 km/h (1 Bft) W 279 0 min 0,000 mm 0,0 UV-I 0 W/m 16,2 C 17,5 C 3,2 km/h (1 Bft) 94,00 %
31.05.2017 00:16 17,5 C 26,1 C 91 % 1014,4 hPa 0,0 l/m 0,3 km/h (0 Bft) S-SW 201 0 min 0,000 mm 0,0 UV-I 0 W/m 16,0 C 17,5 C 1,6 km/h (1 Bft) 97,87 %
31.05.2017 00:18 17,6 C 26,1 C 91 % 1014,5 hPa 0,0 l/m 0,0 km/h (0 Bft) S-SW 201 0 min 0,000 mm 0,0 UV-I 0 W/m 16,1 C 17,6 C 0,0 km/h (0 Bft) 97,87 %
31.05.2017 00:20 17,6 C 26,1 C 91 % 1014,5 hPa 0,0 l/m 1,3 km/h (1 Bft) S-SW 201 0 min 0,000 mm 0,0 UV-I 0 W/m 16,1 C 17,6 C 3,2 km/h (1 Bft) 100,00 %
31.05.2017 00:22 17,6 C 26,1 C 91 % 1014,4 hPa 0,0 l/m 1,5 km/h (1 Bft) S-SW 201 0 min 0,000 mm 0,0 UV-I 0 W/m 16,1 C 17,6 C 3,2 km/h (1 Bft) 98,00 %
31.05.2017 00:24 17,7 C 26,1 C 91 % 1014,6 hPa 0,0 l/m 5,0 km/h (1 Bft) W 275 0 min 0,000 mm 0,0 UV-I 0 W/m 16,2 C 17,7 C 6,4 km/h (2 Bft) 98,11 %
31.05.2017 00:26 17,7 C 26,1 C 90 % 1014,7 hPa 0,0 l/m 4,8 km/h (1 Bft) W-SW 254 0 min 0,000 mm 0,0 UV-I 0 W/m 16,0 C 17,7 C 11,3 km/h (2 Bft) 100,00 %
31.05.2017 00:28 17,7 C 26,1 C 90 % 1014,7 hPa 0,0 l/m 0,3 km/h (0 Bft) W-SW 254 0 min 0,000 mm 0,0 UV-I 0 W/m 16,0 C 17,7 C 3,2 km/h (1 Bft) 96,00 %
31.05.2017 00:30 17,6 C 26,1 C 91 % 1014,7 hPa 0,0 l/m 0,8 km/h (0 Bft) W-SW 254 0 min 0,000 mm 0,0 UV-I 0 W/m 16,1 C 17,6 C 1,6 km/h (1 Bft) 98,00 %
31.05.2017 00:32 17,5 C 26,1 C 91 % 1014,9 hPa 0,2 l/m 2,8 km/h (1 Bft) W-SW 254 0 min 0,000 mm 0,0 UV-I 0 W/m 16,0 C 17,5 C 4,8 km/h (1 Bft) 95,12 %
31.05.2017 00:34 17,5 C 26,1 C 92 % 1015,0 hPa 0,2 l/m 3,6 km/h (1 Bft) W 262 0 min 0,000 mm 0,0 UV-I 0 W/m 16,2 C 17,5 C 9,7 km/h (2 Bft) 98,00 %
31.05.2017 00:36 17,5 C 26,1 C 92 % 1015,1 hPa 0,0 l/m 8,0 km/h (2 Bft) W-SW 254 0 min 0,000 mm 0,0 UV-I 0 W/m 16,2 C 16,7 C 17,7 km/h (3 Bft) 97,56 %
31.05.2017 00:38 17,5 C 26,1 C 92 % 1015,3 hPa 0,2 l/m 14,3 km/h (3 Bft) W-SW 240 0 min 0,000 mm 0,0 UV-I 0 W/m 16,2 C 14,4 C 20,9 km/h (4 Bft) 98,21 %
31.05.2017 00:40 17,5 C 26,1 C 92 % 1015,2 hPa 0,0 l/m 10,3 km/h (2 Bft) W 268 0 min 0,000 mm 0,0 UV-I 0 W/m 16,2 C 15,8 C 16,1 km/h (3 Bft) 97,37 %
31.05.2017 00:42 17,4 C 26,1 C 92 % 1015,1 hPa 0,0 l/m 9,0 km/h (2 Bft) W-NW 282 0 min 0,000 mm 0,0 UV-I 0 W/m 16,1 C 16,2 C 16,1 km/h (3 Bft) 98,00 %
31.05.2017 00:44 17,4 C 26,1 C 92 % 1015,2 hPa 0,0 l/m 5,0 km/h (1 Bft) W-SW 257 0 min 0,000 mm 0,0 UV-I 0 W/m 16,1 C 17,4 C 8,0 km/h (2 Bft) 98,11 %
31.05.2017 00:46 17,4 C 26,1 C 92 % 1015,2 hPa 0,2 l/m 8,2 km/h (2 Bft) SW 229 0 min 0,000 mm 0,0 UV-I 0 W/m 16,1 C 16,5 C 12,9 km/h (3 Bft) 100,00 %
31.05.2017 00:48 17,4 C 26,1 C 92 % 1015,3 hPa 0,0 l/m 10,1 km/h (2 Bft) W-SW 253 0 min 0,000 mm 0,0 UV-I 0 W/m 16,1 C 15,7 C 17,7 km/h (3 Bft) 98,11 %
31.05.2017 00:50 17,4 C 26,1 C 92 % 1015,2 hPa 0,0 l/m 10,2 km/h (2 Bft) SW 230 0 min 0,000 mm 0,0 UV-I 0 W/m 16,1 C 15,7 C 17,7 km/h (3 Bft) 100,00 %
31.05.2017 00:52 17,4 C 26,1 C 92 % 1015,2 hPa 0,0 l/m 9,7 km/h (2 Bft) SW 232 0 min 0,000 mm 0,0 UV-I 0 W/m 16,1 C 15,9 C 12,9 km/h (3 Bft) 98,11 %
31.05.2017 00:54 17,4 C 26,1 C 92 % 1015,2 hPa 0,2 l/m 9,6 km/h (2 Bft) W-SW 246 0 min 0,000 mm 0,0 UV-I 0 W/m 16,1 C 15,9 C 14,5 km/h (3 Bft) 97,73 %
31.05.2017 00:56 17,4 C 26,1 C 92 % 1015,1 hPa 0,0 l/m 8,4 km/h (2 Bft) SW 229 0 min 0,000 mm 0,0 UV-I 0 W/m 16,1 C 16,4 C 11,3 km/h (2 Bft) 100,00 %
31.05.2017 00:58 17,4 C 26,1 C 92 % 1015,2 hPa 0,0 l/m 7,8 km/h (2 Bft) SW 219 0 min 0,000 mm 0,0 UV-I 0 W/m 16,1 C 16,7 C 11,3 km/h (2 Bft) 97,73 %
31.05.2017 01:00 17,4 C 26,1 C 92 % 1015,2 hPa 0,0 l/m 7,0 km/h (2 Bft) SW 231 0 min 0,000 mm 0,0 UV-I 0 W/m 16,1 C 17,1 C 9,7 km/h (2 Bft) 100,00 %
31.05.2017 01:02 17,4 C 26,1 C 93 % 1015,1 hPa 0,2 l/m 5,8 km/h (2 Bft) S-SW 207 0 min 0,000 mm 0,0 UV-I 0 W/m 16,3 C 17,4 C 9,7 km/h (2 Bft) 97,14 %
31.05.2017 01:04 17,4 C 26,1 C 93 % 1015,2 hPa 0,0 l/m 5,4 km/h (1 Bft) W-SW 241 0 min 0,000 mm 0,0 UV-I 0 W/m 16,3 C 17,4 C 8,0 km/h (2 Bft) 100,00 %
31.05.2017 01:06 17,4 C 26,1 C 93 % 1015,2 hPa 0,0 l/m 4,6 km/h (1 Bft) SW 232 0 min 0,000 mm 0,0 UV-I 0 W/m 16,3 C 17,4 C 6,4 km/h (2 Bft) 100,00 %
31.05.2017 01:08 17,3 C 26,1 C 93 % 1015,3 hPa 0,0 l/m 3,4 km/h (1 Bft) W-SW 248 0 min 0,000 mm 0,0 UV-I 0 W/m 16,2 C 17,3 C 4,8 km/h (1 Bft) 98,00 %
31.05.2017 01:10 17,3 C 26,1 C 93 % 1015,3 hPa 0,0 l/m 3,4 km/h (1 Bft) W 267 0 min 0,000 mm 0,0 UV-I 0 W/m 16,2 C 17,3 C 4,8 km/h (1 Bft) 100,00 %
31.05.2017 01:12 17,3 C 26,1 C 93 % 1015,3 hPa 0,0 l/m 3,0 km/h (1 Bft) W-SW 242 0 min 0,000 mm 0,0 UV-I 0 W/m 16,2 C 17,3 C 4,8 km/h (1 Bft) 100,00 %
31.05.2017 01:14 17,3 C 26,1 C 93 % 1015,3 hPa 0,0 l/m 2,5 km/h (1 Bft) W-SW 238 0 min 0,000 mm 0,0 UV-I 0 W/m 16,2 C 17,3 C 4,8 km/h (1 Bft) 97,87 %
31.05.2017 01:16 17,3 C 26,1 C 94 % 1015,4 hPa 0,0 l/m 2,6 km/h (1 Bft) W-SW 237 0 min 0,000 mm 0,0 UV-I 0 W/m 16,3 C 17,3 C 4,8 km/h (1 Bft) 100,00 %
31.05.2017 01:18 17,3 C 26,1 C 93 % 1015,3 hPa 0,0 l/m 1,3 km/h (1 Bft) W-SW 237 0 min 0,000 mm 0,0 UV-I 0 W/m 16,2 C 17,3 C 3,2 km/h (1 Bft) 98,11 %
31.05.2017 01:20 17,3 C 25,6 C 93 % 1015,3 hPa 0,0 l/m 1,5 km/h (1 Bft) SW 215 0 min 0,000 mm 0,0 UV-I 0 W/m 16,2 C 17,3 C 3,2 km/h (1 Bft) 97,87 %
31.05.2017 01:22 17,3 C 25,6 C 94 % 1015,3 hPa 0,0 l/m 1,5 km/h (1 Bft) SW 214 0 min 0,000 mm 0,0 UV-I 0 W/m 16,3 C 17,3 C 3,2 km/h (1 Bft) 100,00 %
31.05.2017 01:24 17,3 C 25,6 C 94 % 1015,4 hPa 0,0 l/m 2,3 km/h (1 Bft) S-SW 213 0 min 0,000 mm 0,0 UV-I 0 W/m 16,3 C 17,3 C 4,8 km/h (1 Bft) 96,43 %
31.05.2017 01:26 17,3 C 25,6 C 94 % 1015,4 hPa 0,0 l/m 1,1 km/h (1 Bft) S 175 0 min 0,000 mm 0,0 UV-I 0 W/m 16,3 C 17,3 C 3,2 km/h (1 Bft) 100,00 %
31.05.2017 01:28 17,3 C 26,1 C 93 % 1015,3 hPa 0,0 l/m 1,5 km/h (1 Bft) S 175 0 min 0,000 mm 0,0 UV-I 0 W/m 16,2 C 17,3 C 3,2 km/h (1 Bft) 98,00 %
31.05.2017 01:30 17,4 C 25,6 C 94 % 1015,3 hPa 0,0 l/m 3,0 km/h (1 Bft) SO 140 0 min 0,000 mm 0,0 UV-I 0 W/m 16,4 C 17,4 C 4,8 km/h (1 Bft) 97,37 %
31.05.2017 01:32 17,3 C 25,6 C 94 % 1015,5 hPa 0,0 l/m 3,4 km/h (1 Bft) SO 143 0 min 0,000 mm 0,0 UV-I 0 W/m 16,3 C 17,3 C 4,8 km/h (1 Bft) 100,00 %
31.05.2017 01:34 17,4 C 25,6 C 94 % 1015,6 hPa 0,0 l/m 5,7 km/h (1 Bft) S-SW 193 0 min 0,000 mm 0,0 UV-I 0 W/m 16,4 C 17,4 C 9,7 km/h (2 Bft) 95,12 %
31.05.2017 01:36 17,4 C 25,6 C 94 % 1015,6 hPa 0,0 l/m 3,0 km/h (1 Bft) S 174 0 min 0,000 mm 0,0 UV-I 0 W/m 16,4 C 17,4 C 4,8 km/h (1 Bft) 96,00 %
31.05.2017 01:38 17,4 C 25,6 C 94 % 1015,5 hPa 0,0 l/m 4,1 km/h (1 Bft) S 172 0 min 0,000 mm 0,0 UV-I 0 W/m 16,4 C 17,4 C 11,3 km/h (2 Bft) 95,74 %
31.05.2017 01:40 17,4 C 25,6 C 94 % 1015,5 hPa 0,0 l/m 7,1 km/h (2 Bft) S-SO 162 0 min 0,000 mm 0,0 UV-I 0 W/m 16,4 C 17,1 C 12,9 km/h (3 Bft) 93,62 %
31.05.2017 01:42 17,4 C 25,6 C 93 % 1015,5 hPa 0,0 l/m 4,8 km/h (1 Bft) S-SW 192 0 min 0,000 mm 0,0 UV-I 0 W/m 16,3 C 17,4 C 8,0 km/h (2 Bft) 96,00 %
31.05.2017 01:44 17,4 C 25,6 C 93 % 1015,5 hPa 0,0 l/m 5,1 km/h (1 Bft) SW 235 0 min 0,000 mm 0,0 UV-I 0 W/m 16,3 C 17,4 C 8,0 km/h (2 Bft) 95,12 %
31.05.2017 01:46 17,4 C 25,6 C 93 % 1015,6 hPa 0,0 l/m 5,1 km/h (1 Bft) SW 236 0 min 0,000 mm 0,0 UV-I 0 W/m 16,3 C 17,4 C 8,0 km/h (2 Bft) 96,23 %
31.05.2017 01:48 17,4 C 25,6 C 93 % 1015,5 hPa 0,0 l/m 7,1 km/h (2 Bft) S-SW 205 0 min 0,000 mm 0,0 UV-I 0 W/m 16,3 C 17,1 C 9,7 km/h (2 Bft) 92,11 %
31.05.2017 01:50 17,5 C 25,6 C 93 % 1015,6 hPa 0,0 l/m 4,3 km/h (1 Bft) SW 217 0 min 0,000 mm 0,0 UV-I 0 W/m 16,4 C 17,5 C 8,0 km/h (2 Bft) 96,00 %
31.05.2017 01:52 17,5 C 25,6 C 93 % 1015,6 hPa 0,0 l/m 3,8 km/h (1 Bft) SW 236 0 min 0,000 mm 0,0 UV-I 0 W/m 16,4 C 17,5 C 6,4 km/h (2 Bft) 97,56 %
31.05.2017 01:54 17,6 C 25,6 C 93 % 1015,6 hPa 0,0 l/m 3,1 km/h (1 Bft) SW 236 0 min 0,000 mm 0,0 UV-I 0 W/m 16,5 C 17,6 C 4,8 km/h (1 Bft) 96,23 %
31.05.2017 01:56 17,6 C 25,6 C 93 % 1015,6 hPa 0,0 l/m 3,1 km/h (1 Bft) SW 225 0 min 0,000 mm 0,0 UV-I 0 W/m 16,5 C 17,6 C 4,8 km/h (1 Bft) 96,23 %
31.05.2017 01:58 17,6 C 25,6 C 93 % 1015,7 hPa 0,0 l/m 3,2 km/h (1 Bft) W-SW 238 0 min 0,000 mm 0,0 UV-I 0 W/m 16,5 C 17,6 C 6,4 km/h (2 Bft) 93,62 %
31.05.2017 02:00 17,6 C 25,6 C 93 % 1015,6 hPa 0,0 l/m 3,1 km/h (1 Bft) W-SW 238 0 min 0,000 mm 0,0 UV-I 0 W/m 16,5 C 17,6 C 6,4 km/h (2 Bft) 89,36 %
31.05.2017 02:02 17,6 C 25,6 C 93 % 1015,6 hPa 0,0 l/m 3,9 km/h (1 Bft) SW 236 0 min 0,000 mm 0,0 UV-I 0 W/m 16,5 C 17,6 C 6,4 km/h (2 Bft) 97,56 %
31.05.2017 02:04 17,6 C 25,6 C 92 % 1015,5 hPa 0,0 l/m 4,6 km/h (1 Bft) S-SW 202 0 min 0,000 mm 0,0 UV-I 0 W/m 16,3 C 17,6 C 8,0 km/h (2 Bft) 92,59 %
31.05.2017 02:06 17,6 C 25,6 C 92 % 1015,5 hPa 0,0 l/m 4,8 km/h (1 Bft) S-SW 195 0 min 0,000 mm 0,0 UV-I 0 W/m 16,3 C 17,6 C 8,0 km/h (2 Bft) 95,65 %
31.05.2017 02:08 17,6 C 25,6 C 92 % 1015,5 hPa 0,0 l/m 3,0 km/h (1 Bft) S 184 0 min 0,000 mm 0,0 UV-I 0 W/m 16,3 C 17,6 C 4,8 km/h (1 Bft) 92,31 %
31.05.2017 02:10 17,6 C 25,6 C 93 % 1015,5 hPa 0,0 l/m 4,4 km/h (1 Bft) S-SW 203 0 min 0,000 mm 0,0 UV-I 0 W/m 16,5 C 17,6 C 9,7 km/h (2 Bft) 96,00 %
31.05.2017 02:12 17,6 C 25,6 C 93 % 1015,6 hPa 0,0 l/m 6,5 km/h (2 Bft) S-SW 194 0 min 0,000 mm 0,0 UV-I 0 W/m 16,5 C 17,6 C 9,7 km/h (2 Bft) 94,34 %
31.05.2017 02:14 17,6 C 25,6 C 92 % 1015,5 hPa 0,0 l/m 3,3 km/h (1 Bft) S 187 0 min 0,000 mm 0,0 UV-I 0 W/m 16,3 C 17,6 C 6,4 km/h (2 Bft) 94,74 %
31.05.2017 02:16 17,5 C 25,6 C 92 % 1015,5 hPa 0,0 l/m 4,8 km/h (1 Bft) S 178 0 min 0,000 mm 0,0 UV-I 0 W/m 16,2 C 17,5 C 8,0 km/h (2 Bft) 94,00 %
31.05.2017 02:18 17,6 C 25,6 C 92 % 1015,5 hPa 0,0 l/m 4,7 km/h (1 Bft) S 170 0 min 0,000 mm 0,0 UV-I 0 W/m 16,3 C 17,6 C 9,7 km/h (2 Bft) 95,12 %
31.05.2017 02:20 17,5 C 25,6 C 92 % 1015,5 hPa 0,0 l/m 4,4 km/h (1 Bft) S 170 0 min 0,000 mm 0,0 UV-I 0 W/m 16,2 C 17,5 C 8,0 km/h (2 Bft) 94,00 %
31.05.2017 02:22 17,5 C 25,6 C 92 % 1015,6 hPa 0,0 l/m 5,0 km/h (1 Bft) S-SW 202 0 min 0,000 mm 0,0 UV-I 0 W/m 16,2 C 17,5 C 9,7 km/h (2 Bft) 95,74 %
31.05.2017 02:24 17,5 C 25,6 C 92 % 1015,5 hPa 0,0 l/m 3,4 km/h (1 Bft) S-SW 202 0 min 0,000 mm 0,0 UV-I 0 W/m 16,2 C 17,5 C 6,4 km/h (2 Bft) 96,55 %
31.05.2017 02:26 17,5 C 25,6 C 92 % 1015,6 hPa 0,0 l/m 3,3 km/h (1 Bft) S-SW 197 0 min 0,000 mm 0,0 UV-I 0 W/m 16,2 C 17,5 C 8,0 km/h (2 Bft) 96,77 %
31.05.2017 02:28 17,4 C 25,6 C 92 % 1015,6 hPa 0,0 l/m 2,8 km/h (1 Bft) S-SW 197 0 min 0,000 mm 0,0 UV-I 0 W/m 16,1 C 17,4 C 4,8 km/h (1 Bft) 94,00 %
31.05.2017 02:30 17,4 C 25,6 C 92 % 1015,6 hPa 0,0 l/m 4,3 km/h (1 Bft) S 175 0 min 0,000 mm 0,0 UV-I 0 W/m 16,1 C 17,4 C 8,0 km/h (2 Bft) 95,12 %
31.05.2017 02:32 17,4 C 25,6 C 92 % 1015,6 hPa 0,0 l/m 2,4 km/h (1 Bft) S 174 0 min 0,000 mm 0,0 UV-I 0 W/m 16,1 C 17,4 C 4,8 km/h (1 Bft) 96,23 %
31.05.2017 02:34 17,4 C 25,6 C 92 % 1015,5 hPa 0,0 l/m 4,9 km/h (1 Bft) S-SO 163 0 min 0,000 mm 0,0 UV-I 0 W/m 16,1 C 17,4 C 8,0 km/h (2 Bft) 98,00 %
31.05.2017 02:36 17,4 C 25,6 C 93 % 1015,5 hPa 0,0 l/m 3,4 km/h (1 Bft) S-SO 165 0 min 0,000 mm 0,0 UV-I 0 W/m 16,3 C 17,4 C 8,0 km/h (2 Bft) 93,18 %
31.05.2017 02:38 17,4 C 25,6 C 93 % 1015,4 hPa 0,0 l/m 3,4 km/h (1 Bft) S 175 0 min 0,000 mm 0,0 UV-I 0 W/m 16,3 C 17,4 C 6,4 km/h (2 Bft) 98,00 %
31.05.2017 02:40 17,4 C 25,6 C 93 % 1015,5 hPa 0,0 l/m 4,3 km/h (1 Bft) S 169 0 min 0,000 mm 0,0 UV-I 0 W/m 16,3 C 17,4 C 8,0 km/h (2 Bft) 95,74 %
31.05.2017 02:42 17,4 C 25,6 C 93 % 1015,5 hPa 0,0 l/m 3,6 km/h (1 Bft) S-SO 166 0 min 0,000 mm 0,0 UV-I 0 W/m 16,3 C 17,4 C 8,0 km/h (2 Bft) 97,44 %
31.05.2017 02:44 17,4 C 25,6 C 93 % 1015,5 hPa 0,0 l/m 4,3 km/h (1 Bft) S 191 0 min 0,000 mm 0,0 UV-I 0 W/m 16,3 C 17,4 C 8,0 km/h (2 Bft) 98,11 %
31.05.2017 02:46 17,4 C 25,6 C 93 % 1015,6 hPa 0,0 l/m 4,0 km/h (1 Bft) S-SW 193 0 min 0,000 mm 0,0 UV-I 0 W/m 16,3 C 17,4 C 6,4 km/h (2 Bft) 98,00 %
31.05.2017 02:48 17,4 C 25,6 C 93 % 1015,6 hPa 0,0 l/m 5,2 km/h (1 Bft) SW 221 0 min 0,000 mm 0,0 UV-I 0 W/m 16,3 C 17,4 C 9,7 km/h (2 Bft) 100,00 %
31.05.2017 02:50 17,3 C 25,6 C 93 % 1015,6 hPa 0,0 l/m 3,9 km/h (1 Bft) S-SW 205 0 min 0,000 mm 0,0 UV-I 0 W/m 16,2 C 17,3 C 9,7 km/h (2 Bft) 98,11 %
31.05.2017 02:52 17,3 C 25,6 C 93 % 1015,7 hPa 0,0 l/m 3,9 km/h (1 Bft) S-SW 194 0 min 0,000 mm 0,0 UV-I 0 W/m 16,2 C 17,3 C 6,4 km/h (2 Bft) 95,74 %
31.05.2017 02:54 17,3 C 25,6 C 93 % 1015,7 hPa 0,0 l/m 3,6 km/h (1 Bft) S-SW 192 0 min 0,000 mm 0,0 UV-I 0 W/m 16,2 C 17,3 C 6,4 km/h (2 Bft) 97,87 %
31.05.2017 02:56 17,3 C 25,6 C 93 % 1015,7 hPa 0,0 l/m 4,7 km/h (1 Bft) S-SW 198 0 min 0,000 mm 0,0 UV-I 0 W/m 16,2 C 17,3 C 11,3 km/h (2 Bft) 100,00 %
31.05.2017 02:58 17,3 C 25,6 C 93 % 1015,7 hPa 0,0 l/m 3,1 km/h (1 Bft) S-SW 207 0 min 0,000 mm 0,0 UV-I 0 W/m 16,2 C 17,3 C 6,4 km/h (2 Bft) 96,00 %
31.05.2017 03:00 17,3 C 25,6 C 93 % 1015,7 hPa 0,0 l/m 4,0 km/h (1 Bft) SW 222 0 min 0,000 mm 0,0 UV-I 0 W/m 16,2 C 17,3 C 8,0 km/h (2 Bft) 98,11 %
31.05.2017 03:02 17,4 C 25,6 C 93 % 1015,7 hPa 0,0 l/m 4,5 km/h (1 Bft) S-SW 198 0 min 0,000 mm 0,0 UV-I 0 W/m 16,3 C 17,4 C 6,4 km/h (2 Bft) 98,00 %
31.05.2017 03:04 17,4 C 25,6 C 93 % 1015,7 hPa 0,0 l/m 5,4 km/h (1 Bft) SW 234 0 min 0,000 mm 0,0 UV-I 0 W/m 16,3 C 17,4 C 9,7 km/h (2 Bft) 97,14 %
31.05.2017 03:06 17,4 C 25,6 C 92 % 1015,8 hPa 0,0 l/m 6,6 km/h (2 Bft) S 188 0 min 0,000 mm 0,0 UV-I 0 W/m 16,1 C 17,3 C 14,5 km/h (3 Bft) 100,00 %
31.05.2017 03:08 17,4 C 25,6 C 92 % 1015,7 hPa 0,0 l/m 8,2 km/h (2 Bft) S-SW 213 0 min 0,000 mm 0,0 UV-I 0 W/m 16,1 C 16,5 C 11,3 km/h (2 Bft) 97,14 %
31.05.2017 03:10 17,4 C 25,6 C 92 % 1015,7 hPa 0,0 l/m 6,7 km/h (2 Bft) S-SW 213 0 min 0,000 mm 0,0 UV-I 0 W/m 16,1 C 17,3 C 11,3 km/h (2 Bft) 98,31 %
31.05.2017 03:12 17,4 C 25,6 C 92 % 1015,8 hPa 0,0 l/m 4,7 km/h (1 Bft) SW 220 0 min 0,000 mm 0,0 UV-I 0 W/m 16,1 C 17,4 C 8,0 km/h (2 Bft) 100,00 %
31.05.2017 03:14 17,4 C 25,6 C 92 % 1015,9 hPa 0,0 l/m 5,2 km/h (1 Bft) S-SW 213 0 min 0,000 mm 0,0 UV-I 0 W/m 16,1 C 17,4 C 8,0 km/h (2 Bft) 98,00 %
31.05.2017 03:16 17,5 C 25,6 C 92 % 1015,8 hPa 0,0 l/m 4,7 km/h (1 Bft) SW 222 0 min 0,000 mm 0,0 UV-I 0 W/m 16,2 C 17,5 C 8,0 km/h (2 Bft) 100,00 %
31.05.2017 03:18 17,5 C 25,6 C 91 % 1015,8 hPa 0,0 l/m 5,5 km/h (1 Bft) S-SW 211 0 min 0,000 mm 0,0 UV-I 0 W/m 16,0 C 17,5 C 8,0 km/h (2 Bft) 98,00 %
31.05.2017 03:20 17,5 C 25,6 C 91 % 1015,9 hPa 0,0 l/m 5,1 km/h (1 Bft) S-SW 209 0 min 0,000 mm 0,0 UV-I 0 W/m 16,0 C 17,5 C 6,4 km/h (2 Bft) 98,00 %
31.05.2017 03:22 17,5 C 25,6 C 91 % 1015,9 hPa 0,0 l/m 7,1 km/h (2 Bft) SW 221 0 min 0,000 mm 0,0 UV-I 0 W/m 16,0 C 17,2 C 9,7 km/h (2 Bft) 95,74 %
31.05.2017 03:24 17,5 C 25,6 C 91 % 1015,9 hPa 0,0 l/m 5,2 km/h (1 Bft) SW 235 0 min 0,000 mm 0,0 UV-I 0 W/m 16,0 C 17,5 C 6,4 km/h (2 Bft) 96,00 %
31.05.2017 03:26 17,5 C 25,6 C 92 % 1015,9 hPa 0,0 l/m 5,5 km/h (1 Bft) SW 236 0 min 0,000 mm 0,0 UV-I 0 W/m 16,2 C 17,5 C 9,7 km/h (2 Bft) 100,00 %
31.05.2017 03:28 17,5 C 25,6 C 92 % 1015,9 hPa 0,0 l/m 4,9 km/h (1 Bft) W-SW 238 0 min 0,000 mm 0,0 UV-I 0 W/m 16,2 C 17,5 C 6,4 km/h (2 Bft) 100,00 %
31.05.2017 03:30 17,5 C 25,6 C 92 % 1015,8 hPa 0,0 l/m 3,7 km/h (1 Bft) W-SW 238 0 min 0,000 mm 0,0 UV-I 0 W/m 16,2 C 17,5 C 4,8 km/h (1 Bft) 100,00 %
31.05.2017 03:32 17,5 C 25,6 C 92 % 1015,8 hPa 0,0 l/m 5,9 km/h (2 Bft) SW 217 0 min 0,000 mm 0,0 UV-I 0 W/m 16,2 C 17,5 C 9,7 km/h (2 Bft) 100,00 %
31.05.2017 03:34 17,5 C 25,6 C 91 % 1015,8 hPa 0,0 l/m 5,7 km/h (1 Bft) S-SW 208 0 min 0,000 mm 0,0 UV-I 0 W/m 16,0 C 17,5 C 9,7 km/h (2 Bft) 98,46 %
31.05.2017 03:36 17,4 C 25,6 C 91 % 1015,8 hPa 0,0 l/m 6,0 km/h (2 Bft) S-SW 200 0 min 0,000 mm 0,0 UV-I 0 W/m 15,9 C 17,4 C 8,0 km/h (2 Bft) 98,00 %
31.05.2017 03:38 17,5 C 25,6 C 91 % 1015,8 hPa 0,0 l/m 5,8 km/h (2 Bft) S-SW 212 0 min 0,000 mm 0,0 UV-I 0 W/m 16,0 C 17,5 C 8,0 km/h (2 Bft) 100,00 %
31.05.2017 03:40 17,5 C 25,6 C 92 % 1015,8 hPa 0,0 l/m 5,7 km/h (1 Bft) S-SW 202 0 min 0,000 mm 0,0 UV-I 0 W/m 16,2 C 17,5 C 8,0 km/h (2 Bft) 98,00 %
31.05.2017 03:42 17,4 C 25,6 C 91 % 1015,8 hPa 0,0 l/m 6,2 km/h (2 Bft) S-SW 205 0 min 0,000 mm 0,0 UV-I 0 W/m 15,9 C 17,4 C 9,7 km/h (2 Bft) 98,11 %
31.05.2017 03:44 17,4 C 25,6 C 91 % 1015,9 hPa 0,0 l/m 6,5 km/h (2 Bft) SW 218 0 min 0,000 mm 0,0 UV-I 0 W/m 15,9 C 17,4 C 9,7 km/h (2 Bft) 97,37 %
31.05.2017 03:46 17,4 C 25,6 C 91 % 1015,8 hPa 0,0 l/m 6,9 km/h (2 Bft) S-SW 208 0 min 0,000 mm 0,0 UV-I 0 W/m 15,9 C 17,2 C 9,7 km/h (2 Bft) 98,21 %
31.05.2017 03:48 17,4 C 25,6 C 92 % 1015,8 hPa 0,0 l/m 6,4 km/h (2 Bft) SW 216 0 min 0,000 mm 0,0 UV-I 0 W/m 16,1 C 17,4 C 11,3 km/h (2 Bft) 97,37 %
31.05.2017 03:50 17,4 C 25,6 C 91 % 1015,8 hPa 0,0 l/m 4,7 km/h (1 Bft) SW 216 0 min 0,000 mm 0,0 UV-I 0 W/m 15,9 C 17,4 C 8,0 km/h (2 Bft) 96,00 %
31.05.2017 03:52 17,4 C 25,6 C 92 % 1015,8 hPa 0,0 l/m 5,4 km/h (1 Bft) S-SW 212 0 min 0,000 mm 0,0 UV-I 0 W/m 16,1 C 17,4 C 9,7 km/h (2 Bft) 98,00 %
31.05.2017 03:54 17,3 C 25,6 C 91 % 1015,8 hPa 0,0 l/m 6,8 km/h (2 Bft) S-SW 212 0 min 0,000 mm 0,0 UV-I 0 W/m 15,8 C 17,1 C 9,7 km/h (2 Bft) 92,11 %
31.05.2017 03:56 17,3 C 25,6 C 92 % 1015,8 hPa 0,0 l/m 5,9 km/h (2 Bft) S-SW 212 0 min 0,000 mm 0,0 UV-I 0 W/m 16,0 C 17,3 C 8,0 km/h (2 Bft) 98,00 %
31.05.2017 03:58 17,3 C 25,6 C 92 % 1015,8 hPa 0,0 l/m 5,6 km/h (1 Bft) SW 217 0 min 0,000 mm 0,0 UV-I 0 W/m 16,0 C 17,3 C 9,7 km/h (2 Bft) 94,00 %
31.05.2017 04:00 17,3 C 25,6 C 92 % 1015,8 hPa 0,0 l/m 6,4 km/h (2 Bft) SW 214 0 min 0,000 mm 0,0 UV-I 0 W/m 16,0 C 17,3 C 8,0 km/h (2 Bft) 94,00 %
31.05.2017 04:05 17,3 C 25,6 C 92 % 1015,9 hPa 0,0 l/m 4,8 km/h (1 Bft) SW 225 0 min 0,000 mm 0,0 UV-I 0 W/m 16,0 C 17,3 C 8,0 km/h (2 Bft) 79,82 %
31.05.2017 04:12 17,3 C 25,6 C 92 % 1015,8 hPa 0,0 l/m 3,0 km/h (1 Bft) S 176 0 min 0,000 mm 0,0 UV-I 0 W/m 16,0 C 17,3 C 8,0 km/h (2 Bft) 60,53 %
31.05.2017 04:14 17,3 C 25,6 C 92 % 1015,8 hPa 0,0 l/m 3,7 km/h (1 Bft) S 176 0 min 0,000 mm 0,0 UV-I 0 W/m 16,0 C 17,3 C 6,4 km/h (2 Bft) 98,00 %
31.05.2017 04:16 17,3 C 25,6 C 92 % 1015,8 hPa 0,0 l/m 3,4 km/h (1 Bft) S-SO 165 0 min 0,000 mm 0,0 UV-I 0 W/m 16,0 C 17,3 C 9,7 km/h (2 Bft) 96,15 %
31.05.2017 04:18 17,3 C 25,6 C 92 % 1015,8 hPa 0,0 l/m 3,3 km/h (1 Bft) S-SO 166 0 min 0,000 mm 0,0 UV-I 0 W/m 16,0 C 17,3 C 6,4 km/h (2 Bft) 97,92 %
31.05.2017 04:20 17,3 C 25,6 C 93 % 1015,8 hPa 0,0 l/m 3,3 km/h (1 Bft) S-SW 198 0 min 0,000 mm 0,0 UV-I 0 W/m 16,2 C 17,3 C 6,4 km/h (2 Bft) 100,00 %
31.05.2017 04:22 17,3 C 25,6 C 93 % 1015,8 hPa 0,0 l/m 3,5 km/h (1 Bft) S-SW 192 0 min 0,000 mm 0,0 UV-I 0 W/m 16,2 C 17,3 C 6,4 km/h (2 Bft) 100,00 %
31.05.2017 04:24 17,3 C 25,6 C 93 % 1015,9 hPa 0,0 l/m 3,1 km/h (1 Bft) S-SW 192 0 min 0,000 mm 0,0 UV-I 0 W/m 16,2 C 17,3 C 4,8 km/h (1 Bft) 97,56 %
31.05.2017 04:26 17,3 C 25,6 C 93 % 1015,8 hPa 0,0 l/m 3,3 km/h (1 Bft) S-SW 192 0 min 0,000 mm 0,0 UV-I 0 W/m 16,2 C 17,3 C 4,8 km/h (1 Bft) 98,21 %
31.05.2017 04:28 17,3 C 25,6 C 93 % 1015,8 hPa 0,0 l/m 2,7 km/h (1 Bft) S-SW 192 0 min 0,000 mm 0,0 UV-I 0 W/m 16,2 C 17,3 C 4,8 km/h (1 Bft) 100,00 %
31.05.2017 04:30 17,2 C 25,6 C 93 % 1015,8 hPa 0,0 l/m 4,0 km/h (1 Bft) S-SW 210 0 min 0,000 mm 0,0 UV-I 0 W/m 16,1 C 17,2 C 6,4 km/h (2 Bft) 96,15 %
31.05.2017 04:32 17,2 C 25,6 C 93 % 1015,9 hPa 0,0 l/m 4,3 km/h (1 Bft) SW 217 0 min 0,000 mm 0,0 UV-I 0 W/m 16,1 C 17,2 C 6,4 km/h (2 Bft) 100,00 %
31.05.2017 04:34 17,2 C 25,6 C 93 % 1015,8 hPa 0,0 l/m 6,0 km/h (2 Bft) S-SW 205 0 min 0,000 mm 0,0 UV-I 0 W/m 16,1 C 17,2 C 8,0 km/h (2 Bft) 96,23 %
31.05.2017 04:36 17,2 C 25,6 C 93 % 1015,9 hPa 0,0 l/m 5,4 km/h (1 Bft) S-SW 209 0 min 0,000 mm 0,0 UV-I 0 W/m 16,1 C 17,2 C 8,0 km/h (2 Bft) 95,45 %
31.05.2017 04:38 17,2 C 25,0 C 93 % 1015,8 hPa 0,0 l/m 5,8 km/h (2 Bft) S 182 0 min 0,000 mm 0,0 UV-I 0 W/m 16,1 C 17,2 C 9,7 km/h (2 Bft) 100,00 %
31.05.2017 04:40 17,2 C 25,0 C 93 % 1015,8 hPa 0,0 l/m 3,6 km/h (1 Bft) S 184 0 min 0,000 mm 0,0 UV-I 0 W/m 16,1 C 17,2 C 6,4 km/h (2 Bft) 97,56 %
31.05.2017 04:42 17,2 C 25,0 C 93 % 1015,8 hPa 0,0 l/m 2,9 km/h (1 Bft) S 190 0 min 0,000 mm 0,0 UV-I 0 W/m 16,1 C 17,2 C 6,4 km/h (2 Bft) 100,00 %
31.05.2017 04:44 17,1 C 25,0 C 93 % 1015,9 hPa 0,0 l/m 2,8 km/h (1 Bft) S 190 0 min 0,000 mm 0,0 UV-I 0 W/m 16,0 C 17,1 C 4,8 km/h (1 Bft) 98,00 %
31.05.2017 04:46 17,1 C 25,0 C 93 % 1015,9 hPa 0,0 l/m 4,5 km/h (1 Bft) SW 222 0 min 0,000 mm 0,0 UV-I 0 W/m 16,0 C 17,1 C 8,0 km/h (2 Bft) 100,00 %
31.05.2017 04:48 17,1 C 25,0 C 93 % 1015,9 hPa 0,0 l/m 3,5 km/h (1 Bft) SW 222 0 min 0,000 mm 0,0 UV-I 0 W/m 16,0 C 17,1 C 6,4 km/h (2 Bft) 100,00 %
31.05.2017 04:50 17,1 C 25,0 C 93 % 1015,9 hPa 0,0 l/m 3,5 km/h (1 Bft) SW 222 0 min 0,000 mm 0,0 UV-I 0 W/m 16,0 C 17,1 C 6,4 km/h (2 Bft) 100,00 %
31.05.2017 04:52 17,1 C 25,0 C 93 % 1015,9 hPa 0,0 l/m 2,4 km/h (1 Bft) SW 222 0 min 0,000 mm 0,0 UV-I 0 W/m 16,0 C 17,1 C 3,2 km/h (1 Bft) 94,00 %
31.05.2017 04:54 17,1 C 25,0 C 93 % 1015,9 hPa 0,0 l/m 1,9 km/h (1 Bft) SW 222 0 min 0,000 mm 0,0 UV-I 0 W/m 16,0 C 17,1 C 3,2 km/h (1 Bft) 100,00 %
31.05.2017 04:56 17,1 C 25,0 C 93 % 1015,9 hPa 0,0 l/m 3,1 km/h (1 Bft) SW 222 0 min 0,000 mm 0,0 UV-I 0 W/m 16,0 C 17,1 C 6,4 km/h (2 Bft) 98,11 %
31.05.2017 04:58 17,1 C 25,0 C 93 % 1015,9 hPa 0,0 l/m 2,3 km/h (1 Bft) SW 222 0 min 0,000 mm 0,0 UV-I 0 W/m 16,0 C 17,1 C 4,8 km/h (1 Bft) 100,00 %
31.05.2017 05:00 17,1 C 25,0 C 93 % 1015,9 hPa 0,0 l/m 3,8 km/h (1 Bft) SW 222 0 min 0,000 mm 0,0 UV-I 0 W/m 16,0 C 17,1 C 6,4 km/h (2 Bft) 97,87 %
31.05.2017 05:02 17,1 C 25,0 C 93 % 1016,0 hPa 0,0 l/m 4,3 km/h (1 Bft) SW 222 0 min 0,000 mm 0,0 UV-I 0 W/m 16,0 C 17,1 C 6,4 km/h (2 Bft) 100,00 %
31.05.2017 05:04 17,1 C 25,0 C 94 % 1015,9 hPa 0,0 l/m 5,0 km/h (1 Bft) SW 221 0 min 0,000 mm 0,0 UV-I 0 W/m 16,1 C 17,1 C 8,0 km/h (2 Bft) 100,00 %
31.05.2017 05:06 17,1 C 25,0 C 93 % 1015,9 hPa 0,0 l/m 5,8 km/h (2 Bft) S-SW 207 0 min 0,000 mm 0,0 UV-I 5 W/m 16,0 C 17,1 C 8,0 km/h (2 Bft) 100,00 %
31.05.2017 05:08 17,1 C 25,0 C 93 % 1015,9 hPa 0,0 l/m 3,9 km/h (1 Bft) S-SW 206 0 min 0,000 mm 0,0 UV-I 5 W/m 16,0 C 17,1 C 4,8 km/h (1 Bft) 100,00 %
31.05.2017 05:10 17,0 C 25,0 C 93 % 1016,0 hPa 0,0 l/m 3,8 km/h (1 Bft) S-SW 207 0 min 0,000 mm 0,0 UV-I 5 W/m 15,9 C 17,0 C 6,4 km/h (2 Bft) 97,87 %
31.05.2017 05:12 17,0 C 25,0 C 94 % 1016,0 hPa 0,0 l/m 4,4 km/h (1 Bft) S-SW 213 0 min 0,000 mm 0,0 UV-I 5 W/m 16,0 C 17,0 C 6,4 km/h (2 Bft) 98,11 %
31.05.2017 05:14 17,1 C 25,0 C 94 % 1016,1 hPa 0,0 l/m 5,9 km/h (2 Bft) SW 225 0 min 0,000 mm 0,0 UV-I 5 W/m 16,1 C 17,1 C 8,0 km/h (2 Bft) 97,56 %
31.05.2017 05:16 17,1 C 25,0 C 94 % 1016,1 hPa 0,0 l/m 4,1 km/h (1 Bft) SW 228 0 min 0,000 mm 0,0 UV-I 7 W/m 16,1 C 17,1 C 6,4 km/h (2 Bft) 96,00 %
31.05.2017 05:18 17,1 C 25,0 C 94 % 1016,1 hPa 0,0 l/m 5,2 km/h (1 Bft) SW 229 0 min 0,000 mm 0,0 UV-I 7 W/m 16,1 C 17,1 C 8,0 km/h (2 Bft) 100,00 %
31.05.2017 05:20 17,0 C 25,0 C 94 % 1016,1 hPa 0,0 l/m 5,6 km/h (1 Bft) W-SW 237 0 min 0,000 mm 0,0 UV-I 8 W/m 16,0 C 17,0 C 9,7 km/h (2 Bft) 98,21 %
31.05.2017 05:22 17,0 C 25,0 C 94 % 1016,1 hPa 0,0 l/m 4,8 km/h (1 Bft) W-SW 240 0 min 0,000 mm 0,0 UV-I 9 W/m 16,0 C 17,0 C 8,0 km/h (2 Bft) 100,00 %
31.05.2017 05:24 17,0 C 25,0 C 94 % 1016,1 hPa 0,0 l/m 5,2 km/h (1 Bft) W-SW 240 0 min 0,000 mm 0,0 UV-I 10 W/m 16,0 C 17,0 C 8,0 km/h (2 Bft) 97,73 %
31.05.2017 05:26 17,1 C 25,0 C 94 % 1016,1 hPa 0,0 l/m 4,7 km/h (1 Bft) W-SW 240 0 min 0,000 mm 0,0 UV-I 11 W/m 16,1 C 17,1 C 6,4 km/h (2 Bft) 98,11 %
31.05.2017 05:28 17,1 C 25,0 C 94 % 1016,2 hPa 0,0 l/m 4,2 km/h (1 Bft) W-SW 240 0 min 0,000 mm 0,0 UV-I 12 W/m 16,1 C 17,1 C 8,0 km/h (2 Bft) 100,00 %
31.05.2017 05:30 17,1 C 25,0 C 93 % 1016,2 hPa 0,0 l/m 3,0 km/h (1 Bft) W-SW 241 0 min 0,000 mm 0,0 UV-I 12 W/m 16,0 C 17,1 C 6,4 km/h (2 Bft) 95,74 %
31.05.2017 05:32 17,1 C 25,0 C 93 % 1016,2 hPa 0,0 l/m 3,2 km/h (1 Bft) W-SW 241 0 min 0,000 mm 0,0 UV-I 14 W/m 16,0 C 17,1 C 6,4 km/h (2 Bft) 97,87 %
31.05.2017 05:34 17,1 C 25,0 C 93 % 1016,1 hPa 0,0 l/m 3,3 km/h (1 Bft) W-SW 241 0 min 0,000 mm 0,0 UV-I 16 W/m 16,0 C 17,1 C 4,8 km/h (1 Bft) 94,00 %
31.05.2017 05:36 17,1 C 25,0 C 93 % 1016,2 hPa 0,0 l/m 3,8 km/h (1 Bft) W-SW 240 0 min 0,000 mm 0,0 UV-I 18 W/m 16,0 C 17,1 C 6,4 km/h (2 Bft) 95,74 %
31.05.2017 05:38 17,1 C 25,0 C 93 % 1016,2 hPa 0,0 l/m 3,5 km/h (1 Bft) W-SW 240 0 min 0,000 mm 0,0 UV-I 19 W/m 16,0 C 17,1 C 6,4 km/h (2 Bft) 97,62 %
31.05.2017 05:40 17,1 C 25,0 C 93 % 1016,2 hPa 0,0 l/m 3,5 km/h (1 Bft) W-SW 240 0 min 0,000 mm 0,0 UV-I 21 W/m 16,0 C 17,1 C 6,4 km/h (2 Bft) 96,23 %
31.05.2017 05:42 17,1 C 25,0 C 93 % 1016,3 hPa 0,0 l/m 3,3 km/h (1 Bft) W-SW 240 0 min 0,000 mm 0,0 UV-I 24 W/m 16,0 C 17,1 C 6,4 km/h (2 Bft) 94,74 %
31.05.2017 05:44 17,1 C 25,0 C 93 % 1016,3 hPa 0,0 l/m 3,9 km/h (1 Bft) W-SW 240 0 min 0,000 mm 0,0 UV-I 27 W/m 16,0 C 17,1 C 6,4 km/h (2 Bft) 95,74 %
31.05.2017 05:46 17,0 C 25,0 C 93 % 1016,3 hPa 0,0 l/m 3,3 km/h (1 Bft) W-SW 240 0 min 0,000 mm 0,0 UV-I 28 W/m 15,9 C 17,0 C 6,4 km/h (2 Bft) 96,00 %
31.05.2017 05:48 17,0 C 25,0 C 93 % 1016,4 hPa 0,0 l/m 3,0 km/h (1 Bft) W-SW 240 0 min 0,000 mm 0,0 UV-I 29 W/m 15,9 C 17,0 C 4,8 km/h (1 Bft) 95,12 %
31.05.2017 05:50 16,9 C 25,0 C 93 % 1016,4 hPa 0,0 l/m 2,3 km/h (1 Bft) W-SW 240 0 min 0,000 mm 0,0 UV-I 31 W/m 15,8 C 16,9 C 4,8 km/h (1 Bft) 96,00 %
31.05.2017 05:52 16,9 C 25,0 C 93 % 1016,4 hPa 0,0 l/m 3,4 km/h (1 Bft) W-SW 240 0 min 0,000 mm 0,0 UV-I 33 W/m 15,8 C 16,9 C 6,4 km/h (2 Bft) 92,11 %
31.05.2017 05:54 16,9 C 25,0 C 93 % 1016,4 hPa 0,0 l/m 3,5 km/h (1 Bft) W-SW 240 0 min 0,000 mm 0,0 UV-I 35 W/m 15,8 C 16,9 C 4,8 km/h (1 Bft) 96,77 %
31.05.2017 05:56 17,0 C 25,0 C 93 % 1016,4 hPa 0,0 l/m 3,4 km/h (1 Bft) W-SW 240 0 min 0,000 mm 0,0 UV-I 36 W/m 15,9 C 17,0 C 4,8 km/h (1 Bft) 91,43 %
31.05.2017 05:58 17,0 C 25,0 C 93 % 1016,5 hPa 0,0 l/m 4,1 km/h (1 Bft) W-SW 240 0 min 0,000 mm 0,0 UV-I 40 W/m 15,9 C 17,0 C 6,4 km/h (2 Bft) 94,74 %
31.05.2017 06:00 17,0 C 25,0 C 93 % 1016,5 hPa 0,0 l/m 3,5 km/h (1 Bft) W-SW 240 0 min 0,025 mm 0,0 UV-I 43 W/m 15,9 C 17,0 C 4,8 km/h (1 Bft) 92,65 %
31.05.2017 06:02 17,0 C 25,0 C 93 % 1016,5 hPa 0,0 l/m 2,7 km/h (1 Bft) W-SW 240 0 min 0,000 mm 0,0 UV-I 46 W/m 15,9 C 17,0 C 4,8 km/h (1 Bft) 97,56 %
31.05.2017 06:04 17,0 C 25,0 C 93 % 1016,5 hPa 0,0 l/m 2,3 km/h (1 Bft) W-SW 240 0 min 0,000 mm 0,0 UV-I 48 W/m 15,9 C 17,0 C 4,8 km/h (1 Bft) 91,49 %
31.05.2017 06:06 16,9 C 25,0 C 93 % 1016,6 hPa 0,0 l/m 4,1 km/h (1 Bft) W-SW 240 0 min 0,000 mm 0,0 UV-I 50 W/m 15,8 C 16,9 C 6,4 km/h (2 Bft) 93,18 %
31.05.2017 06:08 16,9 C 25,0 C 93 % 1016,5 hPa 0,0 l/m 4,8 km/h (1 Bft) W 265 0 min 0,000 mm 0,0 UV-I 48 W/m 15,8 C 16,9 C 6,4 km/h (2 Bft) 94,34 %
31.05.2017 06:10 16,9 C 25,0 C 93 % 1016,6 hPa 0,0 l/m 4,1 km/h (1 Bft) SW 232 0 min 0,000 mm 0,0 UV-I 53 W/m 15,8 C 16,9 C 6,4 km/h (2 Bft) 88,10 %
31.05.2017 06:12 16,9 C 25,0 C 93 % 1016,6 hPa 0,0 l/m 4,2 km/h (1 Bft) SW 232 0 min 0,000 mm 0,0 UV-I 58 W/m 15,8 C 16,9 C 6,4 km/h (2 Bft) 94,23 %
31.05.2017 06:14 16,9 C 25,0 C 93 % 1016,6 hPa 0,0 l/m 5,3 km/h (1 Bft) SW 232 0 min 0,000 mm 0,0 UV-I 63 W/m 15,8 C 16,9 C 8,0 km/h (2 Bft) 86,11 %
31.05.2017 06:16 16,9 C 25,0 C 93 % 1016,6 hPa 0,0 l/m 4,3 km/h (1 Bft) SW 232 0 min 0,000 mm 0,0 UV-I 68 W/m 15,8 C 16,9 C 6,4 km/h (2 Bft) 96,23 %
31.05.2017 06:18 16,9 C 25,0 C 93 % 1016,6 hPa 0,0 l/m 5,3 km/h (1 Bft) SW 232 0 min 0,000 mm 0,0 UV-I 70 W/m 15,8 C 16,9 C 6,4 km/h (2 Bft) 98,00 %
31.05.2017 06:20 16,9 C 25,0 C 93 % 1016,6 hPa 0,0 l/m 4,6 km/h (1 Bft) SW 232 0 min 0,000 mm 0,0 UV-I 72 W/m 15,8 C 16,9 C 6,4 km/h (2 Bft) 92,11 %
31.05.2017 06:22 17,0 C 25,0 C 94 % 1016,7 hPa 0,0 l/m 4,1 km/h (1 Bft) SW 232 0 min 0,000 mm 0,0 UV-I 75 W/m 16,0 C 17,0 C 6,4 km/h (2 Bft) 94,34 %
31.05.2017 06:24 17,0 C 25,0 C 93 % 1016,6 hPa 0,0 l/m 3,4 km/h (1 Bft) SW 232 0 min 0,000 mm 0,0 UV-I 77 W/m 15,9 C 17,0 C 4,8 km/h (1 Bft) 96,00 %
31.05.2017 06:26 17,1 C 25,0 C 94 % 1016,7 hPa 0,0 l/m 3,8 km/h (1 Bft) SW 232 0 min 0,000 mm 0,0 UV-I 77 W/m 16,1 C 17,1 C 6,4 km/h (2 Bft) 97,56 %
31.05.2017 06:28 17,1 C 25,0 C 94 % 1016,7 hPa 0,0 l/m 3,6 km/h (1 Bft) SW 232 0 min 0,000 mm 0,0 UV-I 96 W/m 16,1 C 17,1 C 4,8 km/h (1 Bft) 98,00 %
31.05.2017 06:30 17,1 C 25,0 C 93 % 1016,7 hPa 0,0 l/m 3,3 km/h (1 Bft) SW 232 0 min 0,000 mm 0,0 UV-I 100 W/m 16,0 C 17,1 C 6,4 km/h (2 Bft) 98,00 %
31.05.2017 06:32 17,2 C 25,0 C 93 % 1016,7 hPa 0,0 l/m 2,9 km/h (1 Bft) SW 232 0 min 0,000 mm 0,0 UV-I 100 W/m 16,1 C 17,2 C 4,8 km/h (1 Bft) 94,74 %
31.05.2017 06:34 17,2 C 25,0 C 93 % 1016,7 hPa 0,0 l/m 4,5 km/h (1 Bft) W 259 0 min 0,000 mm 0,0 UV-I 103 W/m 16,1 C 17,2 C 6,4 km/h (2 Bft) 100,00 %
31.05.2017 06:36 17,2 C 25,0 C 93 % 1016,8 hPa 0,0 l/m 4,8 km/h (1 Bft) W 271 0 min 0,000 mm 0,0 UV-I 86 W/m 16,1 C 17,2 C 9,7 km/h (2 Bft) 100,00 %
31.05.2017 06:38 17,3 C 25,0 C 93 % 1016,7 hPa 0,0 l/m 7,7 km/h (2 Bft) W-SW 237 0 min 0,000 mm 0,0 UV-I 88 W/m 16,2 C 16,7 C 12,9 km/h (3 Bft) 100,00 %
31.05.2017 06:40 17,3 C 25,0 C 93 % 1016,8 hPa 0,0 l/m 7,4 km/h (2 Bft) W 265 0 min 0,000 mm 0,0 UV-I 90 W/m 16,2 C 16,8 C 9,7 km/h (2 Bft) 100,00 %
31.05.2017 06:42 17,3 C 25,0 C 93 % 1016,8 hPa 0,0 l/m 8,3 km/h (2 Bft) W-SW 249 0 min 0,000 mm 0,0 UV-I 92 W/m 16,2 C 16,4 C 12,9 km/h (3 Bft) 100,00 %
31.05.2017 06:44 17,4 C 25,0 C 93 % 1016,8 hPa 0,0 l/m 6,2 km/h (2 Bft) W 273 0 min 0,000 mm 0,0 UV-I 107 W/m 16,3 C 17,4 C 9,7 km/h (2 Bft) 100,00 %
31.05.2017 06:46 17,4 C 25,0 C 92 % 1016,9 hPa 0,0 l/m 7,5 km/h (2 Bft) SW 236 2 min 0,000 mm 0,0 UV-I 136 W/m 16,1 C 16,9 C 9,7 km/h (2 Bft) 100,00 %
31.05.2017 06:48 17,5 C 25,0 C 92 % 1016,9 hPa 0,0 l/m 7,3 km/h (2 Bft) W-SW 257 2 min 0,000 mm 0,0 UV-I 144 W/m 16,2 C 17,1 C 11,3 km/h (2 Bft) 100,00 %
31.05.2017 06:50 17,6 C 25,0 C 92 % 1016,8 hPa 0,0 l/m 5,6 km/h (1 Bft) W 279 2 min 0,000 mm 0,0 UV-I 146 W/m 16,3 C 17,6 C 11,3 km/h (2 Bft) 98,00 %
31.05.2017 06:52 17,7 C 25,0 C 92 % 1016,9 hPa 0,0 l/m 8,4 km/h (2 Bft) W-SW 244 2 min 0,000 mm 0,0 UV-I 149 W/m 16,4 C 16,8 C 14,5 km/h (3 Bft) 100,00 %
31.05.2017 06:54 17,7 C 25,0 C 92 % 1016,9 hPa 0,0 l/m 6,4 km/h (2 Bft) W-SW 254 2 min 0,000 mm 0,0 UV-I 156 W/m 16,4 C 17,7 C 11,3 km/h (2 Bft) 96,23 %
31.05.2017 06:56 17,8 C 25,0 C 92 % 1016,8 hPa 0,0 l/m 8,6 km/h (2 Bft) S-SW 213 2 min 0,000 mm 0,0 UV-I 159 W/m 16,5 C 16,8 C 12,9 km/h (3 Bft) 100,00 %
31.05.2017 06:58 17,8 C 25,0 C 91 % 1016,8 hPa 0,0 l/m 8,6 km/h (2 Bft) SW 223 2 min 0,000 mm 0,0 UV-I 170 W/m 16,3 C 16,8 C 14,5 km/h (3 Bft) 96,77 %
31.05.2017 07:00 17,9 C 25,0 C 92 % 1016,8 hPa 0,0 l/m 7,8 km/h (2 Bft) W-NW 284 2 min 0,051 mm 0,0 UV-I 184 W/m 16,6 C 17,2 C 14,5 km/h (3 Bft) 100,00 %
31.05.2017 07:02 18,0 C 25,0 C 91 % 1016,9 hPa 0,0 l/m 7,7 km/h (2 Bft) W-SW 248 2 min 0,000 mm 0,0 UV-I 203 W/m 16,5 C 17,4 C 12,9 km/h (3 Bft) 91,07 %
31.05.2017 07:04 18,1 C 25,0 C 91 % 1016,9 hPa 0,0 l/m 8,4 km/h (2 Bft) W-SW 256 2 min 0,000 mm 0,0 UV-I 174 W/m 16,6 C 17,2 C 14,5 km/h (3 Bft) 100,00 %
31.05.2017 07:06 18,2 C 25,0 C 90 % 1017,0 hPa 0,0 l/m 10,1 km/h (2 Bft) W-SW 246 2 min 0,000 mm 0,0 UV-I 160 W/m 16,5 C 16,6 C 16,1 km/h (3 Bft) 96,43 %
31.05.2017 07:08 18,2 C 25,0 C 90 % 1016,9 hPa 0,0 l/m 8,4 km/h (2 Bft) W-SW 248 0 min 0,000 mm 0,0 UV-I 153 W/m 16,5 C 17,3 C 16,1 km/h (3 Bft) 100,00 %
31.05.2017 07:10 18,2 C 25,0 C 90 % 1017,0 hPa 0,0 l/m 11,1 km/h (2 Bft) W-SW 246 0 min 0,000 mm 0,0 UV-I 146 W/m 16,5 C 16,3 C 17,7 km/h (3 Bft) 100,00 %
31.05.2017 07:12 18,3 C 25,0 C 90 % 1016,9 hPa 0,0 l/m 9,3 km/h (2 Bft) W-SW 243 0 min 0,000 mm 0,0 UV-I 141 W/m 16,6 C 17,0 C 17,7 km/h (3 Bft) 98,00 %
31.05.2017 07:14 18,3 C 25,0 C 89 % 1017,0 hPa 0,0 l/m 8,3 km/h (2 Bft) SW 231 0 min 0,000 mm 0,0 UV-I 132 W/m 16,5 C 17,4 C 14,5 km/h (3 Bft) 97,37 %
31.05.2017 07:16 18,3 C 25,0 C 90 % 1017,0 hPa 0,0 l/m 8,0 km/h (2 Bft) SW 234 0 min 0,000 mm 0,0 UV-I 119 W/m 16,6 C 17,6 C 12,9 km/h (3 Bft) 100,00 %
31.05.2017 07:18 18,3 C 25,0 C 89 % 1017,0 hPa 0,0 l/m 9,5 km/h (2 Bft) W-SW 245 0 min 0,000 mm 0,0 UV-I 109 W/m 16,5 C 17,0 C 14,5 km/h (3 Bft) 89,36 %
31.05.2017 07:20 18,3 C 25,0 C 89 % 1017,0 hPa 0,0 l/m 11,1 km/h (2 Bft) SW 227 0 min 0,000 mm 0,0 UV-I 108 W/m 16,5 C 16,4 C 20,9 km/h (4 Bft) 96,00 %
31.05.2017 07:22 18,3 C 25,0 C 89 % 1017,1 hPa 0,0 l/m 8,1 km/h (2 Bft) W 259 0 min 0,000 mm 0,0 UV-I 111 W/m 16,5 C 17,5 C 14,5 km/h (3 Bft) 100,00 %
31.05.2017 07:24 18,3 C 25,0 C 89 % 1017,0 hPa 0,0 l/m 8,0 km/h (2 Bft) W-SW 242 0 min 0,000 mm 0,0 UV-I 114 W/m 16,5 C 17,6 C 12,9 km/h (3 Bft) 98,11 %
31.05.2017 07:26 18,4 C 25,0 C 90 % 1017,1 hPa 0,0 l/m 6,2 km/h (2 Bft) S-SW 211 0 min 0,000 mm 0,0 UV-I 117 W/m 16,7 C 18,4 C 9,7 km/h (2 Bft) 94,00 %
31.05.2017 07:28 18,4 C 25,0 C 89 % 1017,0 hPa 0,0 l/m 9,3 km/h (2 Bft) S-SW 211 0 min 0,000 mm 0,0 UV-I 119 W/m 16,6 C 17,1 C 16,1 km/h (3 Bft) 100,00 %
31.05.2017 07:30 18,3 C 25,0 C 89 % 1017,0 hPa 0,0 l/m 9,5 km/h (2 Bft) SW 215 0 min 0,000 mm 0,0 UV-I 115 W/m 16,5 C 17,0 C 14,5 km/h (3 Bft) 100,00 %
31.05.2017 07:32 18,3 C 25,0 C 89 % 1017,0 hPa 0,0 l/m 7,6 km/h (2 Bft) S-SW 207 0 min 0,000 mm 0,0 UV-I 105 W/m 16,5 C 17,7 C 11,3 km/h (2 Bft) 97,37 %
31.05.2017 07:34 18,3 C 25,0 C 89 % 1017,0 hPa 0,0 l/m 11,2 km/h (2 Bft) SW 223 0 min 0,000 mm 0,0 UV-I 102 W/m 16,5 C 16,3 C 16,1 km/h (3 Bft) 98,39 %
31.05.2017 07:36 18,3 C 25,0 C 89 % 1017,0 hPa 0,0 l/m 8,0 km/h (2 Bft) W-SW 247 0 min 0,000 mm 0,0 UV-I 99 W/m 16,5 C 17,6 C 11,3 km/h (2 Bft) 100,00 %
31.05.2017 07:38 18,3 C 25,0 C 89 % 1017,0 hPa 0,0 l/m 8,7 km/h (2 Bft) W-SW 240 0 min 0,000 mm 0,0 UV-I 102 W/m 16,5 C 17,3 C 12,9 km/h (3 Bft) 98,11 %
31.05.2017 07:40 18,3 C 25,0 C 89 % 1017,1 hPa 0,0 l/m 10,9 km/h (2 Bft) SW 231 0 min 0,000 mm 0,0 UV-I 104 W/m 16,5 C 16,4 C 17,7 km/h (3 Bft) 97,56 %
31.05.2017 07:42 18,3 C 25,0 C 89 % 1017,0 hPa 0,0 l/m 9,0 km/h (2 Bft) SW 224 0 min 0,000 mm 0,0 UV-I 110 W/m 16,5 C 17,1 C 12,9 km/h (3 Bft) 100,00 %
31.05.2017 07:44 18,3 C 25,0 C 89 % 1017,1 hPa 0,0 l/m 12,4 km/h (3 Bft) W-SW 248 0 min 0,000 mm 0,0 UV-I 120 W/m 16,5 C 15,9 C 16,1 km/h (3 Bft) 98,11 %
31.05.2017 07:46 18,3 C 25,0 C 89 % 1017,0 hPa 0,0 l/m 10,9 km/h (2 Bft) SW 221 0 min 0,000 mm 0,2 UV-I 134 W/m 16,5 C 16,4 C 17,7 km/h (3 Bft) 97,87 %
31.05.2017 07:48 18,3 C 25,0 C 89 % 1017,0 hPa 0,0 l/m 10,0 km/h (2 Bft) W-SW 240 0 min 0,000 mm 0,5 UV-I 143 W/m 16,5 C 16,8 C 16,1 km/h (3 Bft) 95,12 %
31.05.2017 07:50 18,4 C 25,0 C 89 % 1017,0 hPa 0,0 l/m 9,3 km/h (2 Bft) SW 232 0 min 0,000 mm 0,5 UV-I 155 W/m 16,6 C 17,1 C 16,1 km/h (3 Bft) 96,00 %
31.05.2017 07:52 18,4 C 25,0 C 89 % 1017,1 hPa 0,0 l/m 9,1 km/h (2 Bft) W-SW 243 0 min 0,000 mm 0,6 UV-I 169 W/m 16,6 C 17,2 C 14,5 km/h (3 Bft) 94,74 %
31.05.2017 07:54 18,4 C 25,0 C 89 % 1017,0 hPa 0,0 l/m 9,8 km/h (2 Bft) SW 224 0 min 0,000 mm 0,6 UV-I 179 W/m 16,6 C 16,9 C 14,5 km/h (3 Bft) 96,08 %
31.05.2017 07:56 18,5 C 25,0 C 89 % 1017,1 hPa 0,0 l/m 10,4 km/h (2 Bft) SW 227 0 min 0,000 mm 0,6 UV-I 186 W/m 16,7 C 16,8 C 16,1 km/h (3 Bft) 95,74 %
31.05.2017 07:58 18,6 C 25,0 C 88 % 1017,1 hPa 0,0 l/m 11,9 km/h (2 Bft) W-SW 239 0 min 0,000 mm 0,6 UV-I 184 W/m 16,6 C 16,4 C 16,1 km/h (3 Bft) 96,00 %
31.05.2017 08:00 18,6 C 25,0 C 88 % 1017,1 hPa 0,0 l/m 8,5 km/h (2 Bft) W-SW 254 0 min 0,102 mm 0,5 UV-I 163 W/m 16,6 C 17,7 C 14,5 km/h (3 Bft) 97,56 %
31.05.2017 08:02 18,7 C 25,0 C 88 % 1017,1 hPa 0,0 l/m 7,3 km/h (2 Bft) W 273 0 min 0,000 mm 0,5 UV-I 148 W/m 16,7 C 18,3 C 12,9 km/h (3 Bft) 97,87 %
31.05.2017 08:04 18,7 C 25,0 C 89 % 1017,2 hPa 0,0 l/m 8,0 km/h (2 Bft) W 259 0 min 0,000 mm 0,6 UV-I 140 W/m 16,8 C 18,0 C 14,5 km/h (3 Bft) 98,00 %
31.05.2017 08:06 18,7 C 25,0 C 88 % 1017,1 hPa 0,0 l/m 9,4 km/h (2 Bft) S-SW 207 0 min 0,000 mm 0,6 UV-I 136 W/m 16,7 C 17,4 C 12,9 km/h (3 Bft) 97,62 %
31.05.2017 08:08 18,7 C 25,0 C 88 % 1017,2 hPa 0,0 l/m 7,7 km/h (2 Bft) W-SW 240 0 min 0,000 mm 0,6 UV-I 131 W/m 16,7 C 18,1 C 12,9 km/h (3 Bft) 94,55 %
31.05.2017 08:10 18,7 C 25,0 C 88 % 1017,2 hPa 0,0 l/m 5,3 km/h (1 Bft) SW 236 0 min 0,000 mm 0,7 UV-I 128 W/m 16,7 C 18,7 C 8,0 km/h (2 Bft) 98,00 %
31.05.2017 08:12 18,7 C 25,0 C 88 % 1017,1 hPa 0,0 l/m 6,5 km/h (2 Bft) SW 233 0 min 0,000 mm 0,7 UV-I 139 W/m 16,7 C 18,7 C 11,3 km/h (2 Bft) 93,33 %
31.05.2017 08:14 18,7 C 25,0 C 88 % 1017,2 hPa 0,0 l/m 9,1 km/h (2 Bft) W-SW 244 0 min 0,000 mm 0,8 UV-I 159 W/m 16,7 C 17,5 C 12,9 km/h (3 Bft) 96,00 %
31.05.2017 08:16 18,8 C 25,0 C 88 % 1017,2 hPa 0,0 l/m 7,6 km/h (2 Bft) SW 232 0 min 0,000 mm 0,8 UV-I 167 W/m 16,8 C 18,3 C 11,3 km/h (2 Bft) 97,87 %
31.05.2017 08:18 18,8 C 25,0 C 89 % 1017,2 hPa 0,0 l/m 6,5 km/h (2 Bft) W 262 2 min 0,000 mm 0,9 UV-I 326 W/m 16,9 C 18,8 C 9,7 km/h (2 Bft) 95,12 %
31.05.2017 08:20 19,0 C 25,0 C 88 % 1017,2 hPa 0,0 l/m 9,3 km/h (2 Bft) W 267 2 min 0,000 mm 1,0 UV-I 307 W/m 17,0 C 17,8 C 16,1 km/h (3 Bft) 98,11 %
31.05.2017 08:22 19,1 C 25,0 C 87 % 1017,2 hPa 0,0 l/m 8,9 km/h (2 Bft) SW 234 2 min 0,000 mm 1,1 UV-I 276 W/m 16,9 C 18,0 C 16,1 km/h (3 Bft) 97,56 %
31.05.2017 08:24 19,2 C 25,0 C 87 % 1017,2 hPa 0,0 l/m 10,5 km/h (2 Bft) W 276 2 min 0,000 mm 1,2 UV-I 406 W/m 17,0 C 17,6 C 16,1 km/h (3 Bft) 100,00 %
31.05.2017 08:26 19,3 C 25,0 C 86 % 1017,3 hPa 0,0 l/m 7,3 km/h (2 Bft) W-SW 240 2 min 0,000 mm 1,2 UV-I 322 W/m 16,9 C 18,9 C 11,3 km/h (2 Bft) 95,12 %
31.05.2017 08:28 19,3 C 25,0 C 85 % 1017,2 hPa 0,0 l/m 10,6 km/h (2 Bft) W-SW 240 2 min 0,000 mm 1,3 UV-I 350 W/m 16,7 C 17,7 C 16,1 km/h (3 Bft) 100,00 %
31.05.2017 08:30 19,4 C 25,0 C 85 % 1017,3 hPa 0,0 l/m 8,6 km/h (2 Bft) W-SW 244 2 min 0,000 mm 1,2 UV-I 311 W/m 16,8 C 18,5 C 12,9 km/h (3 Bft) 96,00 %
31.05.2017 08:32 19,4 C 25,0 C 85 % 1017,3 hPa 0,0 l/m 7,6 km/h (2 Bft) W-SW 254 0 min 0,000 mm 1,2 UV-I 214 W/m 16,8 C 18,9 C 11,3 km/h (2 Bft) 97,56 %
31.05.2017 08:34 19,6 C 25,0 C 86 % 1017,3 hPa 0,0 l/m 10,7 km/h (2 Bft) W-SW 252 2 min 0,000 mm 1,3 UV-I 324 W/m 17,2 C 18,0 C 17,7 km/h (3 Bft) 98,00 %
31.05.2017 08:36 19,7 C 25,0 C 85 % 1017,3 hPa 0,0 l/m 10,0 km/h (2 Bft) W 265 2 min 0,000 mm 1,4 UV-I 445 W/m 17,1 C 18,3 C 16,1 km/h (3 Bft) 100,00 %
31.05.2017 08:38 19,9 C 25,0 C 84 % 1017,3 hPa 0,0 l/m 8,5 km/h (2 Bft) SW 221 2 min 0,000 mm 1,5 UV-I 472 W/m 17,1 C 19,1 C 14,5 km/h (3 Bft) 97,14 %
31.05.2017 08:40 20,1 C 25,0 C 83 % 1017,3 hPa 0,0 l/m 11,0 km/h (2 Bft) SW 226 2 min 0,000 mm 1,5 UV-I 512 W/m 17,1 C 18,4 C 17,7 km/h (3 Bft) 97,37 %
31.05.2017 08:42 20,3 C 25,0 C 82 % 1017,4 hPa 0,0 l/m 10,5 km/h (2 Bft) W 259 2 min 0,000 mm 1,5 UV-I 478 W/m 17,1 C 18,8 C 17,7 km/h (3 Bft) 100,00 %
31.05.2017 08:44 20,3 C 25,0 C 80 % 1017,4 hPa 0,0 l/m 15,6 km/h (3 Bft) W-SW 242 2 min 0,000 mm 1,4 UV-I 384 W/m 16,7 C 17,5 C 24,1 km/h (4 Bft) 96,30 %
31.05.2017 08:46 20,4 C 25,0 C 82 % 1017,4 hPa 0,0 l/m 10,9 km/h (2 Bft) W-SW 241 2 min 0,000 mm 1,4 UV-I 457 W/m 17,2 C 18,8 C 16,1 km/h (3 Bft) 98,63 %
31.05.2017 08:48 20,5 C 25,0 C 82 % 1017,4 hPa 0,0 l/m 15,4 km/h (3 Bft) SW 230 2 min 0,000 mm 1,3 UV-I 570 W/m 17,3 C 17,8 C 22,5 km/h (4 Bft) 100,00 %
31.05.2017 08:50 20,6 C 25,0 C 81 % 1017,5 hPa 0,0 l/m 16,4 km/h (3 Bft) SW 235 2 min 0,000 mm 1,1 UV-I 414 W/m 17,2 C 17,7 C 22,5 km/h (4 Bft) 96,36 %
31.05.2017 08:52 20,5 C 25,0 C 80 % 1017,4 hPa 0,0 l/m 15,2 km/h (3 Bft) W 260 2 min 0,000 mm 1,0 UV-I 325 W/m 16,9 C 17,8 C 22,5 km/h (4 Bft) 100,00 %
31.05.2017 08:54 20,4 C 25,0 C 81 % 1017,5 hPa 0,0 l/m 12,3 km/h (3 Bft) W-SW 242 0 min 0,000 mm 0,9 UV-I 274 W/m 17,0 C 18,4 C 17,7 km/h (3 Bft) 98,00 %
31.05.2017 08:56 20,4 C 25,0 C 82 % 1017,5 hPa 0,0 l/m 9,7 km/h (2 Bft) W 263 0 min 0,000 mm 0,8 UV-I 278 W/m 17,2 C 19,2 C 19,3 km/h (3 Bft) 100,00 %
31.05.2017 08:58 20,4 C 25,0 C 81 % 1017,6 hPa 0,0 l/m 15,4 km/h (3 Bft) W-SW 256 0 min 0,000 mm 0,8 UV-I 206 W/m 17,0 C 17,6 C 25,7 km/h (4 Bft) 96,23 %
31.05.2017 09:00 20,3 C 25,0 C 81 % 1017,6 hPa 0,0 l/m 10,5 km/h (2 Bft) W-SW 258 0 min 0,203 mm 0,8 UV-I 188 W/m 16,9 C 18,8 C 16,1 km/h (3 Bft) 97,73 %
31.05.2017 09:02 20,2 C 25,0 C 82 % 1017,6 hPa 0,0 l/m 10,9 km/h (2 Bft) W-SW 258 0 min 0,000 mm 0,8 UV-I 188 W/m 17,0 C 18,6 C 16,1 km/h (3 Bft) 100,00 %
31.05.2017 09:04 20,1 C 25,0 C 82 % 1017,6 hPa 0,0 l/m 12,9 km/h (3 Bft) W 263 0 min 0,000 mm 0,9 UV-I 198 W/m 16,9 C 17,9 C 19,3 km/h (3 Bft) 94,64 %
31.05.2017 09:06 20,1 C 25,0 C 83 % 1017,6 hPa 0,0 l/m 7,8 km/h (2 Bft) W-SW 237 0 min 0,000 mm 1,0 UV-I 207 W/m 17,1 C 19,5 C 14,5 km/h (3 Bft) 100,00 %
31.05.2017 09:08 20,1 C 25,0 C 83 % 1017,6 hPa 0,0 l/m 10,8 km/h (2 Bft) W-SW 248 0 min 0,000 mm 1,0 UV-I 215 W/m 17,1 C 18,5 C 16,1 km/h (3 Bft) 100,00 %
31.05.2017 09:10 20,0 C 25,0 C 83 % 1017,7 hPa 0,0 l/m 12,4 km/h (3 Bft) W-SW 256 0 min 0,000 mm 1,1 UV-I 215 W/m 17,0 C 17,9 C 20,9 km/h (4 Bft) 100,00 %
31.05.2017 09:12 20,0 C 25,0 C 83 % 1017,6 hPa 0,0 l/m 9,9 km/h (2 Bft) W-SW 258 0 min 0,000 mm 1,2 UV-I 219 W/m 17,0 C 18,7 C 16,1 km/h (3 Bft) 100,00 %
31.05.2017 09:14 20,1 C 25,0 C 83 % 1017,6 hPa 0,0 l/m 10,8 km/h (2 Bft) SW 215 0 min 0,000 mm 1,3 UV-I 228 W/m 17,1 C 18,5 C 14,5 km/h (3 Bft) 98,11 %
31.05.2017 09:16 20,1 C 25,0 C 83 % 1017,6 hPa 0,0 l/m 10,4 km/h (2 Bft) SW 234 0 min 0,000 mm 1,4 UV-I 243 W/m 17,1 C 18,6 C 14,5 km/h (3 Bft) 93,62 %
31.05.2017 09:18 20,2 C 25,0 C 83 % 1017,6 hPa 0,0 l/m 7,6 km/h (2 Bft) S-SW 199 0 min 0,000 mm 1,6 UV-I 282 W/m 17,2 C 19,7 C 12,9 km/h (3 Bft) 97,56 %
31.05.2017 09:20 20,3 C 25,0 C 83 % 1017,6 hPa 0,0 l/m 9,4 km/h (2 Bft) W-SW 248 2 min 0,000 mm 1,8 UV-I 344 W/m 17,3 C 19,2 C 16,1 km/h (3 Bft) 92,86 %
31.05.2017 09:22 20,3 C 25,0 C 82 % 1017,7 hPa 0,0 l/m 10,1 km/h (2 Bft) W-SW 254 2 min 0,000 mm 1,9 UV-I 368 W/m 17,1 C 18,9 C 14,5 km/h (3 Bft) 97,37 %
31.05.2017 09:24 20,5 C 25,0 C 82 % 1017,6 hPa 0,0 l/m 10,7 km/h (2 Bft) W-SW 245 2 min 0,000 mm 2,2 UV-I 381 W/m 17,3 C 19,0 C 16,1 km/h (3 Bft) 96,00 %
31.05.2017 09:26 20,7 C 25,0 C 82 % 1017,6 hPa 0,0 l/m 10,6 km/h (2 Bft) W-SW 246 2 min 0,000 mm 2,3 UV-I 683 W/m 17,5 C 19,2 C 19,3 km/h (3 Bft) 96,00 %
31.05.2017 09:28 21,0 C 25,0 C 82 % 1017,7 hPa 0,0 l/m 10,0 km/h (2 Bft) SW 229 2 min 0,000 mm 2,2 UV-I 720 W/m 17,8 C 19,7 C 16,1 km/h (3 Bft) 97,44 %
31.05.2017 09:30 21,2 C 25,0 C 79 % 1017,7 hPa 0,0 l/m 12,6 km/h (3 Bft) S-SW 208 2 min 0,000 mm 2,2 UV-I 485 W/m 17,4 C 19,3 C 17,7 km/h (3 Bft) 94,64 %
31.05.2017 09:32 21,2 C 25,0 C 79 % 1017,7 hPa 0,0 l/m 16,5 km/h (3 Bft) W-SW 246 2 min 0,000 mm 2,4 UV-I 673 W/m 17,4 C 18,4 C 24,1 km/h (4 Bft) 97,37 %
31.05.2017 09:34 21,3 C 25,0 C 79 % 1017,7 hPa 0,0 l/m 11,0 km/h (2 Bft) SW 233 2 min 0,000 mm 2,3 UV-I 606 W/m 17,5 C 19,8 C 17,7 km/h (3 Bft) 94,64 %
31.05.2017 09:36 21,4 C 25,0 C 80 % 1017,8 hPa 0,0 l/m 10,0 km/h (2 Bft) SW 233 2 min 0,000 mm 2,4 UV-I 530 W/m 17,8 C 20,2 C 14,5 km/h (3 Bft) 94,74 %
31.05.2017 09:38 21,6 C 25,0 C 78 % 1017,9 hPa 0,0 l/m 10,3 km/h (2 Bft) W-SW 251 2 min 0,000 mm 2,5 UV-I 615 W/m 17,6 C 20,3 C 19,3 km/h (3 Bft) 97,87 %
31.05.2017 09:40 21,6 C 25,0 C 78 % 1017,9 hPa 0,0 l/m 11,9 km/h (2 Bft) W-SW 240 2 min 0,000 mm 2,4 UV-I 605 W/m 17,6 C 19,9 C 22,5 km/h (4 Bft) 94,00 %
31.05.2017 09:42 21,6 C 25,0 C 79 % 1017,8 hPa 0,0 l/m 9,1 km/h (2 Bft) W-SW 247 2 min 0,000 mm 2,3 UV-I 575 W/m 17,8 C 20,7 C 14,5 km/h (3 Bft) 97,87 %
31.05.2017 09:44 21,6 C 25,0 C 78 % 1017,8 hPa 0,0 l/m 13,5 km/h (3 Bft) SW 228 2 min 0,000 mm 1,9 UV-I 418 W/m 17,6 C 19,5 C 20,9 km/h (4 Bft) 95,45 %
31.05.2017 09:46 21,6 C 25,0 C 78 % 1017,8 hPa 0,0 l/m 11,7 km/h (2 Bft) SW 227 0 min 0,000 mm 1,9 UV-I 370 W/m 17,6 C 19,9 C 19,3 km/h (3 Bft) 95,45 %
31.05.2017 09:48 21,4 C 25,0 C 78 % 1017,9 hPa 0,0 l/m 18,5 km/h (3 Bft) SW 225 0 min 0,000 mm 1,8 UV-I 335 W/m 17,4 C 18,3 C 24,1 km/h (4 Bft) 91,53 %
31.05.2017 09:50 21,3 C 25,0 C 78 % 1017,9 hPa 0,0 l/m 14,1 km/h (3 Bft) W-SW 246 2 min 0,000 mm 2,2 UV-I 388 W/m 17,3 C 19,0 C 19,3 km/h (3 Bft) 90,24 %
31.05.2017 09:52 21,3 C 25,0 C 78 % 1017,9 hPa 0,0 l/m 14,8 km/h (3 Bft) S-SW 212 2 min 0,000 mm 2,6 UV-I 639 W/m 17,3 C 18,9 C 20,9 km/h (4 Bft) 94,74 %
31.05.2017 09:54 21,4 C 25,0 C 79 % 1017,8 hPa 0,0 l/m 10,9 km/h (2 Bft) W 281 2 min 0,000 mm 2,6 UV-I 628 W/m 17,6 C 19,9 C 16,1 km/h (3 Bft) 92,00 %
31.05.2017 09:56 21,6 C 25,0 C 78 % 1017,9 hPa 0,0 l/m 14,8 km/h (3 Bft) W-SW 246 2 min 0,000 mm 2,7 UV-I 520 W/m 17,6 C 19,2 C 22,5 km/h (4 Bft) 94,34 %
31.05.2017 09:58 21,6 C 25,0 C 78 % 1017,8 hPa 0,0 l/m 10,0 km/h (2 Bft) W-SW 252 2 min 0,000 mm 3,0 UV-I 690 W/m 17,6 C 20,4 C 16,1 km/h (3 Bft) 92,68 %
31.05.2017 10:00 21,8 C 25,0 C 79 % 1017,9 hPa 0,0 l/m 12,1 km/h (2 Bft) S-SW 208 2 min 0,279 mm 2,7 UV-I 641 W/m 18,0 C 20,1 C 17,7 km/h (3 Bft) 88,10 %
31.05.2017 10:02 21,8 C 25,0 C 77 % 1017,9 hPa 0,0 l/m 14,5 km/h (3 Bft) W-SW 248 0 min 0,000 mm 2,5 UV-I 377 W/m 17,6 C 19,5 C 19,3 km/h (3 Bft) 94,55 %
31.05.2017 10:04 21,7 C 25,0 C 78 % 1017,9 hPa 0,0 l/m 15,9 km/h (3 Bft) SW 229 2 min 0,000 mm 2,6 UV-I 418 W/m 17,7 C 19,1 C 22,5 km/h (4 Bft) 95,24 %
31.05.2017 10:06 21,6 C 25,0 C 78 % 1017,9 hPa 0,0 l/m 10,7 km/h (2 Bft) W 266 2 min 0,000 mm 2,5 UV-I 410 W/m 17,6 C 20,2 C 19,3 km/h (3 Bft) 94,34 %
31.05.2017 10:08 21,6 C 25,0 C 78 % 1017,9 hPa 0,0 l/m 9,6 km/h (2 Bft) W-SW 243 2 min 0,000 mm 2,9 UV-I 408 W/m 17,6 C 20,5 C 20,9 km/h (4 Bft) 94,00 %
31.05.2017 10:10 21,7 C 25,0 C 79 % 1017,9 hPa 0,0 l/m 15,1 km/h (3 Bft) W-SW 238 2 min 0,000 mm 2,6 UV-I 733 W/m 17,9 C 19,3 C 16,1 km/h (3 Bft) 100,00 %
31.05.2017 10:12 21,8 C 25,0 C 79 % 1017,9 hPa 0,0 l/m 9,9 km/h (2 Bft) W 262 2 min 0,000 mm 2,6 UV-I 547 W/m 18,0 C 20,7 C 19,3 km/h (3 Bft) 94,83 %
31.05.2017 10:14 21,8 C 25,0 C 77 % 1017,9 hPa 0,0 l/m 15,0 km/h (3 Bft) W-SW 247 2 min 0,000 mm 2,6 UV-I 503 W/m 17,6 C 19,4 C 17,7 km/h (3 Bft) 92,68 %
31.05.2017 10:16 21,9 C 25,0 C 78 % 1017,9 hPa 0,0 l/m 9,7 km/h (2 Bft) W 264 2 min 0,000 mm 2,4 UV-I 422 W/m 17,9 C 20,8 C 16,1 km/h (3 Bft) 97,73 %
31.05.2017 10:18 21,8 C 25,0 C 78 % 1017,9 hPa 0,0 l/m 12,6 km/h (3 Bft) SW 234 2 min 0,000 mm 2,4 UV-I 404 W/m 17,8 C 20,0 C 17,7 km/h (3 Bft) 94,00 %
31.05.2017 10:20 21,8 C 25,0 C 77 % 1017,9 hPa 0,0 l/m 14,6 km/h (3 Bft) SW 221 2 min 0,000 mm 3,2 UV-I 429 W/m 17,6 C 19,5 C 19,3 km/h (3 Bft) 97,73 %
31.05.2017 10:22 21,9 C 25,0 C 77 % 1017,9 hPa 0,0 l/m 10,4 km/h (2 Bft) W-SW 257 2 min 0,000 mm 3,4 UV-I 429 W/m 17,7 C 20,6 C 17,7 km/h (3 Bft) 98,21 %
31.05.2017 10:24 22,1 C 25,0 C 77 % 1017,9 hPa 0,0 l/m 13,5 km/h (3 Bft) W-SW 238 2 min 0,000 mm 3,7 UV-I 758 W/m 17,9 C 20,1 C 20,9 km/h (4 Bft) 97,56 %
31.05.2017 10:26 22,2 C 25,0 C 76 % 1017,9 hPa 0,0 l/m 15,1 km/h (3 Bft) S-SW 207 2 min 0,000 mm 3,7 UV-I 849 W/m 17,8 C 19,9 C 20,9 km/h (4 Bft) 97,56 %
31.05.2017 10:28 22,4 C 25,0 C 75 % 1018,0 hPa 0,0 l/m 13,4 km/h (3 Bft) W-SW 241 2 min 0,000 mm 3,9 UV-I 842 W/m 17,7 C 20,5 C 20,9 km/h (4 Bft) 96,23 %
31.05.2017 10:30 22,5 C 25,0 C 75 % 1017,8 hPa 0,0 l/m 10,6 km/h (2 Bft) W-SW 238 2 min 0,000 mm 3,9 UV-I 834 W/m 17,8 C 21,2 C 20,9 km/h (4 Bft) 97,87 %
31.05.2017 10:32 22,5 C 25,0 C 75 % 1017,9 hPa 0,0 l/m 15,4 km/h (3 Bft) W 275 2 min 0,000 mm 3,9 UV-I 820 W/m 17,8 C 20,2 C 20,9 km/h (4 Bft) 97,87 %
31.05.2017 10:34 22,6 C 25,0 C 75 % 1017,9 hPa 0,0 l/m 14,3 km/h (3 Bft) W-SW 258 2 min 0,000 mm 4,0 UV-I 813 W/m 17,9 C 20,5 C 22,5 km/h (4 Bft) 100,00 %
31.05.2017 10:36 22,6 C 25,0 C 75 % 1017,9 hPa 0,0 l/m 10,2 km/h (2 Bft) SW 227 2 min 0,000 mm 3,9 UV-I 776 W/m 17,9 C 21,5 C 16,1 km/h (3 Bft) 97,50 %
31.05.2017 10:38 22,7 C 25,0 C 76 % 1017,9 hPa 0,0 l/m 11,1 km/h (2 Bft) W-SW 257 2 min 0,000 mm 3,8 UV-I 760 W/m 18,2 C 21,3 C 17,7 km/h (3 Bft) 97,87 %
31.05.2017 10:40 22,8 C 25,0 C 75 % 1017,8 hPa 0,0 l/m 10,2 km/h (2 Bft) W-SW 255 2 min 0,000 mm 3,9 UV-I 773 W/m 18,1 C 21,7 C 17,7 km/h (3 Bft) 100,00 %
31.05.2017 10:42 22,8 C 25,0 C 73 % 1017,9 hPa 0,0 l/m 12,4 km/h (3 Bft) W-SW 246 2 min 0,000 mm 3,9 UV-I 773 W/m 17,7 C 21,2 C 20,9 km/h (4 Bft) 100,00 %
31.05.2017 10:44 22,7 C 25,0 C 73 % 1017,8 hPa 0,0 l/m 14,0 km/h (3 Bft) S-SW 209 2 min 0,000 mm 3,9 UV-I 752 W/m 17,6 C 20,7 C 19,3 km/h (3 Bft) 98,08 %
31.05.2017 10:46 22,8 C 25,0 C 74 % 1017,8 hPa 0,0 l/m 11,6 km/h (2 Bft) W-SW 255 2 min 0,000 mm 3,9 UV-I 735 W/m 17,9 C 21,3 C 19,3 km/h (3 Bft) 96,00 %
31.05.2017 10:48 22,8 C 25,0 C 72 % 1017,8 hPa 0,0 l/m 12,2 km/h (2 Bft) W-SW 248 2 min 0,000 mm 4,1 UV-I 789 W/m 17,5 C 21,2 C 17,7 km/h (3 Bft) 100,00 %
31.05.2017 10:50 22,8 C 25,0 C 72 % 1017,8 hPa 0,0 l/m 12,6 km/h (3 Bft) W 271 2 min 0,000 mm 4,1 UV-I 781 W/m 17,5 C 21,1 C 17,7 km/h (3 Bft) 98,11 %
31.05.2017 10:52 22,9 C 25,0 C 72 % 1017,8 hPa 0,0 l/m 11,7 km/h (2 Bft) W 261 2 min 0,000 mm 4,2 UV-I 805 W/m 17,6 C 21,4 C 16,1 km/h (3 Bft) 98,11 %
31.05.2017 10:54 22,9 C 25,0 C 72 % 1017,9 hPa 0,0 l/m 13,2 km/h (3 Bft) W-SW 257 2 min 0,000 mm 4,2 UV-I 847 W/m 17,6 C 21,1 C 17,7 km/h (3 Bft) 100,00 %
31.05.2017 10:56 23,1 C 25,0 C 73 % 1017,8 hPa 0,0 l/m 8,2 km/h (2 Bft) W 277 2 min 0,000 mm 4,4 UV-I 883 W/m 18,0 C 22,5 C 16,1 km/h (3 Bft) 97,73 %
31.05.2017 10:58 23,2 C 25,0 C 74 % 1017,8 hPa 0,0 l/m 8,0 km/h (2 Bft) W 278 2 min 0,000 mm 4,4 UV-I 906 W/m 18,3 C 22,7 C 14,5 km/h (3 Bft) 100,00 %
31.05.2017 11:00 23,3 C 25,0 C 72 % 1017,9 hPa 0,0 l/m 12,0 km/h (2 Bft) S-SW 210 2 min 0,000 mm 4,3 UV-I 918 W/m 18,0 C 21,8 C 22,5 km/h (4 Bft) 100,00 %
31.05.2017 11:02 23,4 C 25,0 C 73 % 1017,8 hPa 0,0 l/m 11,4 km/h (2 Bft) S 182 2 min 0,458 mm 4,5 UV-I 947 W/m 18,3 C 22,1 C 19,3 km/h (3 Bft) 98,11 %
31.05.2017 11:04 23,6 C 25,0 C 72 % 1017,9 hPa 0,0 l/m 13,7 km/h (3 Bft) W-SW 243 2 min 0,000 mm 4,7 UV-I 924 W/m 18,2 C 21,8 C 19,3 km/h (3 Bft) 100,00 %
31.05.2017 11:06 23,4 C 25,6 C 71 % 1017,8 hPa 0,0 l/m 10,3 km/h (2 Bft) W-SW 244 2 min 0,000 mm 4,7 UV-I 944 W/m 17,8 C 22,3 C 17,7 km/h (3 Bft) 98,11 %
31.05.2017 11:08 23,4 C 25,6 C 72 % 1017,8 hPa 0,0 l/m 6,2 km/h (2 Bft) W-SW 242 2 min 0,000 mm 4,4 UV-I 915 W/m 18,1 C 23,4 C 14,5 km/h (3 Bft) 100,00 %
31.05.2017 11:10 23,7 C 25,0 C 73 % 1017,8 hPa 0,0 l/m 8,5 km/h (2 Bft) SW 226 2 min 0,000 mm 3,0 UV-I 759 W/m 18,6 C 23,1 C 16,1 km/h (3 Bft) 97,37 %
31.05.2017 11:12 23,4 C 25,0 C 70 % 1017,8 hPa 0,0 l/m 10,5 km/h (2 Bft) SW 234 0 min 0,000 mm 2,8 UV-I 323 W/m 17,6 C 22,3 C 16,1 km/h (3 Bft) 100,00 %
31.05.2017 11:14 23,3 C 25,0 C 71 % 1017,8 hPa 0,0 l/m 7,3 km/h (2 Bft) SW 219 0 min 0,000 mm 2,5 UV-I 292 W/m 17,7 C 23,0 C 11,3 km/h (2 Bft) 96,43 %
31.05.2017 11:16 23,1 C 25,0 C 71 % 1017,9 hPa 0,0 l/m 10,3 km/h (2 Bft) S-SW 195 0 min 0,000 mm 2,6 UV-I 279 W/m 17,5 C 22,0 C 17,7 km/h (3 Bft) 100,00 %
31.05.2017 11:18 22,9 C 25,6 C 73 % 1017,8 hPa 0,0 l/m 8,0 km/h (2 Bft) SW 227 0 min 0,000 mm 3,0 UV-I 330 W/m 17,8 C 22,4 C 14,5 km/h (3 Bft) 100,00 %
31.05.2017 11:20 22,9 C 25,6 C 73 % 1017,8 hPa 0,0 l/m 9,2 km/h (2 Bft) W-SW 243 0 min 0,000 mm 4,1 UV-I 451 W/m 17,8 C 22,1 C 16,1 km/h (3 Bft) 98,44 %
31.05.2017 11:22 23,1 C 25,6 C 72 % 1017,9 hPa 0,0 l/m 9,2 km/h (2 Bft) W 267 2 min 0,000 mm 5,2 UV-I 855 W/m 17,8 C 22,3 C 17,7 km/h (3 Bft) 92,31 %
31.05.2017 11:24 23,4 C 25,6 C 72 % 1017,8 hPa 0,0 l/m 7,6 km/h (2 Bft) S-SW 192 2 min 0,000 mm 4,4 UV-I 997 W/m 18,1 C 23,0 C 12,9 km/h (3 Bft) 96,36 %
31.05.2017 11:26 23,6 C 25,6 C 72 % 1017,8 hPa 0,0 l/m 6,2 km/h (2 Bft) S 184 0 min 0,000 mm 3,6 UV-I 408 W/m 18,2 C 23,6 C 9,7 km/h (2 Bft) 95,24 %
31.05.2017 11:28 23,5 C 25,6 C 73 % 1017,8 hPa 0,0 l/m 5,6 km/h (1 Bft) W-SW 239 2 min 0,000 mm 4,7 UV-I 513 W/m 18,4 C 23,5 C 12,9 km/h (3 Bft) 90,24 %
31.05.2017 11:30 23,6 C 25,6 C 71 % 1017,8 hPa 0,0 l/m 9,1 km/h (2 Bft) SW 225 2 min 0,000 mm 5,2 UV-I 927 W/m 18,0 C 22,8 C 12,9 km/h (3 Bft) 98,21 %
31.05.2017 11:32 23,6 C 25,6 C 70 % 1017,8 hPa 0,0 l/m 8,2 km/h (2 Bft) W 259 2 min 0,000 mm 5,4 UV-I 978 W/m 17,8 C 23,1 C 12,9 km/h (3 Bft) 97,37 %
31.05.2017 11:34 23,8 C 25,6 C 70 % 1017,7 hPa 0,0 l/m 9,2 km/h (2 Bft) W-SW 240 2 min 0,000 mm 5,5 UV-I 1091 W/m 18,0 C 23,0 C 14,5 km/h (3 Bft) 98,00 %
31.05.2017 11:36 23,8 C 25,6 C 69 % 1017,8 hPa 0,0 l/m 7,8 km/h (2 Bft) W-NW 290 2 min 0,000 mm 5,2 UV-I 1022 W/m 17,8 C 23,4 C 14,5 km/h (3 Bft) 100,00 %
31.05.2017 11:38 23,9 C 25,6 C 71 % 1017,8 hPa 0,0 l/m 6,1 km/h (2 Bft) W-NW 284 2 min 0,000 mm 5,0 UV-I 1078 W/m 18,3 C 23,9 C 12,9 km/h (3 Bft) 94,74 %
31.05.2017 11:40 23,9 C 25,6 C 69 % 1017,8 hPa 0,0 l/m 11,2 km/h (2 Bft) W-SW 251 2 min 0,000 mm 2,8 UV-I 1060 W/m 17,9 C 22,7 C 17,7 km/h (3 Bft) 94,00 %
31.05.2017 11:42 23,7 C 25,6 C 69 % 1017,8 hPa 0,0 l/m 5,2 km/h (1 Bft) W 275 0 min 0,000 mm 2,0 UV-I 388 W/m 17,7 C 23,7 C 11,3 km/h (2 Bft) 90,57 %
31.05.2017 11:44 23,4 C 25,6 C 71 % 1017,8 hPa 0,0 l/m 8,9 km/h (2 Bft) SW 221 0 min 0,000 mm 1,6 UV-I 230 W/m 17,8 C 22,7 C 14,5 km/h (3 Bft) 97,37 %
31.05.2017 11:46 23,2 C 25,6 C 71 % 1017,7 hPa 0,0 l/m 9,3 km/h (2 Bft) W 270 0 min 0,000 mm 1,5 UV-I 212 W/m 17,6 C 22,4 C 14,5 km/h (3 Bft) 96,00 %
31.05.2017 11:48 23,1 C 25,6 C 73 % 1017,8 hPa 0,0 l/m 5,3 km/h (1 Bft) SW 221 0 min 0,000 mm 1,4 UV-I 188 W/m 18,0 C 23,1 C 11,3 km/h (2 Bft) 93,62 %
31.05.2017 11:50 22,9 C 25,6 C 72 % 1017,7 hPa 0,0 l/m 5,7 km/h (1 Bft) W-NW 284 0 min 0,000 mm 1,5 UV-I 167 W/m 17,6 C 22,9 C 9,7 km/h (2 Bft) 89,36 %
31.05.2017 11:52 22,8 C 25,6 C 72 % 1017,8 hPa 0,0 l/m 9,5 km/h (2 Bft) W-SW 253 0 min 0,000 mm 1,5 UV-I 158 W/m 17,5 C 21,9 C 16,1 km/h (3 Bft) 93,62 %
31.05.2017 11:54 22,7 C 25,6 C 72 % 1017,8 hPa 0,0 l/m 4,1 km/h (1 Bft) W-NW 299 0 min 0,000 mm 1,8 UV-I 157 W/m 17,4 C 22,7 C 11,3 km/h (2 Bft) 98,11 %
31.05.2017 11:56 22,6 C 25,6 C 74 % 1017,7 hPa 0,0 l/m 3,1 km/h (1 Bft) W-NW 302 0 min 0,000 mm 2,1 UV-I 191 W/m 17,7 C 22,6 C 8,0 km/h (2 Bft) 94,74 %
31.05.2017 11:58 22,6 C 25,6 C 74 % 1017,7 hPa 0,0 l/m 4,9 km/h (1 Bft) W-SW 253 0 min 0,000 mm 2,2 UV-I 216 W/m 17,7 C 22,6 C 8,0 km/h (2 Bft) 93,33 %
31.05.2017 12:00 22,6 C 25,6 C 73 % 1017,7 hPa 0,0 l/m 7,0 km/h (2 Bft) W 273 0 min 0,381 mm 2,5 UV-I 246 W/m 17,5 C 22,4 C 14,5 km/h (3 Bft) 98,00 %
31.05.2017 12:02 22,6 C 25,6 C 74 % 1017,6 hPa 0,0 l/m 5,3 km/h (1 Bft) SW 222 0 min 0,000 mm 3,1 UV-I 284 W/m 17,7 C 22,6 C 12,9 km/h (3 Bft) 95,74 %
31.05.2017 12:04 22,8 C 25,6 C 73 % 1017,7 hPa 0,0 l/m 7,6 km/h (2 Bft) SW 235 2 min 0,000 mm 3,7 UV-I 692 W/m 17,7 C 22,4 C 11,3 km/h (2 Bft) 92,00 %
31.05.2017 12:06 22,9 C 25,6 C 72 % 1017,6 hPa 0,0 l/m 10,0 km/h (2 Bft) SW 236 0 min 0,000 mm 3,0 UV-I 332 W/m 17,6 C 21,8 C 12,9 km/h (3 Bft) 91,30 %
31.05.2017 12:08 22,9 C 25,6 C 73 % 1017,7 hPa 0,0 l/m 6,9 km/h (2 Bft) S-SW 209 0 min 0,000 mm 2,8 UV-I 240 W/m 17,8 C 22,7 C 9,7 km/h (2 Bft) 97,18 %
31.05.2017 12:10 23,1 C 25,6 C 72 % 1017,7 hPa 0,0 l/m 8,2 km/h (2 Bft) SW 231 0 min 0,000 mm 3,9 UV-I 281 W/m 17,8 C 22,5 C 12,9 km/h (3 Bft) 98,11 %
31.05.2017 12:12 23,2 C 25,6 C 72 % 1017,6 hPa 0,0 l/m 6,5 km/h (2 Bft) SW 223 0 min 0,000 mm 3,9 UV-I 281 W/m 17,9 C 23,2 C 11,3 km/h (2 Bft) 100,00 %
31.05.2017 12:14 23,5 C 25,6 C 72 % 1017,7 hPa 0,0 l/m 10,1 km/h (2 Bft) SW 225 0 min 0,000 mm 4,1 UV-I 374 W/m 18,2 C 22,5 C 16,1 km/h (3 Bft) 100,00 %
31.05.2017 12:16 23,7 C 25,6 C 70 % 1017,6 hPa 0,0 l/m 7,6 km/h (2 Bft) W-SW 243 2 min 0,000 mm 2,8 UV-I 643 W/m 17,9 C 23,3 C 11,3 km/h (2 Bft) 97,37 %
31.05.2017 12:18 23,6 C 25,6 C 69 % 1017,7 hPa 0,0 l/m 10,3 km/h (2 Bft) S-SW 202 0 min 0,000 mm 1,9 UV-I 274 W/m 17,6 C 22,5 C 16,1 km/h (3 Bft) 96,00 %
31.05.2017 12:20 23,3 C 25,6 C 69 % 1017,7 hPa 0,0 l/m 12,5 km/h (3 Bft) SW 219 0 min 0,000 mm 1,3 UV-I 158 W/m 17,3 C 21,7 C 19,3 km/h (3 Bft) 98,00 %
31.05.2017 12:22 23,2 C 25,6 C 69 % 1017,7 hPa 0,0 l/m 13,3 km/h (3 Bft) W-SW 247 0 min 0,000 mm 1,1 UV-I 132 W/m 17,2 C 21,4 C 19,3 km/h (3 Bft) 94,87 %
31.05.2017 12:24 23,0 C 25,6 C 70 % 1017,7 hPa 0,0 l/m 10,1 km/h (2 Bft) SW 229 0 min 0,000 mm 1,2 UV-I 150 W/m 17,2 C 21,9 C 16,1 km/h (3 Bft) 96,00 %
31.05.2017 12:26 22,8 C 25,6 C 72 % 1017,7 hPa 0,0 l/m 7,4 km/h (2 Bft) S-SW 211 0 min 0,000 mm 2,1 UV-I 188 W/m 17,5 C 22,5 C 11,3 km/h (2 Bft) 94,34 %
31.05.2017 12:28 22,7 C 25,6 C 73 % 1017,7 hPa 0,0 l/m 5,6 km/h (1 Bft) SW 215 0 min 0,000 mm 2,5 UV-I 232 W/m 17,6 C 22,7 C 11,3 km/h (2 Bft) 100,00 %
31.05.2017 12:30 22,7 C 25,6 C 75 % 1017,7 hPa 0,0 l/m 8,9 km/h (2 Bft) SW 214 0 min 0,000 mm 2,7 UV-I 317 W/m 18,0 C 21,9 C 12,9 km/h (3 Bft) 98,11 %
31.05.2017 12:32 22,8 C 25,6 C 75 % 1017,7 hPa 0,0 l/m 5,8 km/h (2 Bft) S-SW 207 0 min 0,000 mm 3,8 UV-I 339 W/m 18,1 C 22,8 C 9,7 km/h (2 Bft) 94,87 %
31.05.2017 12:34 22,9 C 25,6 C 75 % 1017,7 hPa 0,0 l/m 5,2 km/h (1 Bft) S-SW 192 0 min 0,000 mm 3,9 UV-I 430 W/m 18,2 C 22,9 C 9,7 km/h (2 Bft) 97,73 %
31.05.2017 12:36 22,9 C 25,6 C 73 % 1017,7 hPa 0,0 l/m 7,1 km/h (2 Bft) S-SW 209 0 min 0,000 mm 3,4 UV-I 425 W/m 17,8 C 22,7 C 12,9 km/h (3 Bft) 98,11 %
31.05.2017 12:38 22,9 C 25,6 C 73 % 1017,6 hPa 0,0 l/m 9,3 km/h (2 Bft) SW 223 0 min 0,000 mm 4,1 UV-I 385 W/m 17,8 C 22,0 C 16,1 km/h (3 Bft) 95,24 %
31.05.2017 12:40 23,1 C 25,6 C 75 % 1017,6 hPa 0,0 l/m 8,0 km/h (2 Bft) SW 236 2 min 0,000 mm 4,9 UV-I 621 W/m 18,4 C 22,6 C 12,9 km/h (3 Bft) 98,08 %
31.05.2017 12:42 23,3 C 25,6 C 73 % 1017,7 hPa 0,0 l/m 6,6 km/h (2 Bft) S-SW 202 2 min 0,000 mm 5,4 UV-I 936 W/m 18,2 C 23,2 C 11,3 km/h (2 Bft) 96,00 %
31.05.2017 12:44 23,6 C 25,6 C 74 % 1017,6 hPa 0,0 l/m 7,9 km/h (2 Bft) S-SO 160 2 min 0,000 mm 5,2 UV-I 939 W/m 18,7 C 23,2 C 12,9 km/h (3 Bft) 100,00 %
31.05.2017 12:46 23,7 C 25,6 C 73 % 1017,7 hPa 0,0 l/m 6,9 km/h (2 Bft) S-SW 203 2 min 0,000 mm 4,6 UV-I 916 W/m 18,6 C 23,6 C 11,3 km/h (2 Bft) 92,00 %
31.05.2017 12:48 23,7 C 25,6 C 72 % 1017,6 hPa 0,0 l/m 7,4 km/h (2 Bft) S-SW 206 0 min 0,000 mm 4,0 UV-I 459 W/m 18,3 C 23,4 C 14,5 km/h (3 Bft) 98,00 %
31.05.2017 12:50 23,7 C 25,6 C 71 % 1017,6 hPa 0,0 l/m 7,4 km/h (2 Bft) SW 228 2 min 0,000 mm 5,0 UV-I 582 W/m 18,1 C 23,4 C 11,3 km/h (2 Bft) 94,34 %
31.05.2017 12:52 23,8 C 25,6 C 72 % 1017,6 hPa 0,0 l/m 7,0 km/h (2 Bft) SW 232 2 min 0,000 mm 4,7 UV-I 963 W/m 18,4 C 23,6 C 12,9 km/h (3 Bft) 94,74 %
31.05.2017 12:54 23,8 C 25,6 C 71 % 1017,6 hPa 0,0 l/m 4,4 km/h (1 Bft) S 184 2 min 0,000 mm 4,8 UV-I 963 W/m 18,2 C 23,8 C 8,0 km/h (2 Bft) 98,00 %
31.05.2017 12:56 24,0 C 25,6 C 73 % 1017,6 hPa 0,0 l/m 7,8 km/h (2 Bft) SW 230 2 min 0,000 mm 4,7 UV-I 936 W/m 18,9 C 23,6 C 16,1 km/h (3 Bft) 95,12 %
31.05.2017 12:58 24,1 C 25,6 C 71 % 1017,6 hPa 0,0 l/m 8,4 km/h (2 Bft) SO 146 2 min 0,000 mm 4,9 UV-I 913 W/m 18,5 C 23,6 C 14,5 km/h (3 Bft) 100,00 %
31.05.2017 13:00 24,4 C 25,6 C 71 % 1017,6 hPa 0,0 l/m 5,6 km/h (1 Bft) SW 215 2 min 0,381 mm 5,5 UV-I 994 W/m 18,8 C 24,4 C 9,7 km/h (2 Bft) 95,74 %
31.05.2017 13:02 24,7 C 25,6 C 69 % 1017,6 hPa 0,0 l/m 7,9 km/h (2 Bft) W-SW 253 2 min 0,000 mm 5,5 UV-I 980 W/m 18,6 C 24,3 C 12,9 km/h (3 Bft) 93,18 %
31.05.2017 13:04 24,8 C 25,6 C 68 % 1017,7 hPa 0,0 l/m 10,0 km/h (2 Bft) SW 227 2 min 0,000 mm 4,3 UV-I 930 W/m 18,5 C 23,9 C 14,5 km/h (3 Bft) 96,00 %
31.05.2017 13:06 24,6 C 25,6 C 68 % 1017,6 hPa 0,0 l/m 9,0 km/h (2 Bft) S-SW 203 0 min 0,000 mm 2,7 UV-I 323 W/m 18,3 C 23,9 C 16,1 km/h (3 Bft) 100,00 %
31.05.2017 13:08 24,2 C 25,6 C 69 % 1017,6 hPa 0,0 l/m 7,8 km/h (2 Bft) SW 234 0 min 0,000 mm 2,5 UV-I 319 W/m 18,1 C 23,8 C 12,9 km/h (3 Bft) 95,12 %
31.05.2017 13:10 24,0 C 25,6 C 69 % 1017,6 hPa 0,0 l/m 12,2 km/h (2 Bft) W-SW 244 0 min 0,000 mm 2,2 UV-I 296 W/m 18,0 C 22,6 C 17,7 km/h (3 Bft) 94,64 %
31.05.2017 13:12 23,9 C 25,6 C 70 % 1017,6 hPa 0,0 l/m 9,3 km/h (2 Bft) SW 229 0 min 0,000 mm 2,3 UV-I 309 W/m 18,1 C 23,1 C 14,5 km/h (3 Bft) 94,00 %
31.05.2017 13:14 23,8 C 25,6 C 70 % 1017,5 hPa 0,0 l/m 8,4 km/h (2 Bft) W 275 0 min 0,000 mm 2,7 UV-I 349 W/m 18,0 C 23,2 C 12,9 km/h (3 Bft) 96,00 %
31.05.2017 13:16 23,8 C 25,6 C 68 % 1017,5 hPa 0,0 l/m 6,2 km/h (2 Bft) W-SW 238 2 min 0,000 mm 4,7 UV-I 665 W/m 17,5 C 23,8 C 11,3 km/h (2 Bft) 97,87 %
31.05.2017 13:18 24,0 C 25,6 C 70 % 1017,5 hPa 0,0 l/m 7,9 km/h (2 Bft) W 263 2 min 0,000 mm 5,4 UV-I 925 W/m 18,2 C 23,6 C 16,1 km/h (3 Bft) 94,44 %
31.05.2017 13:20 24,3 C 25,6 C 68 % 1017,5 hPa 0,0 l/m 12,7 km/h (3 Bft) S-SW 200 2 min 0,000 mm 5,7 UV-I 916 W/m 18,0 C 22,9 C 19,3 km/h (3 Bft) 91,38 %
31.05.2017 13:22 24,6 C 25,6 C 67 % 1017,5 hPa 0,0 l/m 7,2 km/h (2 Bft) S-SW 198 2 min 0,000 mm 5,7 UV-I 900 W/m 18,1 C 24,4 C 12,9 km/h (3 Bft) 92,86 %
31.05.2017 13:24 24,8 C 25,6 C 65 % 1017,5 hPa 0,0 l/m 12,1 km/h (2 Bft) W 261 2 min 0,000 mm 5,5 UV-I 874 W/m 17,8 C 23,5 C 20,9 km/h (4 Bft) 93,18 %
31.05.2017 13:26 24,8 C 25,6 C 64 % 1017,4 hPa 0,0 l/m 11,8 km/h (2 Bft) S-SW 205 2 min 0,000 mm 4,8 UV-I 808 W/m 17,5 C 23,6 C 17,7 km/h (3 Bft) 92,45 %
31.05.2017 13:28 24,8 C 25,6 C 65 % 1017,5 hPa 0,0 l/m 6,1 km/h (2 Bft) S-SW 207 2 min 0,000 mm 5,1 UV-I 813 W/m 17,8 C 24,8 C 9,7 km/h (2 Bft) 97,56 %
31.05.2017 13:30 24,8 C 25,6 C 64 % 1017,4 hPa 0,0 l/m 8,0 km/h (2 Bft) W-SW 244 2 min 0,000 mm 4,9 UV-I 845 W/m 17,5 C 24,4 C 19,3 km/h (3 Bft) 94,00 %
31.05.2017 13:32 24,8 C 25,6 C 65 % 1017,4 hPa 0,0 l/m 6,4 km/h (2 Bft) W-SW 248 2 min 0,000 mm 4,1 UV-I 865 W/m 17,8 C 24,8 C 14,5 km/h (3 Bft) 92,68 %
31.05.2017 13:34 24,8 C 25,6 C 65 % 1017,4 hPa 0,0 l/m 12,2 km/h (2 Bft) SW 236 0 min 0,000 mm 3,4 UV-I 392 W/m 17,8 C 23,5 C 19,3 km/h (3 Bft) 89,29 %
31.05.2017 13:36 24,7 C 26,1 C 64 % 1017,4 hPa 0,0 l/m 14,4 km/h (3 Bft) W-SW 240 0 min 0,000 mm 3,1 UV-I 375 W/m 17,4 C 23,0 C 24,1 km/h (4 Bft) 92,68 %
31.05.2017 13:38 24,5 C 26,1 C 66 % 1017,4 hPa 0,0 l/m 6,7 km/h (2 Bft) SW 236 0 min 0,000 mm 3,6 UV-I 440 W/m 17,7 C 24,4 C 9,7 km/h (2 Bft) 94,00 %
31.05.2017 13:40 24,5 C 26,1 C 65 % 1017,4 hPa 0,0 l/m 8,5 km/h (2 Bft) W-SW 249 2 min 0,000 mm 4,5 UV-I 543 W/m 17,5 C 24,0 C 14,5 km/h (3 Bft) 92,11 %
31.05.2017 13:42 24,5 C 26,1 C 66 % 1017,3 hPa 0,0 l/m 10,3 km/h (2 Bft) S-SW 212 2 min 0,000 mm 3,8 UV-I 619 W/m 17,7 C 23,5 C 14,5 km/h (3 Bft) 96,00 %
31.05.2017 13:44 24,4 C 26,1 C 67 % 1017,3 hPa 0,0 l/m 7,3 km/h (2 Bft) W 278 0 min 0,000 mm 3,0 UV-I 336 W/m 17,9 C 24,2 C 12,9 km/h (3 Bft) 94,34 %
31.05.2017 13:46 24,3 C 26,1 C 65 % 1017,3 hPa 0,0 l/m 7,2 km/h (2 Bft) SW 215 0 min 0,000 mm 2,8 UV-I 261 W/m 17,3 C 24,1 C 14,5 km/h (3 Bft) 94,00 %
31.05.2017 13:48 24,3 C 26,1 C 65 % 1017,3 hPa 0,0 l/m 8,4 km/h (2 Bft) W-SW 255 0 min 0,000 mm 2,9 UV-I 270 W/m 17,3 C 23,8 C 16,1 km/h (3 Bft) 94,29 %
31.05.2017 13:50 24,3 C 26,1 C 66 % 1017,2 hPa 0,0 l/m 9,0 km/h (2 Bft) W 271 2 min 0,000 mm 3,8 UV-I 503 W/m 17,5 C 23,6 C 14,5 km/h (3 Bft) 91,53 %
31.05.2017 13:52 24,6 C 26,1 C 67 % 1017,2 hPa 0,0 l/m 7,2 km/h (2 Bft) W-SW 244 2 min 0,000 mm 5,5 UV-I 948 W/m 18,1 C 24,4 C 11,3 km/h (2 Bft) 89,47 %
31.05.2017 13:54 24,9 C 26,1 C 66 % 1017,2 hPa 0,0 l/m 8,6 km/h (2 Bft) W-SW 251 2 min 0,000 mm 5,7 UV-I 934 W/m 18,1 C 24,4 C 12,9 km/h (3 Bft) 92,45 %
31.05.2017 13:56 25,2 C 26,1 C 62 % 1017,2 hPa 0,0 l/m 8,2 km/h (2 Bft) W 280 2 min 0,000 mm 5,7 UV-I 911 W/m 17,4 C 24,8 C 14,5 km/h (3 Bft) 92,68 %
31.05.2017 13:58 25,1 C 26,1 C 62 % 1017,1 hPa 0,0 l/m 3,7 km/h (1 Bft) SW 225 2 min 0,000 mm 5,7 UV-I 903 W/m 17,3 C 25,1 C 9,7 km/h (2 Bft) 94,44 %
31.05.2017 14:00 25,3 C 26,1 C 62 % 1017,1 hPa 0,0 l/m 7,0 km/h (2 Bft) W-SW 243 2 min 0,000 mm 5,7 UV-I 898 W/m 17,5 C 25,2 C 14,5 km/h (3 Bft) 95,31 %
31.05.2017 14:02 25,4 C 26,1 C 62 % 1017,1 hPa 0,0 l/m 10,4 km/h (2 Bft) SW 220 2 min 0,431 mm 5,5 UV-I 857 W/m 17,6 C 24,5 C 14,5 km/h (3 Bft) 95,83 %
31.05.2017 14:04 25,4 C 26,1 C 62 % 1017,1 hPa 0,0 l/m 7,2 km/h (2 Bft) W-NW 302 2 min 0,000 mm 5,4 UV-I 868 W/m 17,6 C 25,2 C 14,5 km/h (3 Bft) 94,74 %
31.05.2017 14:06 25,4 C 26,1 C 63 % 1017,0 hPa 0,0 l/m 4,6 km/h (1 Bft) NW 315 2 min 0,000 mm 5,5 UV-I 877 W/m 17,8 C 25,4 C 8,0 km/h (2 Bft) 92,00 %
31.05.2017 14:08 25,4 C 26,1 C 61 % 1017,0 hPa 0,0 l/m 1,9 km/h (1 Bft) NW 322 2 min 0,000 mm 5,4 UV-I 898 W/m 17,3 C 25,4 C 4,8 km/h (1 Bft) 95,12 %
31.05.2017 14:10 25,3 C 26,1 C 60 % 1017,0 hPa 0,0 l/m 6,1 km/h (2 Bft) W-NW 283 2 min 0,000 mm 4,5 UV-I 838 W/m 17,0 C 25,3 C 11,3 km/h (2 Bft) 94,34 %
31.05.2017 14:12 25,3 C 26,1 C 60 % 1017,0 hPa 0,0 l/m 6,9 km/h (2 Bft) NW 310 2 min 0,000 mm 5,1 UV-I 865 W/m 17,0 C 25,2 C 12,9 km/h (3 Bft) 96,00 %
31.05.2017 14:14 25,3 C 26,1 C 64 % 1016,9 hPa 0,0 l/m 4,2 km/h (1 Bft) NW 315 2 min 0,000 mm 5,4 UV-I 945 W/m 18,0 C 25,3 C 8,0 km/h (2 Bft) 97,56 %
31.05.2017 14:16 25,5 C 26,1 C 63 % 1016,9 hPa 0,0 l/m 4,3 km/h (1 Bft) W-NW 293 2 min 0,000 mm 5,4 UV-I 928 W/m 17,9 C 25,5 C 8,0 km/h (2 Bft) 90,57 %
31.05.2017 14:18 25,4 C 26,1 C 60 % 1016,9 hPa 0,0 l/m 6,0 km/h (2 Bft) W 278 2 min 0,000 mm 5,1 UV-I 789 W/m 17,1 C 25,4 C 12,9 km/h (3 Bft) 91,43 %
31.05.2017 14:20 25,3 C 26,1 C 61 % 1016,9 hPa 0,0 l/m 9,4 km/h (2 Bft) SW 225 0 min 0,000 mm 4,8 UV-I 436 W/m 17,2 C 24,6 C 16,1 km/h (3 Bft) 94,64 %
31.05.2017 14:22 25,4 C 26,1 C 62 % 1016,8 hPa 0,0 l/m 9,4 km/h (2 Bft) W 263 2 min 0,000 mm 4,7 UV-I 893 W/m 17,6 C 24,7 C 14,5 km/h (3 Bft) 100,00 %
31.05.2017 14:24 25,6 C 26,1 C 61 % 1016,8 hPa 0,0 l/m 10,8 km/h (2 Bft) W-NW 294 2 min 0,000 mm 5,2 UV-I 901 W/m 17,5 C 24,7 C 16,1 km/h (3 Bft) 97,67 %
31.05.2017 14:26 25,6 C 26,1 C 61 % 1016,8 hPa 0,0 l/m 8,5 km/h (2 Bft) SW 221 2 min 0,000 mm 4,8 UV-I 849 W/m 17,5 C 25,1 C 14,5 km/h (3 Bft) 93,62 %
31.05.2017 14:28 25,8 C 26,1 C 60 % 1016,7 hPa 0,0 l/m 10,2 km/h (2 Bft) S-SW 209 2 min 0,000 mm 5,2 UV-I 865 W/m 17,4 C 25,0 C 16,1 km/h (3 Bft) 97,87 %
31.05.2017 14:30 25,8 C 26,1 C 59 % 1016,8 hPa 0,0 l/m 9,0 km/h (2 Bft) W 273 2 min 0,000 mm 5,3 UV-I 867 W/m 17,2 C 25,2 C 14,5 km/h (3 Bft) 95,12 %
31.05.2017 14:32 25,8 C 26,1 C 58 % 1016,7 hPa 0,0 l/m 8,4 km/h (2 Bft) SW 221 2 min 0,000 mm 5,2 UV-I 859 W/m 16,9 C 25,4 C 12,9 km/h (3 Bft) 97,56 %
31.05.2017 14:34 25,7 C 26,1 C 60 % 1016,7 hPa 0,0 l/m 9,9 km/h (2 Bft) SW 227 2 min 0,000 mm 5,0 UV-I 822 W/m 17,3 C 25,0 C 14,5 km/h (3 Bft) 97,22 %
31.05.2017 14:36 25,7 C 26,1 C 62 % 1016,7 hPa 0,0 l/m 4,7 km/h (1 Bft) W-SW 254 2 min 0,000 mm 5,0 UV-I 822 W/m 17,9 C 25,7 C 9,7 km/h (2 Bft) 96,77 %
31.05.2017 14:38 25,8 C 26,1 C 60 % 1016,7 hPa 0,0 l/m 5,5 km/h (1 Bft) N-NO 24 2 min 0,000 mm 5,0 UV-I 827 W/m 17,4 C 25,8 C 12,9 km/h (3 Bft) 100,00 %
31.05.2017 14:40 25,7 C 26,1 C 60 % 1016,7 hPa 0,0 l/m 7,5 km/h (2 Bft) W-NW 292 2 min 0,000 mm 4,9 UV-I 814 W/m 17,3 C 25,4 C 16,1 km/h (3 Bft) 98,00 %
31.05.2017 14:42 25,7 C 26,1 C 61 % 1016,7 hPa 0,0 l/m 4,2 km/h (1 Bft) W 281 2 min 0,000 mm 5,1 UV-I 852 W/m 17,6 C 25,7 C 8,0 km/h (2 Bft) 91,49 %
31.05.2017 14:44 25,7 C 26,1 C 61 % 1016,7 hPa 0,0 l/m 6,1 km/h (2 Bft) NW 309 2 min 0,000 mm 5,2 UV-I 864 W/m 17,6 C 25,7 C 12,9 km/h (3 Bft) 100,00 %
31.05.2017 14:46 25,8 C 26,1 C 58 % 1016,7 hPa 0,0 l/m 7,6 km/h (2 Bft) W-NW 285 2 min 0,000 mm 5,1 UV-I 848 W/m 16,9 C 25,5 C 16,1 km/h (3 Bft) 96,43 %
31.05.2017 14:48 25,8 C 26,1 C 58 % 1016,7 hPa 0,0 l/m 7,0 km/h (2 Bft) W 279 2 min 0,000 mm 5,0 UV-I 853 W/m 16,9 C 25,7 C 14,5 km/h (3 Bft) 92,11 %
31.05.2017 14:50 25,9 C 26,1 C 60 % 1016,7 hPa 0,0 l/m 6,6 km/h (2 Bft) W-NW 285 2 min 0,000 mm 5,0 UV-I 857 W/m 17,5 C 25,9 C 16,1 km/h (3 Bft) 98,21 %
31.05.2017 14:52 26,3 C 26,1 C 59 % 1016,7 hPa 0,0 l/m 6,4 km/h (2 Bft) W-SW 250 2 min 0,000 mm 5,0 UV-I 853 W/m 17,6 C 26,3 C 12,9 km/h (3 Bft) 100,00 %
31.05.2017 14:54 26,4 C 26,1 C 55 % 1016,6 hPa 0,0 l/m 12,1 km/h (2 Bft) W-SW 239 2 min 0,000 mm 4,9 UV-I 846 W/m 16,6 C 25,4 C 19,3 km/h (3 Bft) 95,38 %
31.05.2017 14:56 26,4 C 26,1 C 57 % 1016,6 hPa 0,0 l/m 8,7 km/h (2 Bft) W-SW 251 2 min 0,000 mm 4,9 UV-I 834 W/m 17,2 C 25,9 C 16,1 km/h (3 Bft) 94,00 %
31.05.2017 14:58 26,4 C 26,1 C 56 % 1016,7 hPa 0,0 l/m 12,8 km/h (3 Bft) W-SW 252 2 min 0,000 mm 4,8 UV-I 822 W/m 16,9 C 25,3 C 20,9 km/h (4 Bft) 100,00 %
31.05.2017 15:00 26,3 C 26,1 C 55 % 1016,6 hPa 0,0 l/m 12,9 km/h (3 Bft) W-SW 249 2 min 0,559 mm 4,6 UV-I 817 W/m 16,5 C 25,2 C 19,3 km/h (3 Bft) 100,00 %
31.05.2017 15:02 26,2 C 26,1 C 56 % 1016,6 hPa 0,0 l/m 9,8 km/h (2 Bft) W-SW 243 2 min 0,000 mm 4,5 UV-I 799 W/m 16,7 C 25,5 C 17,7 km/h (3 Bft) 95,12 %
31.05.2017 15:04 26,4 C 26,1 C 58 % 1016,6 hPa 0,0 l/m 14,3 km/h (3 Bft) SW 235 2 min 0,000 mm 4,4 UV-I 808 W/m 17,5 C 25,1 C 19,3 km/h (3 Bft) 98,11 %
31.05.2017 15:06 26,3 C 26,1 C 55 % 1016,6 hPa 0,0 l/m 15,6 km/h (3 Bft) SW 227 2 min 0,000 mm 4,4 UV-I 844 W/m 16,5 C 24,8 C 22,5 km/h (4 Bft) 96,00 %
31.05.2017 15:08 26,3 C 26,1 C 56 % 1016,6 hPa 0,0 l/m 16,8 km/h (3 Bft) W-SW 240 2 min 0,000 mm 4,2 UV-I 803 W/m 16,8 C 24,7 C 22,5 km/h (4 Bft) 97,37 %
31.05.2017 15:10 26,2 C 26,1 C 57 % 1016,6 hPa 0,0 l/m 11,2 km/h (2 Bft) SW 223 2 min 0,000 mm 4,2 UV-I 811 W/m 17,0 C 25,3 C 19,3 km/h (3 Bft) 100,00 %
31.05.2017 15:12 26,2 C 26,1 C 57 % 1016,5 hPa 0,0 l/m 12,5 km/h (3 Bft) W-SW 255 2 min 0,000 mm 4,2 UV-I 828 W/m 17,0 C 25,1 C 17,7 km/h (3 Bft) 96,00 %
31.05.2017 15:14 26,3 C 26,1 C 56 % 1016,5 hPa 0,0 l/m 9,8 km/h (2 Bft) W-SW 247 2 min 0,000 mm 4,2 UV-I 833 W/m 16,8 C 25,6 C 14,5 km/h (3 Bft) 97,56 %
31.05.2017 15:16 26,3 C 26,1 C 58 % 1016,5 hPa 0,0 l/m 11,1 km/h (2 Bft) W-SW 258 2 min 0,000 mm 2,9 UV-I 510 W/m 17,4 C 25,4 C 17,7 km/h (3 Bft) 100,00 %
31.05.2017 15:18 26,2 C 26,1 C 57 % 1016,5 hPa 0,0 l/m 8,1 km/h (2 Bft) W-SW 240 0 min 0,000 mm 2,8 UV-I 280 W/m 17,0 C 25,8 C 14,5 km/h (3 Bft) 90,74 %
31.05.2017 15:20 26,1 C 26,1 C 61 % 1016,5 hPa 0,0 l/m 5,1 km/h (1 Bft) W 271 0 min 0,000 mm 3,8 UV-I 345 W/m 18,0 C 26,1 C 11,3 km/h (2 Bft) 94,34 %
31.05.2017 15:22 26,2 C 26,1 C 60 % 1016,4 hPa 0,0 l/m 1,9 km/h (1 Bft) W-SW 254 2 min 0,000 mm 4,0 UV-I 819 W/m 17,8 C 26,2 C 4,8 km/h (1 Bft) 100,00 %
31.05.2017 15:24 26,3 C 26,7 C 61 % 1016,4 hPa 0,0 l/m 4,5 km/h (1 Bft) W-SW 246 2 min 0,000 mm 3,3 UV-I 814 W/m 18,2 C 26,3 C 9,7 km/h (2 Bft) 95,92 %
31.05.2017 15:26 26,4 C 26,7 C 60 % 1016,4 hPa 0,0 l/m 4,8 km/h (1 Bft) W 269 2 min 0,000 mm 3,9 UV-I 830 W/m 18,0 C 26,4 C 8,0 km/h (2 Bft) 94,00 %
31.05.2017 15:28 26,4 C 26,7 C 61 % 1016,3 hPa 0,0 l/m 1,8 km/h (1 Bft) W-NW 295 2 min 0,000 mm 4,0 UV-I 840 W/m 18,3 C 26,4 C 3,2 km/h (1 Bft) 97,14 %
31.05.2017 15:30 26,6 C 26,7 C 59 % 1016,3 hPa 0,0 l/m 2,3 km/h (1 Bft) W 279 2 min 0,000 mm 3,4 UV-I 809 W/m 17,9 C 26,6 C 4,8 km/h (1 Bft) 94,00 %
31.05.2017 15:32 26,3 C 26,7 C 57 % 1016,3 hPa 0,0 l/m 3,7 km/h (1 Bft) S-SW 213 2 min 0,000 mm 3,1 UV-I 808 W/m 17,1 C 26,3 C 8,0 km/h (2 Bft) 100,00 %
31.05.2017 15:34 26,4 C 26,7 C 60 % 1016,3 hPa 0,0 l/m 7,0 km/h (2 Bft) SW 223 2 min 0,000 mm 3,7 UV-I 804 W/m 18,0 C 26,3 C 11,3 km/h (2 Bft) 95,12 %
31.05.2017 15:36 26,5 C 26,7 C 60 % 1016,3 hPa 0,0 l/m 5,6 km/h (1 Bft) W 269 2 min 0,000 mm 3,7 UV-I 747 W/m 18,1 C 26,5 C 9,7 km/h (2 Bft) 90,00 %
31.05.2017 15:38 26,4 C 26,7 C 58 % 1016,3 hPa 0,0 l/m 3,5 km/h (1 Bft) W 278 2 min 0,000 mm 2,7 UV-I 421 W/m 17,5 C 26,4 C 9,7 km/h (2 Bft) 98,00 %
31.05.2017 15:40 26,3 C 26,7 C 58 % 1016,3 hPa 0,0 l/m 4,3 km/h (1 Bft) SW 228 2 min 0,000 mm 3,6 UV-I 538 W/m 17,4 C 26,3 C 9,7 km/h (2 Bft) 98,00 %
31.05.2017 15:42 26,3 C 26,7 C 57 % 1016,3 hPa 0,0 l/m 10,1 km/h (2 Bft) W 268 2 min 0,000 mm 3,6 UV-I 653 W/m 17,1 C 25,6 C 16,1 km/h (3 Bft) 97,56 %
31.05.2017 15:44 26,3 C 26,7 C 56 % 1016,2 hPa 0,0 l/m 8,9 km/h (2 Bft) W-SW 247 2 min 0,000 mm 3,2 UV-I 682 W/m 16,8 C 25,8 C 14,5 km/h (3 Bft) 95,45 %
31.05.2017 15:46 26,1 C 26,7 C 57 % 1016,2 hPa 0,0 l/m 5,3 km/h (1 Bft) W-SW 240 2 min 0,000 mm 2,8 UV-I 628 W/m 16,9 C 26,1 C 8,0 km/h (2 Bft) 96,00 %
31.05.2017 15:48 25,9 C 26,7 C 58 % 1016,1 hPa 0,0 l/m 2,9 km/h (1 Bft) W 279 0 min 0,000 mm 2,9 UV-I 385 W/m 17,0 C 25,9 C 4,8 km/h (1 Bft) 87,80 %
31.05.2017 15:50 25,7 C 26,7 C 57 % 1016,1 hPa 0,0 l/m 2,5 km/h (1 Bft) W-NW 298 0 min 0,000 mm 3,1 UV-I 385 W/m 16,5 C 25,7 C 3,2 km/h (1 Bft) 90,57 %
31.05.2017 15:52 25,5 C 26,7 C 59 % 1016,1 hPa 0,0 l/m 0,1 km/h (0 Bft) W-NW 298 0 min 0,000 mm 2,8 UV-I 306 W/m 16,9 C 25,5 C 1,6 km/h (1 Bft) 92,00 %
31.05.2017 15:54 25,6 C 26,7 C 59 % 1016,1 hPa 0,0 l/m 0,7 km/h (0 Bft) W-NW 298 0 min 0,000 mm 2,9 UV-I 266 W/m 17,0 C 25,6 C 3,2 km/h (1 Bft) 89,74 %
31.05.2017 15:56 25,8 C 26,7 C 58 % 1016,1 hPa 0,0 l/m 5,2 km/h (1 Bft) W-NW 288 2 min 0,000 mm 3,4 UV-I 763 W/m 16,9 C 25,8 C 12,9 km/h (3 Bft) 94,00 %
31.05.2017 15:58 25,9 C 26,7 C 58 % 1016,1 hPa 0,0 l/m 4,5 km/h (1 Bft) W-NW 290 2 min 0,000 mm 3,2 UV-I 749 W/m 17,0 C 25,9 C 12,9 km/h (3 Bft) 98,08 %
31.05.2017 16:00 26,1 C 26,7 C 57 % 1016,1 hPa 0,0 l/m 2,7 km/h (1 Bft) W-NW 297 2 min 0,000 mm 2,4 UV-I 553 W/m 16,9 C 26,1 C 4,8 km/h (1 Bft) 90,48 %
31.05.2017 16:02 26,0 C 26,7 C 56 % 1016,0 hPa 0,0 l/m 3,2 km/h (1 Bft) W 264 0 min 0,432 mm 2,8 UV-I 309 W/m 16,5 C 26,0 C 6,4 km/h (2 Bft) 92,00 %
31.05.2017 16:04 26,2 C 26,7 C 57 % 1016,0 hPa 0,0 l/m 2,5 km/h (1 Bft) W 265 2 min 0,000 mm 2,8 UV-I 669 W/m 17,0 C 26,2 C 9,7 km/h (2 Bft) 90,00 %
31.05.2017 16:06 26,2 C 26,7 C 57 % 1015,9 hPa 0,0 l/m 4,3 km/h (1 Bft) W-NW 292 2 min 0,000 mm 2,4 UV-I 520 W/m 17,0 C 26,2 C 8,0 km/h (2 Bft) 97,56 %
31.05.2017 16:08 26,1 C 26,7 C 59 % 1015,9 hPa 0,0 l/m 3,0 km/h (1 Bft) W-NW 296 0 min 0,000 mm 2,7 UV-I 338 W/m 17,4 C 26,1 C 8,0 km/h (2 Bft) 95,74 %
31.05.2017 16:10 26,1 C 26,7 C 57 % 1016,0 hPa 0,0 l/m 4,5 km/h (1 Bft) W 264 2 min 0,000 mm 3,1 UV-I 721 W/m 16,9 C 26,1 C 12,9 km/h (3 Bft) 97,87 %
31.05.2017 16:12 26,2 C 26,7 C 56 % 1015,9 hPa 0,0 l/m 8,4 km/h (2 Bft) W-SW 254 2 min 0,000 mm 3,1 UV-I 686 W/m 16,7 C 25,8 C 14,5 km/h (3 Bft) 90,00 %
31.05.2017 16:14 26,3 C 26,7 C 56 % 1015,9 hPa 0,0 l/m 12,6 km/h (3 Bft) W-SW 242 2 min 0,000 mm 3,0 UV-I 682 W/m 16,8 C 25,2 C 19,3 km/h (3 Bft) 92,11 %
31.05.2017 16:16 26,4 C 26,7 C 55 % 1015,8 hPa 0,0 l/m 12,8 km/h (3 Bft) W-SW 242 2 min 0,000 mm 2,3 UV-I 555 W/m 16,6 C 25,3 C 19,3 km/h (3 Bft) 100,00 %
31.05.2017 16:18 26,2 C 26,7 C 56 % 1015,9 hPa 0,0 l/m 8,2 km/h (2 Bft) W-SW 255 0 min 0,000 mm 2,0 UV-I 245 W/m 16,7 C 25,8 C 14,5 km/h (3 Bft) 96,43 %
31.05.2017 16:20 26,1 C 26,7 C 55 % 1015,8 hPa 0,0 l/m 7,1 km/h (2 Bft) W-SW 257 0 min 0,000 mm 2,2 UV-I 261 W/m 16,3 C 25,9 C 14,5 km/h (3 Bft) 100,00 %
31.05.2017 16:22 26,1 C 26,7 C 55 % 1015,8 hPa 0,0 l/m 3,4 km/h (1 Bft) W-SW 245 2 min 0,000 mm 2,6 UV-I 657 W/m 16,3 C 26,1 C 6,4 km/h (2 Bft) 100,00 %
31.05.2017 16:24 26,1 C 26,7 C 60 % 1015,8 hPa 0,0 l/m 3,0 km/h (1 Bft) N-NW 328 2 min 0,000 mm 2,1 UV-I 504 W/m 17,7 C 26,1 C 6,4 km/h (2 Bft) 96,00 %
31.05.2017 16:26 25,8 C 26,7 C 59 % 1015,8 hPa 0,0 l/m 3,3 km/h (1 Bft) N-NW 327 0 min 0,000 mm 2,4 UV-I 353 W/m 17,2 C 25,8 C 8,0 km/h (2 Bft) 100,00 %
31.05.2017 16:28 25,8 C 26,7 C 63 % 1015,7 hPa 0,0 l/m 1,0 km/h (0 Bft) NW 325 2 min 0,000 mm 2,5 UV-I 652 W/m 18,2 C 25,8 C 4,8 km/h (1 Bft) 94,00 %
31.05.2017 16:30 25,8 C 26,7 C 62 % 1015,7 hPa 0,0 l/m 3,3 km/h (1 Bft) W-NW 295 2 min 0,000 mm 2,4 UV-I 644 W/m 18,0 C 25,8 C 12,9 km/h (3 Bft) 97,56 %
31.05.2017 16:32 25,9 C 26,7 C 61 % 1015,7 hPa 0,0 l/m 4,1 km/h (1 Bft) NW 319 2 min 0,000 mm 2,6 UV-I 629 W/m 17,8 C 25,9 C 11,3 km/h (2 Bft) 98,11 %
31.05.2017 16:34 26,1 C 26,7 C 61 % 1015,7 hPa 0,0 l/m 4,8 km/h (1 Bft) W 271 2 min 0,000 mm 2,5 UV-I 621 W/m 18,0 C 26,1 C 9,7 km/h (2 Bft) 97,62 %
31.05.2017 16:36 26,1 C 26,7 C 59 % 1015,7 hPa 0,0 l/m 4,7 km/h (1 Bft) NW 317 2 min 0,000 mm 2,1 UV-I 412 W/m 17,4 C 26,1 C 11,3 km/h (2 Bft) 97,37 %
31.05.2017 16:38 25,9 C 26,7 C 62 % 1015,7 hPa 0,0 l/m 3,9 km/h (1 Bft) W-NW 294 0 min 0,000 mm 2,2 UV-I 306 W/m 18,0 C 25,9 C 8,0 km/h (2 Bft) 100,00 %
31.05.2017 16:40 25,9 C 26,7 C 61 % 1015,7 hPa 0,0 l/m 1,5 km/h (1 Bft) W-NW 283 2 min 0,000 mm 2,1 UV-I 589 W/m 17,8 C 25,9 C 4,8 km/h (1 Bft) 98,11 %
31.05.2017 16:42 25,9 C 26,7 C 59 % 1015,7 hPa 0,0 l/m 2,8 km/h (1 Bft) W-NW 286 0 min 0,000 mm 2,0 UV-I 273 W/m 17,3 C 25,9 C 6,4 km/h (2 Bft) 100,00 %
31.05.2017 16:44 25,8 C 26,7 C 60 % 1015,6 hPa 0,0 l/m 3,4 km/h (1 Bft) NW 310 2 min 0,000 mm 2,3 UV-I 351 W/m 17,4 C 25,8 C 6,4 km/h (2 Bft) 96,43 %
31.05.2017 16:46 25,9 C 26,7 C 65 % 1015,7 hPa 0,0 l/m 1,6 km/h (1 Bft) W-SW 239 2 min 0,000 mm 2,3 UV-I 617 W/m 18,8 C 25,9 C 4,8 km/h (1 Bft) 100,00 %
31.05.2017 16:48 26,1 C 26,7 C 60 % 1015,7 hPa 0,0 l/m 3,0 km/h (1 Bft) W-NW 298 2 min 0,000 mm 2,2 UV-I 579 W/m 17,7 C 26,1 C 6,4 km/h (2 Bft) 98,21 %
31.05.2017 16:50 26,0 C 26,7 C 62 % 1015,7 hPa 0,0 l/m 3,7 km/h (1 Bft) NW 305 2 min 0,000 mm 1,9 UV-I 447 W/m 18,1 C 26,0 C 12,9 km/h (3 Bft) 97,37 %
31.05.2017 16:52 25,7 C 26,7 C 61 % 1015,6 hPa 0,0 l/m 3,1 km/h (1 Bft) N-NW 338 0 min 0,000 mm 1,7 UV-I 193 W/m 17,6 C 25,7 C 6,4 km/h (2 Bft) 95,74 %
31.05.2017 16:54 25,3 C 26,7 C 63 % 1015,7 hPa 0,0 l/m 2,6 km/h (1 Bft) NW 322 0 min 0,000 mm 1,7 UV-I 191 W/m 17,7 C 25,3 C 8,0 km/h (2 Bft) 96,23 %
31.05.2017 16:56 25,1 C 26,7 C 64 % 1015,6 hPa 0,0 l/m 2,6 km/h (1 Bft) NW 304 2 min 0,000 mm 2,0 UV-I 423 W/m 17,8 C 25,1 C 6,4 km/h (2 Bft) 96,15 %
31.05.2017 16:58 25,2 C 26,7 C 65 % 1015,6 hPa 0,0 l/m 3,5 km/h (1 Bft) N 9 2 min 0,000 mm 2,1 UV-I 523 W/m 18,1 C 25,2 C 14,5 km/h (3 Bft) 97,06 %
31.05.2017 17:00 25,3 C 26,7 C 64 % 1015,6 hPa 0,0 l/m 3,0 km/h (1 Bft) N 5 2 min 0,000 mm 2,0 UV-I 506 W/m 18,0 C 25,3 C 8,0 km/h (2 Bft) 97,56 %
31.05.2017 17:02 25,4 C 26,7 C 65 % 1015,6 hPa 0,0 l/m 3,1 km/h (1 Bft) N-NW 332 2 min 0,330 mm 2,0 UV-I 492 W/m 18,3 C 25,4 C 8,0 km/h (2 Bft) 96,23 %
31.05.2017 17:04 25,4 C 26,7 C 62 % 1015,6 hPa 0,0 l/m 5,9 km/h (2 Bft) N-NW 327 2 min 0,000 mm 2,0 UV-I 481 W/m 17,6 C 25,4 C 17,7 km/h (3 Bft) 95,12 %
31.05.2017 17:06 25,5 C 26,7 C 62 % 1015,6 hPa 0,0 l/m 4,5 km/h (1 Bft) W-NW 284 2 min 0,000 mm 1,9 UV-I 454 W/m 17,7 C 25,5 C 12,9 km/h (3 Bft) 96,00 %
31.05.2017 17:08 25,5 C 26,7 C 62 % 1015,6 hPa 0,0 l/m 4,5 km/h (1 Bft) W-NW 303 2 min 0,000 mm 1,8 UV-I 444 W/m 17,7 C 25,5 C 11,3 km/h (2 Bft) 96,00 %
31.05.2017 17:10 25,6 C 26,7 C 62 % 1015,6 hPa 0,0 l/m 0,9 km/h (0 Bft) NW 318 2 min 0,000 mm 1,8 UV-I 449 W/m 17,8 C 25,6 C 3,2 km/h (1 Bft) 97,56 %
31.05.2017 17:12 25,7 C 26,7 C 60 % 1015,6 hPa 0,0 l/m 2,0 km/h (1 Bft) N 5 2 min 0,000 mm 1,8 UV-I 444 W/m 17,3 C 25,7 C 6,4 km/h (2 Bft) 98,11 %
31.05.2017 17:14 25,8 C 26,7 C 60 % 1015,6 hPa 0,0 l/m 0,9 km/h (0 Bft) N 350 2 min 0,000 mm 1,8 UV-I 458 W/m 17,4 C 25,8 C 3,2 km/h (1 Bft) 94,87 %
31.05.2017 17:16 25,9 C 26,7 C 60 % 1015,6 hPa 0,0 l/m 2,5 km/h (1 Bft) W-NW 284 2 min 0,000 mm 1,8 UV-I 435 W/m 17,5 C 25,9 C 6,4 km/h (2 Bft) 94,00 %
31.05.2017 17:18 25,8 C 26,7 C 58 % 1015,5 hPa 0,0 l/m 2,8 km/h (1 Bft) N-NW 347 2 min 0,000 mm 1,7 UV-I 422 W/m 16,9 C 25,8 C 11,3 km/h (2 Bft) 96,00 %
31.05.2017 17:20 25,7 C 26,7 C 58 % 1015,5 hPa 0,0 l/m 3,7 km/h (1 Bft) W-SW 255 2 min 0,000 mm 1,6 UV-I 399 W/m 16,8 C 25,7 C 11,3 km/h (2 Bft) 97,37 %
31.05.2017 17:22 25,7 C 26,7 C 58 % 1015,5 hPa 0,0 l/m 2,7 km/h (1 Bft) N-NW 331 2 min 0,000 mm 1,6 UV-I 371 W/m 16,8 C 25,7 C 6,4 km/h (2 Bft) 98,00 %
31.05.2017 17:24 25,7 C 26,7 C 60 % 1015,5 hPa 0,0 l/m 3,9 km/h (1 Bft) W 279 2 min 0,000 mm 1,6 UV-I 400 W/m 17,3 C 25,7 C 11,3 km/h (2 Bft) 92,68 %
31.05.2017 17:26 25,7 C 26,7 C 58 % 1015,4 hPa 0,0 l/m 1,3 km/h (1 Bft) W 279 2 min 0,000 mm 1,5 UV-I 410 W/m 16,8 C 25,7 C 6,4 km/h (2 Bft) 92,45 %
31.05.2017 17:28 25,7 C 26,7 C 57 % 1015,4 hPa 0,0 l/m 1,2 km/h (1 Bft) W-NW 287 2 min 0,000 mm 1,5 UV-I 419 W/m 16,5 C 25,7 C 3,2 km/h (1 Bft) 94,74 %
31.05.2017 17:30 25,7 C 26,7 C 57 % 1015,4 hPa 0,0 l/m 1,6 km/h (1 Bft) W 279 2 min 0,000 mm 1,5 UV-I 416 W/m 16,5 C 25,7 C 6,4 km/h (2 Bft) 93,22 %
31.05.2017 17:32 25,8 C 26,7 C 60 % 1015,4 hPa 0,0 l/m 2,3 km/h (1 Bft) NW 322 2 min 0,000 mm 1,5 UV-I 429 W/m 17,4 C 25,8 C 4,8 km/h (1 Bft) 92,68 %
31.05.2017 17:34 25,8 C 26,7 C 58 % 1015,4 hPa 0,0 l/m 3,1 km/h (1 Bft) W-NW 282 2 min 0,000 mm 1,5 UV-I 429 W/m 16,9 C 25,8 C 8,0 km/h (2 Bft) 92,68 %
31.05.2017 17:36 25,8 C 26,7 C 58 % 1015,4 hPa 0,0 l/m 2,3 km/h (1 Bft) NW 320 2 min 0,000 mm 1,4 UV-I 413 W/m 16,9 C 25,8 C 6,4 km/h (2 Bft) 91,94 %
31.05.2017 17:38 25,7 C 26,7 C 58 % 1015,4 hPa 0,0 l/m 3,8 km/h (1 Bft) N-NW 338 2 min 0,000 mm 1,4 UV-I 410 W/m 16,8 C 25,7 C 12,9 km/h (3 Bft) 94,74 %
31.05.2017 17:40 25,7 C 26,7 C 58 % 1015,3 hPa 0,0 l/m 2,2 km/h (1 Bft) W-NW 296 2 min 0,000 mm 1,4 UV-I 423 W/m 16,8 C 25,7 C 6,4 km/h (2 Bft) 96,43 %
31.05.2017 17:42 25,8 C 26,7 C 59 % 1015,3 hPa 0,0 l/m 4,8 km/h (1 Bft) NW 315 2 min 0,000 mm 1,4 UV-I 423 W/m 17,2 C 25,8 C 8,0 km/h (2 Bft) 92,68 %
31.05.2017 17:44 25,8 C 26,7 C 57 % 1015,3 hPa 0,0 l/m 4,4 km/h (1 Bft) W 273 2 min 0,000 mm 1,3 UV-I 415 W/m 16,6 C 25,8 C 12,9 km/h (3 Bft) 90,57 %
31.05.2017 17:46 25,8 C 26,7 C 57 % 1015,3 hPa 0,0 l/m 1,8 km/h (1 Bft) NW 309 2 min 0,000 mm 1,3 UV-I 405 W/m 16,6 C 25,8 C 6,4 km/h (2 Bft) 91,43 %
31.05.2017 17:48 25,9 C 26,7 C 55 % 1015,4 hPa 0,0 l/m 5,1 km/h (1 Bft) SW 230 2 min 0,000 mm 1,2 UV-I 382 W/m 16,2 C 25,9 C 11,3 km/h (2 Bft) 94,00 %
31.05.2017 17:50 25,9 C 26,7 C 55 % 1015,4 hPa 0,0 l/m 6,4 km/h (2 Bft) W 279 2 min 0,000 mm 1,2 UV-I 374 W/m 16,2 C 25,9 C 12,9 km/h (3 Bft) 96,00 %
31.05.2017 17:52 25,9 C 26,7 C 55 % 1015,3 hPa 0,0 l/m 3,1 km/h (1 Bft) S-SW 201 2 min 0,000 mm 1,2 UV-I 365 W/m 16,2 C 25,9 C 9,7 km/h (2 Bft) 97,62 %
31.05.2017 17:54 26,0 C 26,7 C 57 % 1015,4 hPa 0,0 l/m 1,5 km/h (1 Bft) SW 215 2 min 0,000 mm 1,1 UV-I 361 W/m 16,8 C 26,0 C 4,8 km/h (1 Bft) 94,74 %
31.05.2017 17:56 26,0 C 26,7 C 57 % 1015,4 hPa 0,0 l/m 2,5 km/h (1 Bft) W-SW 238 2 min 0,000 mm 1,1 UV-I 362 W/m 16,8 C 26,0 C 6,4 km/h (2 Bft) 98,11 %
31.05.2017 17:58 26,0 C 26,7 C 55 % 1015,4 hPa 0,0 l/m 3,1 km/h (1 Bft) W-NW 302 2 min 0,000 mm 1,1 UV-I 366 W/m 16,2 C 26,0 C 8,0 km/h (2 Bft) 96,49 %
31.05.2017 18:00 25,9 C 26,7 C 54 % 1015,3 hPa 0,0 l/m 3,7 km/h (1 Bft) W-NW 287 2 min 0,000 mm 1,1 UV-I 358 W/m 15,9 C 25,9 C 8,0 km/h (2 Bft) 97,56 %
31.05.2017 18:02 25,9 C 26,7 C 58 % 1015,3 hPa 0,0 l/m 1,9 km/h (1 Bft) N-NW 333 2 min 0,280 mm 1,0 UV-I 346 W/m 17,0 C 25,9 C 4,8 km/h (1 Bft) 98,00 %
31.05.2017 18:04 25,8 C 26,7 C 57 % 1015,3 hPa 0,0 l/m 3,7 km/h (1 Bft) W-NW 287 2 min 0,000 mm 1,0 UV-I 327 W/m 16,6 C 25,8 C 8,0 km/h (2 Bft) 100,00 %
31.05.2017 18:06 25,9 C 26,7 C 58 % 1015,3 hPa 0,0 l/m 3,1 km/h (1 Bft) W-NW 286 2 min 0,000 mm 1,0 UV-I 310 W/m 17,0 C 25,9 C 6,4 km/h (2 Bft) 98,00 %
31.05.2017 18:08 25,8 C 26,7 C 57 % 1015,3 hPa 0,0 l/m 1,1 km/h (1 Bft) W 273 2 min 0,000 mm 0,9 UV-I 302 W/m 16,6 C 25,8 C 4,8 km/h (1 Bft) 94,00 %
31.05.2017 18:10 25,9 C 26,7 C 58 % 1015,3 hPa 0,0 l/m 4,3 km/h (1 Bft) S-SW 209 2 min 0,000 mm 0,9 UV-I 300 W/m 17,0 C 25,9 C 9,7 km/h (2 Bft) 100,00 %
31.05.2017 18:12 25,8 C 26,7 C 55 % 1015,3 hPa 0,0 l/m 9,6 km/h (2 Bft) W 265 2 min 0,000 mm 0,9 UV-I 296 W/m 16,1 C 25,1 C 14,5 km/h (3 Bft) 96,23 %
31.05.2017 18:14 25,8 C 26,7 C 53 % 1015,3 hPa 0,0 l/m 9,2 km/h (2 Bft) W-SW 252 2 min 0,000 mm 0,9 UV-I 290 W/m 15,5 C 25,2 C 16,1 km/h (3 Bft) 95,12 %
31.05.2017 18:16 25,7 C 26,7 C 52 % 1015,3 hPa 0,0 l/m 12,3 km/h (3 Bft) W 264 2 min 0,000 mm 0,8 UV-I 248 W/m 15,1 C 24,5 C 17,7 km/h (3 Bft) 98,11 %
31.05.2017 18:18 25,7 C 26,7 C 53 % 1015,3 hPa 0,0 l/m 11,2 km/h (2 Bft) W 263 2 min 0,000 mm 0,8 UV-I 274 W/m 15,4 C 24,7 C 14,5 km/h (3 Bft) 100,00 %
31.05.2017 18:20 25,7 C 26,7 C 53 % 1015,3 hPa 0,0 l/m 7,9 km/h (2 Bft) W-NW 286 2 min 0,000 mm 0,8 UV-I 297 W/m 15,4 C 25,4 C 12,9 km/h (3 Bft) 98,00 %
31.05.2017 18:22 25,7 C 26,7 C 53 % 1015,2 hPa 0,0 l/m 5,4 km/h (1 Bft) SW 231 2 min 0,000 mm 0,8 UV-I 291 W/m 15,4 C 25,7 C 11,3 km/h (2 Bft) 96,23 %
31.05.2017 18:24 25,7 C 26,7 C 52 % 1015,2 hPa 0,0 l/m 9,2 km/h (2 Bft) W-SW 245 2 min 0,000 mm 0,8 UV-I 288 W/m 15,1 C 25,1 C 14,5 km/h (3 Bft) 97,37 %
31.05.2017 18:26 25,7 C 26,7 C 53 % 1015,2 hPa 0,0 l/m 5,4 km/h (1 Bft) W-SW 258 2 min 0,000 mm 0,7 UV-I 279 W/m 15,4 C 25,7 C 12,9 km/h (3 Bft) 100,00 %
31.05.2017 18:28 25,7 C 26,7 C 53 % 1015,2 hPa 0,0 l/m 3,7 km/h (1 Bft) W-SW 247 2 min 0,000 mm 0,7 UV-I 270 W/m 15,4 C 25,7 C 8,0 km/h (2 Bft) 96,00 %
31.05.2017 18:30 25,7 C 26,7 C 55 % 1015,2 hPa 0,0 l/m 2,5 km/h (1 Bft) W 270 2 min 0,000 mm 0,7 UV-I 278 W/m 16,0 C 25,7 C 6,4 km/h (2 Bft) 97,44 %
31.05.2017 18:32 25,7 C 26,7 C 53 % 1015,2 hPa 0,0 l/m 3,6 km/h (1 Bft) W-SW 238 2 min 0,000 mm 0,7 UV-I 272 W/m 15,4 C 25,7 C 8,0 km/h (2 Bft) 98,11 %
31.05.2017 18:34 25,7 C 26,7 C 54 % 1015,3 hPa 0,0 l/m 5,8 km/h (2 Bft) W-SW 258 2 min 0,000 mm 0,6 UV-I 266 W/m 15,7 C 25,7 C 11,3 km/h (2 Bft) 95,92 %
31.05.2017 18:36 25,8 C 26,7 C 53 % 1015,3 hPa 0,0 l/m 4,9 km/h (1 Bft) W-SW 240 2 min 0,000 mm 0,6 UV-I 260 W/m 15,5 C 25,8 C 6,4 km/h (2 Bft) 97,92 %
31.05.2017 18:38 25,8 C 26,7 C 53 % 1015,4 hPa 0,0 l/m 5,4 km/h (1 Bft) W-NW 291 2 min 0,000 mm 0,6 UV-I 251 W/m 15,5 C 25,8 C 12,9 km/h (3 Bft) 92,11 %
31.05.2017 18:40 25,8 C 26,7 C 53 % 1015,3 hPa 0,0 l/m 2,4 km/h (1 Bft) W 277 2 min 0,000 mm 0,6 UV-I 241 W/m 15,5 C 25,8 C 8,0 km/h (2 Bft) 98,08 %
31.05.2017 18:42 25,7 C 26,7 C 53 % 1015,4 hPa 0,0 l/m 6,7 km/h (2 Bft) NW 309 2 min 0,000 mm 0,6 UV-I 225 W/m 15,4 C 25,6 C 12,9 km/h (3 Bft) 98,00 %
31.05.2017 18:44 25,6 C 26,7 C 53 % 1015,4 hPa 0,0 l/m 7,4 km/h (2 Bft) SW 236 2 min 0,000 mm 0,5 UV-I 202 W/m 15,3 C 25,4 C 12,9 km/h (3 Bft) 95,45 %
31.05.2017 18:46 25,6 C 26,7 C 53 % 1015,4 hPa 0,0 l/m 10,1 km/h (2 Bft) W-SW 257 2 min 0,000 mm 0,5 UV-I 211 W/m 15,3 C 24,8 C 17,7 km/h (3 Bft) 92,00 %
31.05.2017 18:48 25,6 C 26,7 C 53 % 1015,4 hPa 0,0 l/m 7,7 km/h (2 Bft) W-SW 255 2 min 0,000 mm 0,5 UV-I 215 W/m 15,3 C 25,3 C 14,5 km/h (3 Bft) 95,92 %
31.05.2017 18:50 25,6 C 26,7 C 53 % 1015,4 hPa 0,0 l/m 8,2 km/h (2 Bft) SW 232 2 min 0,000 mm 0,5 UV-I 211 W/m 15,3 C 25,2 C 11,3 km/h (2 Bft) 100,00 %
31.05.2017 18:52 25,6 C 26,7 C 53 % 1015,4 hPa 0,0 l/m 9,0 km/h (2 Bft) W-SW 255 2 min 0,000 mm 0,5 UV-I 210 W/m 15,3 C 25,0 C 14,5 km/h (3 Bft) 100,00 %
31.05.2017 18:54 25,6 C 26,7 C 54 % 1015,4 hPa 0,0 l/m 4,9 km/h (1 Bft) W 260 2 min 0,000 mm 0,2 UV-I 207 W/m 15,6 C 25,6 C 8,0 km/h (2 Bft) 100,00 %
31.05.2017 18:56 25,6 C 26,7 C 53 % 1015,4 hPa 0,0 l/m 8,7 km/h (2 Bft) W-SW 246 2 min 0,000 mm 0,0 UV-I 200 W/m 15,3 C 25,1 C 16,1 km/h (3 Bft) 91,43 %
31.05.2017 18:58 25,6 C 26,7 C 53 % 1015,4 hPa 0,0 l/m 7,7 km/h (2 Bft) SW 236 2 min 0,000 mm 0,0 UV-I 195 W/m 15,3 C 25,3 C 12,9 km/h (3 Bft) 97,50 %
31.05.2017 19:00 25,6 C 26,7 C 54 % 1015,4 hPa 0,0 l/m 6,0 km/h (2 Bft) W 259 2 min 0,000 mm 0,0 UV-I 190 W/m 15,6 C 25,6 C 8,0 km/h (2 Bft) 100,00 %
31.05.2017 19:02 25,6 C 26,7 C 54 % 1015,4 hPa 0,0 l/m 5,3 km/h (1 Bft) W 261 2 min 0,203 mm 0,0 UV-I 188 W/m 15,6 C 25,6 C 11,3 km/h (2 Bft) 100,00 %
31.05.2017 19:04 25,6 C 26,7 C 53 % 1015,4 hPa 0,0 l/m 6,7 km/h (2 Bft) W 273 2 min 0,000 mm 0,0 UV-I 183 W/m 15,3 C 25,5 C 12,9 km/h (3 Bft) 94,00 %
31.05.2017 19:06 25,6 C 26,7 C 54 % 1015,4 hPa 0,0 l/m 4,3 km/h (1 Bft) W-SW 247 2 min 0,000 mm 0,0 UV-I 178 W/m 15,6 C 25,6 C 8,0 km/h (2 Bft) 94,34 %
31.05.2017 19:08 25,6 C 26,7 C 54 % 1015,4 hPa 0,0 l/m 3,7 km/h (1 Bft) W-SW 257 2 min 0,000 mm 0,0 UV-I 178 W/m 15,6 C 25,6 C 6,4 km/h (2 Bft) 100,00 %
31.05.2017 19:10 25,6 C 26,7 C 55 % 1015,5 hPa 0,0 l/m 3,7 km/h (1 Bft) W-NW 294 2 min 0,000 mm 0,0 UV-I 171 W/m 15,9 C 25,6 C 4,8 km/h (1 Bft) 92,86 %
31.05.2017 19:13 25,6 C 26,7 C 54 % 1015,5 hPa 0,0 l/m 3,9 km/h (1 Bft) SW 235 3 min 0,000 mm 0,0 UV-I 164 W/m 15,6 C 25,6 C 6,4 km/h (2 Bft) 94,94 %
31.05.2017 19:14 25,6 C 26,7 C 55 % 1015,5 hPa 0,0 l/m 3,4 km/h (1 Bft) W 269 1 min 0,000 mm 0,0 UV-I 167 W/m 15,9 C 25,6 C 6,4 km/h (2 Bft) 100,00 %
31.05.2017 19:16 25,6 C 26,7 C 55 % 1015,5 hPa 0,0 l/m 4,8 km/h (1 Bft) W-SW 255 2 min 0,000 mm 0,0 UV-I 166 W/m 15,9 C 25,6 C 6,4 km/h (2 Bft) 96,23 %
31.05.2017 19:18 25,5 C 26,7 C 54 % 1015,5 hPa 0,0 l/m 6,1 km/h (2 Bft) W-SW 246 2 min 0,000 mm 0,0 UV-I 163 W/m 15,5 C 25,5 C 11,3 km/h (2 Bft) 91,49 %
31.05.2017 19:20 25,4 C 26,7 C 55 % 1015,5 hPa 0,0 l/m 3,5 km/h (1 Bft) W 266 2 min 0,000 mm 0,0 UV-I 157 W/m 15,7 C 25,4 C 6,4 km/h (2 Bft) 98,00 %
31.05.2017 19:22 25,4 C 26,7 C 55 % 1015,5 hPa 0,0 l/m 5,3 km/h (1 Bft) W 259 2 min 0,000 mm 0,0 UV-I 153 W/m 15,7 C 25,4 C 9,7 km/h (2 Bft) 91,43 %
31.05.2017 19:24 25,4 C 26,7 C 56 % 1015,5 hPa 0,0 l/m 3,2 km/h (1 Bft) W 265 2 min 0,000 mm 0,0 UV-I 149 W/m 16,0 C 25,4 C 4,8 km/h (1 Bft) 96,00 %
31.05.2017 19:26 25,4 C 26,7 C 56 % 1015,5 hPa 0,0 l/m 1,9 km/h (1 Bft) W 275 2 min 0,000 mm 0,0 UV-I 146 W/m 16,0 C 25,4 C 4,8 km/h (1 Bft) 95,12 %
31.05.2017 19:28 25,3 C 26,7 C 56 % 1015,5 hPa 0,0 l/m 1,9 km/h (1 Bft) W 275 2 min 0,000 mm 0,0 UV-I 136 W/m 15,9 C 25,3 C 3,2 km/h (1 Bft) 94,34 %
31.05.2017 19:30 25,2 C 26,7 C 58 % 1015,5 hPa 0,0 l/m 3,9 km/h (1 Bft) W 269 2 min 0,000 mm 0,0 UV-I 116 W/m 16,3 C 25,2 C 6,4 km/h (2 Bft) 96,00 %
31.05.2017 19:32 25,1 C 26,7 C 56 % 1015,5 hPa 0,0 l/m 5,2 km/h (1 Bft) W 263 0 min 0,000 mm 0,0 UV-I 95 W/m 15,7 C 25,1 C 6,4 km/h (2 Bft) 98,00 %
31.05.2017 19:34 25,1 C 26,7 C 56 % 1015,5 hPa 0,0 l/m 3,9 km/h (1 Bft) W 263 0 min 0,000 mm 0,0 UV-I 83 W/m 15,7 C 25,1 C 6,4 km/h (2 Bft) 94,74 %
31.05.2017 19:36 24,9 C 26,7 C 57 % 1015,5 hPa 0,0 l/m 3,7 km/h (1 Bft) W-NW 286 0 min 0,000 mm 0,0 UV-I 84 W/m 15,8 C 24,9 C 6,4 km/h (2 Bft) 94,00 %
31.05.2017 19:38 24,8 C 26,7 C 56 % 1015,6 hPa 0,0 l/m 4,0 km/h (1 Bft) W-SW 242 0 min 0,000 mm 0,0 UV-I 78 W/m 15,4 C 24,8 C 6,4 km/h (2 Bft) 95,45 %
31.05.2017 19:40 24,8 C 26,7 C 58 % 1015,6 hPa 0,0 l/m 3,5 km/h (1 Bft) W-SW 242 0 min 0,000 mm 0,0 UV-I 72 W/m 16,0 C 24,8 C 6,4 km/h (2 Bft) 91,07 %
31.05.2017 19:42 24,7 C 26,7 C 57 % 1015,6 hPa 0,0 l/m 4,1 km/h (1 Bft) W-SW 243 0 min 0,000 mm 0,0 UV-I 67 W/m 15,6 C 24,7 C 4,8 km/h (1 Bft) 97,56 %
31.05.2017 19:44 24,6 C 26,7 C 58 % 1015,6 hPa 0,0 l/m 4,4 km/h (1 Bft) W-SW 246 0 min 0,000 mm 0,0 UV-I 62 W/m 15,8 C 24,6 C 6,4 km/h (2 Bft) 100,00 %
31.05.2017 19:46 24,6 C 26,7 C 58 % 1015,7 hPa 0,0 l/m 4,0 km/h (1 Bft) W-SW 252 0 min 0,000 mm 0,0 UV-I 60 W/m 15,8 C 24,6 C 6,4 km/h (2 Bft) 94,74 %
31.05.2017 19:48 24,4 C 26,7 C 58 % 1015,6 hPa 0,0 l/m 4,2 km/h (1 Bft) W-SW 258 0 min 0,000 mm 0,0 UV-I 60 W/m 15,6 C 24,4 C 6,4 km/h (2 Bft) 100,00 %
31.05.2017 19:50 24,4 C 26,7 C 58 % 1015,7 hPa 0,0 l/m 4,4 km/h (1 Bft) W-SW 249 0 min 0,000 mm 0,0 UV-I 60 W/m 15,6 C 24,4 C 6,4 km/h (2 Bft) 100,00 %
31.05.2017 19:52 24,3 C 26,7 C 59 % 1015,7 hPa 0,0 l/m 4,8 km/h (1 Bft) W-SW 257 0 min 0,000 mm 0,0 UV-I 56 W/m 15,8 C 24,3 C 8,0 km/h (2 Bft) 97,87 %
31.05.2017 19:54 24,2 C 26,7 C 59 % 1015,7 hPa 0,0 l/m 5,2 km/h (1 Bft) SW 232 0 min 0,000 mm 0,0 UV-I 52 W/m 15,7 C 24,2 C 8,0 km/h (2 Bft) 95,74 %
31.05.2017 19:56 24,1 C 26,7 C 59 % 1015,7 hPa 0,0 l/m 4,9 km/h (1 Bft) SW 232 0 min 0,000 mm 0,0 UV-I 52 W/m 15,6 C 24,1 C 8,0 km/h (2 Bft) 100,00 %
31.05.2017 19:58 24,1 C 26,7 C 59 % 1015,7 hPa 0,0 l/m 4,1 km/h (1 Bft) SW 229 0 min 0,000 mm 0,0 UV-I 57 W/m 15,6 C 24,1 C 6,4 km/h (2 Bft) 94,34 %
31.05.2017 20:00 24,0 C 26,7 C 59 % 1015,7 hPa 0,0 l/m 4,7 km/h (1 Bft) SW 233 0 min 0,101 mm 0,0 UV-I 63 W/m 15,5 C 24,0 C 8,0 km/h (2 Bft) 100,00 %
31.05.2017 20:02 23,9 C 26,7 C 60 % 1015,7 hPa 0,0 l/m 4,6 km/h (1 Bft) SW 233 0 min 0,000 mm 0,0 UV-I 62 W/m 15,7 C 23,9 C 6,4 km/h (2 Bft) 100,00 %
31.05.2017 20:04 23,9 C 26,7 C 60 % 1015,8 hPa 0,0 l/m 4,5 km/h (1 Bft) SW 232 0 min 0,000 mm 0,0 UV-I 58 W/m 15,7 C 23,9 C 6,4 km/h (2 Bft) 100,00 %
31.05.2017 20:06 23,8 C 26,7 C 61 % 1015,8 hPa 0,0 l/m 4,3 km/h (1 Bft) SW 232 0 min 0,000 mm 0,0 UV-I 56 W/m 15,8 C 23,8 C 6,4 km/h (2 Bft) 91,49 %
31.05.2017 20:08 23,8 C 26,7 C 61 % 1015,8 hPa 0,0 l/m 4,3 km/h (1 Bft) SW 232 2 min 0,000 mm 0,0 UV-I 59 W/m 15,8 C 23,8 C 6,4 km/h (2 Bft) 97,56 %
31.05.2017 20:10 23,7 C 26,7 C 62 % 1015,8 hPa 0,0 l/m 2,6 km/h (1 Bft) SW 232 2 min 0,000 mm 0,0 UV-I 57 W/m 16,0 C 23,7 C 4,8 km/h (1 Bft) 96,23 %
31.05.2017 20:12 23,7 C 26,7 C 62 % 1015,7 hPa 0,0 l/m 2,9 km/h (1 Bft) SW 231 2 min 0,000 mm 0,0 UV-I 56 W/m 16,0 C 23,7 C 4,8 km/h (1 Bft) 100,00 %
31.05.2017 20:14 23,6 C 26,7 C 62 % 1015,7 hPa 0,0 l/m 2,1 km/h (1 Bft) SW 232 2 min 0,000 mm 0,0 UV-I 53 W/m 15,9 C 23,6 C 4,8 km/h (1 Bft) 94,34 %
31.05.2017 20:16 23,5 C 26,7 C 63 % 1015,7 hPa 0,0 l/m 2,7 km/h (1 Bft) SW 231 2 min 0,000 mm 0,0 UV-I 50 W/m 16,0 C 23,5 C 4,8 km/h (1 Bft) 100,00 %
31.05.2017 20:18 23,4 C 26,7 C 64 % 1015,8 hPa 0,0 l/m 1,6 km/h (1 Bft) SW 231 2 min 0,000 mm 0,0 UV-I 49 W/m 16,2 C 23,4 C 3,2 km/h (1 Bft) 100,00 %
31.05.2017 20:20 23,4 C 26,7 C 63 % 1015,7 hPa 0,0 l/m 1,2 km/h (1 Bft) SW 231 2 min 0,000 mm 0,0 UV-I 47 W/m 15,9 C 23,4 C 3,2 km/h (1 Bft) 100,00 %
31.05.2017 20:22 23,4 C 26,7 C 64 % 1015,7 hPa 0,0 l/m 1,9 km/h (1 Bft) SW 232 2 min 0,000 mm 0,0 UV-I 45 W/m 16,2 C 23,4 C 3,2 km/h (1 Bft) 96,30 %
31.05.2017 20:24 23,3 C 26,7 C 64 % 1015,7 hPa 0,0 l/m 2,9 km/h (1 Bft) SW 232 2 min 0,000 mm 0,0 UV-I 44 W/m 16,1 C 23,3 C 4,8 km/h (1 Bft) 94,03 %
31.05.2017 20:26 23,2 C 26,7 C 64 % 1015,7 hPa 0,0 l/m 1,4 km/h (1 Bft) SW 231 2 min 0,000 mm 0,0 UV-I 42 W/m 16,0 C 23,2 C 3,2 km/h (1 Bft) 98,21 %
31.05.2017 20:28 23,2 C 26,7 C 65 % 1015,8 hPa 0,0 l/m 1,5 km/h (1 Bft) SW 232 2 min 0,000 mm 0,0 UV-I 40 W/m 16,2 C 23,2 C 4,8 km/h (1 Bft) 100,00 %
31.05.2017 20:30 23,2 C 26,7 C 64 % 1015,8 hPa 0,0 l/m 3,4 km/h (1 Bft) SW 231 2 min 0,000 mm 0,0 UV-I 38 W/m 16,0 C 23,2 C 4,8 km/h (1 Bft) 100,00 %
31.05.2017 20:32 23,2 C 26,7 C 65 % 1015,8 hPa 0,0 l/m 3,1 km/h (1 Bft) SW 231 2 min 0,000 mm 0,0 UV-I 33 W/m 16,2 C 23,2 C 4,8 km/h (1 Bft) 100,00 %
31.05.2017 20:34 23,1 C 26,7 C 65 % 1015,8 hPa 0,0 l/m 1,9 km/h (1 Bft) SW 232 2 min 0,000 mm 0,0 UV-I 31 W/m 16,2 C 23,1 C 3,2 km/h (1 Bft) 98,00 %
31.05.2017 20:36 23,1 C 26,7 C 65 % 1015,8 hPa 0,0 l/m 2,9 km/h (1 Bft) SW 232 2 min 0,000 mm 0,0 UV-I 28 W/m 16,2 C 23,1 C 4,8 km/h (1 Bft) 96,15 %
31.05.2017 20:38 22,9 C 26,7 C 66 % 1015,7 hPa 0,0 l/m 3,9 km/h (1 Bft) SW 232 2 min 0,000 mm 0,0 UV-I 25 W/m 16,2 C 22,9 C 4,8 km/h (1 Bft) 98,53 %
31.05.2017 20:40 22,8 C 26,7 C 67 % 1015,8 hPa 0,0 l/m 2,9 km/h (1 Bft) SW 232 2 min 0,000 mm 0,0 UV-I 22 W/m 16,3 C 22,8 C 3,2 km/h (1 Bft) 97,56 %
31.05.2017 20:42 22,7 C 26,7 C 67 % 1015,8 hPa 0,0 l/m 2,9 km/h (1 Bft) SW 232 2 min 0,000 mm 0,0 UV-I 19 W/m 16,2 C 22,7 C 4,8 km/h (1 Bft) 94,00 %
31.05.2017 20:44 22,6 C 26,7 C 67 % 1015,8 hPa 0,0 l/m 3,4 km/h (1 Bft) SW 232 0 min 0,000 mm 0,0 UV-I 17 W/m 16,2 C 22,6 C 4,8 km/h (1 Bft) 97,87 %
31.05.2017 20:46 22,5 C 26,7 C 70 % 1015,8 hPa 0,0 l/m 2,4 km/h (1 Bft) SW 231 0 min 0,000 mm 0,0 UV-I 14 W/m 16,7 C 22,5 C 4,8 km/h (1 Bft) 97,87 %
31.05.2017 20:48 22,3 C 26,7 C 71 % 1015,8 hPa 0,0 l/m 0,4 km/h (0 Bft) SW 231 0 min 0,000 mm 0,0 UV-I 12 W/m 16,8 C 22,3 C 3,2 km/h (1 Bft) 96,00 %
31.05.2017 20:50 22,0 C 26,7 C 71 % 1015,8 hPa 0,0 l/m 0,8 km/h (0 Bft) SW 232 0 min 0,000 mm 0,0 UV-I 12 W/m 16,5 C 22,0 C 3,2 km/h (1 Bft) 95,74 %
31.05.2017 20:52 21,8 C 26,7 C 73 % 1015,9 hPa 0,0 l/m 1,2 km/h (1 Bft) SW 231 0 min 0,000 mm 0,0 UV-I 11 W/m 16,7 C 21,8 C 3,2 km/h (1 Bft) 95,12 %
31.05.2017 20:54 21,6 C 26,7 C 73 % 1015,8 hPa 0,0 l/m 1,7 km/h (1 Bft) SW 231 0 min 0,000 mm 0,0 UV-I 10 W/m 16,5 C 21,6 C 3,2 km/h (1 Bft) 95,12 %
31.05.2017 20:56 21,6 C 26,7 C 72 % 1015,8 hPa 0,0 l/m 0,8 km/h (0 Bft) SW 231 0 min 0,000 mm 0,0 UV-I 9 W/m 16,3 C 21,6 C 3,2 km/h (1 Bft) 97,73 %
31.05.2017 20:58 21,4 C 26,7 C 73 % 1015,8 hPa 0,0 l/m 0,8 km/h (0 Bft) SW 232 0 min 0,000 mm 0,0 UV-I 7 W/m 16,4 C 21,4 C 3,2 km/h (1 Bft) 94,64 %
31.05.2017 21:00 21,4 C 26,7 C 73 % 1015,9 hPa 0,0 l/m 0,4 km/h (0 Bft) SW 232 0 min 0,000 mm 0,0 UV-I 7 W/m 16,4 C 21,4 C 1,6 km/h (1 Bft) 97,87 %
31.05.2017 21:02 21,4 C 26,7 C 74 % 1015,9 hPa 0,0 l/m 0,0 km/h (0 Bft) SW 231 0 min 0,051 mm 0,0 UV-I 7 W/m 16,6 C 21,4 C 1,6 km/h (1 Bft) 96,00 %
31.05.2017 21:04 21,4 C 26,7 C 74 % 1015,9 hPa 0,0 l/m 0,0 km/h (0 Bft) SW 231 0 min 0,000 mm 0,0 UV-I 5 W/m 16,6 C 21,4 C 0,0 km/h (0 Bft) 97,44 %
31.05.2017 21:06 21,3 C 26,7 C 74 % 1015,9 hPa 0,0 l/m 0,4 km/h (0 Bft) SW 232 0 min 0,000 mm 0,0 UV-I 5 W/m 16,5 C 21,3 C 1,6 km/h (1 Bft) 91,43 %
31.05.2017 21:08 21,2 C 26,7 C 75 % 1015,9 hPa 0,0 l/m 0,4 km/h (0 Bft) SW 231 0 min 0,000 mm 0,0 UV-I 5 W/m 16,6 C 21,2 C 1,6 km/h (1 Bft) 94,03 %
31.05.2017 21:10 21,1 C 26,7 C 76 % 1015,9 hPa 0,0 l/m 0,5 km/h (0 Bft) SW 232 0 min 0,000 mm 0,0 UV-I 5 W/m 16,7 C 21,1 C 1,6 km/h (1 Bft) 95,83 %
31.05.2017 21:12 20,8 C 26,7 C 77 % 1015,9 hPa 0,0 l/m 0,5 km/h (0 Bft) SW 232 0 min 0,000 mm 0,0 UV-I 5 W/m 16,6 C 20,8 C 3,2 km/h (1 Bft) 93,85 %
31.05.2017 21:14 20,7 C 26,7 C 78 % 1016,0 hPa 0,0 l/m 0,4 km/h (0 Bft) SW 231 0 min 0,000 mm 0,0 UV-I 5 W/m 16,7 C 20,7 C 3,2 km/h (1 Bft) 96,00 %
31.05.2017 21:16 20,7 C 26,7 C 78 % 1016,0 hPa 0,0 l/m 0,8 km/h (0 Bft) SW 232 0 min 0,000 mm 0,0 UV-I 5 W/m 16,7 C 20,7 C 1,6 km/h (1 Bft) 94,00 %
31.05.2017 21:18 20,6 C 26,7 C 78 % 1016,1 hPa 0,0 l/m 0,0 km/h (0 Bft) SW 231 0 min 0,000 mm 0,0 UV-I 0 W/m 16,6 C 20,6 C 0,0 km/h (0 Bft) 95,12 %
31.05.2017 21:20 20,6 C 26,7 C 77 % 1016,1 hPa 0,0 l/m 0,1 km/h (0 Bft) SW 232 0 min 0,000 mm 0,0 UV-I 0 W/m 16,4 C 20,6 C 1,6 km/h (1 Bft) 90,00 %
31.05.2017 21:22 20,6 C 26,7 C 78 % 1016,1 hPa 0,0 l/m 0,4 km/h (0 Bft) SW 231 0 min 0,000 mm 0,0 UV-I 0 W/m 16,6 C 20,6 C 1,6 km/h (1 Bft) 97,37 %
31.05.2017 21:24 20,6 C 26,7 C 78 % 1016,1 hPa 0,0 l/m 1,0 km/h (0 Bft) SW 232 0 min 0,000 mm 0,0 UV-I 0 W/m 16,6 C 20,6 C 4,8 km/h (1 Bft) 91,07 %
31.05.2017 21:26 20,5 C 26,7 C 79 % 1016,1 hPa 0,0 l/m 0,0 km/h (0 Bft) SW 232 0 min 0,000 mm 0,0 UV-I 0 W/m 16,7 C 20,5 C 1,6 km/h (1 Bft) 93,62 %
31.05.2017 21:28 20,4 C 26,7 C 79 % 1016,1 hPa 0,0 l/m 0,0 km/h (0 Bft) SW 231 0 min 0,000 mm 0,0 UV-I 0 W/m 16,6 C 20,4 C 1,6 km/h (1 Bft) 92,00 %
31.05.2017 21:30 20,4 C 26,7 C 79 % 1016,1 hPa 0,0 l/m 0,0 km/h (0 Bft) SW 232 0 min 0,000 mm 0,0 UV-I 0 W/m 16,6 C 20,4 C 1,6 km/h (1 Bft) 95,74 %
31.05.2017 21:32 20,3 C 26,7 C 79 % 1016,1 hPa 0,0 l/m 0,0 km/h (0 Bft) SW 231 0 min 0,000 mm 0,0 UV-I 0 W/m 16,5 C 20,3 C 0,0 km/h (0 Bft) 91,43 %
31.05.2017 21:34 20,4 C 26,7 C 78 % 1016,1 hPa 0,0 l/m 0,0 km/h (0 Bft) SW 231 0 min 0,000 mm 0,0 UV-I 0 W/m 16,4 C 20,4 C 0,0 km/h (0 Bft) 94,64 %
31.05.2017 21:36 20,4 C 26,7 C 77 % 1016,1 hPa 0,0 l/m 0,3 km/h (0 Bft) SW 231 0 min 0,000 mm 0,0 UV-I 0 W/m 16,2 C 20,4 C 3,2 km/h (1 Bft) 91,43 %
31.05.2017 21:38 20,4 C 26,7 C 78 % 1016,2 hPa 0,0 l/m 0,4 km/h (0 Bft) SW 232 0 min 0,000 mm 0,0 UV-I 0 W/m 16,4 C 20,4 C 1,6 km/h (1 Bft) 94,34 %
31.05.2017 21:40 20,4 C 26,7 C 78 % 1016,2 hPa 0,0 l/m 0,1 km/h (0 Bft) SW 232 0 min 0,000 mm 0,0 UV-I 0 W/m 16,4 C 20,4 C 1,6 km/h (1 Bft) 94,00 %
31.05.2017 21:42 20,3 C 26,7 C 79 % 1016,3 hPa 0,0 l/m 0,1 km/h (0 Bft) SW 231 0 min 0,000 mm 0,0 UV-I 0 W/m 16,5 C 20,3 C 1,6 km/h (1 Bft) 93,62 %
31.05.2017 21:44 20,3 C 26,7 C 78 % 1016,3 hPa 0,0 l/m 0,1 km/h (0 Bft) SW 231 0 min 0,000 mm 0,0 UV-I 0 W/m 16,3 C 20,3 C 1,6 km/h (1 Bft) 100,00 %
31.05.2017 21:46 20,3 C 26,7 C 78 % 1016,3 hPa 0,0 l/m 1,2 km/h (1 Bft) SW 231 0 min 0,000 mm 0,0 UV-I 0 W/m 16,3 C 20,3 C 3,2 km/h (1 Bft) 97,44 %
31.05.2017 21:48 20,2 C 26,7 C 78 % 1016,3 hPa 0,0 l/m 0,6 km/h (0 Bft) SW 231 0 min 0,000 mm 0,0 UV-I 0 W/m 16,2 C 20,2 C 3,2 km/h (1 Bft) 98,00 %
31.05.2017 21:50 20,2 C 26,7 C 78 % 1016,3 hPa 0,0 l/m 2,4 km/h (1 Bft) SW 231 0 min 0,000 mm 0,0 UV-I 0 W/m 16,2 C 20,2 C 4,8 km/h (1 Bft) 100,00 %
31.05.2017 21:52 20,2 C 26,7 C 78 % 1016,4 hPa 0,0 l/m 2,0 km/h (1 Bft) SW 232 0 min 0,000 mm 0,0 UV-I 0 W/m 16,2 C 20,2 C 4,8 km/h (1 Bft) 97,56 %
31.05.2017 21:54 20,1 C 26,7 C 78 % 1016,4 hPa 0,0 l/m 1,8 km/h (1 Bft) SW 231 0 min 0,000 mm 0,0 UV-I 0 W/m 16,1 C 20,1 C 3,2 km/h (1 Bft) 100,00 %
31.05.2017 21:56 20,1 C 26,7 C 78 % 1016,4 hPa 0,0 l/m 1,1 km/h (1 Bft) SW 231 0 min 0,000 mm 0,0 UV-I 0 W/m 16,1 C 20,1 C 3,2 km/h (1 Bft) 97,87 %
31.05.2017 21:58 20,0 C 26,7 C 78 % 1016,5 hPa 0,0 l/m 0,6 km/h (0 Bft) SW 231 0 min 0,000 mm 0,0 UV-I 0 W/m 16,0 C 20,0 C 1,6 km/h (1 Bft) 100,00 %
31.05.2017 22:00 20,1 C 26,7 C 78 % 1016,5 hPa 0,0 l/m 0,8 km/h (0 Bft) SW 231 0 min 0,000 mm 0,0 UV-I 0 W/m 16,1 C 20,1 C 3,2 km/h (1 Bft) 98,00 %
31.05.2017 22:02 20,1 C 26,7 C 78 % 1016,5 hPa 0,0 l/m 0,9 km/h (0 Bft) SW 231 0 min 0,000 mm 0,0 UV-I 0 W/m 16,1 C 20,1 C 3,2 km/h (1 Bft) 100,00 %
31.05.2017 22:04 20,1 C 26,7 C 78 % 1016,5 hPa 0,0 l/m 0,8 km/h (0 Bft) SW 231 0 min 0,000 mm 0,0 UV-I 0 W/m 16,1 C 20,1 C 3,2 km/h (1 Bft) 100,00 %
31.05.2017 22:06 20,0 C 26,7 C 78 % 1016,6 hPa 0,0 l/m 1,4 km/h (1 Bft) SW 231 0 min 0,000 mm 0,0 UV-I 0 W/m 16,0 C 20,0 C 3,2 km/h (1 Bft) 98,11 %
31.05.2017 22:08 20,0 C 26,7 C 78 % 1016,5 hPa 0,0 l/m 1,5 km/h (1 Bft) SW 231 0 min 0,000 mm 0,0 UV-I 0 W/m 16,0 C 20,0 C 3,2 km/h (1 Bft) 100,00 %
31.05.2017 22:10 20,1 C 26,7 C 78 % 1016,6 hPa 0,0 l/m 2,0 km/h (1 Bft) SW 231 0 min 0,000 mm 0,0 UV-I 0 W/m 16,1 C 20,1 C 4,8 km/h (1 Bft) 97,37 %
31.05.2017 22:12 20,2 C 26,7 C 77 % 1016,5 hPa 0,0 l/m 2,7 km/h (1 Bft) SW 231 0 min 0,000 mm 0,0 UV-I 0 W/m 16,0 C 20,2 C 4,8 km/h (1 Bft) 100,00 %
31.05.2017 22:14 20,2 C 26,7 C 77 % 1016,5 hPa 0,0 l/m 1,8 km/h (1 Bft) SW 231 0 min 0,000 mm 0,0 UV-I 0 W/m 16,0 C 20,2 C 3,2 km/h (1 Bft) 98,00 %
31.05.2017 22:16 20,3 C 26,7 C 77 % 1016,6 hPa 0,0 l/m 2,1 km/h (1 Bft) SW 231 0 min 0,000 mm 0,0 UV-I 0 W/m 16,1 C 20,3 C 6,4 km/h (2 Bft) 97,87 %
31.05.2017 22:18 20,2 C 26,7 C 77 % 1016,5 hPa 0,0 l/m 3,2 km/h (1 Bft) SW 231 0 min 0,000 mm 0,0 UV-I 0 W/m 16,0 C 20,2 C 6,4 km/h (2 Bft) 100,00 %
31.05.2017 22:20 20,2 C 26,7 C 77 % 1016,5 hPa 0,0 l/m 2,7 km/h (1 Bft) SW 231 0 min 0,000 mm 0,0 UV-I 0 W/m 16,0 C 20,2 C 4,8 km/h (1 Bft) 96,43 %
31.05.2017 22:23 20,2 C 26,7 C 77 % 1016,5 hPa 0,0 l/m 2,1 km/h (1 Bft) SW 231 0 min 0,000 mm 0,0 UV-I 0 W/m 16,0 C 20,2 C 4,8 km/h (1 Bft) 98,39 %
31.05.2017 22:24 20,3 C 26,7 C 77 % 1016,5 hPa 0,0 l/m 2,6 km/h (1 Bft) SW 231 0 min 0,000 mm 0,0 UV-I 0 W/m 16,1 C 20,3 C 4,8 km/h (1 Bft) 100,00 %
31.05.2017 22:26 20,3 C 26,7 C 77 % 1016,5 hPa 0,0 l/m 2,6 km/h (1 Bft) SW 231 0 min 0,000 mm 0,0 UV-I 0 W/m 16,1 C 20,3 C 4,8 km/h (1 Bft) 100,00 %
31.05.2017 22:28 20,3 C 26,1 C 77 % 1016,5 hPa 0,0 l/m 3,1 km/h (1 Bft) SW 231 0 min 0,000 mm 0,0 UV-I 0 W/m 16,1 C 20,3 C 6,4 km/h (2 Bft) 100,00 %
31.05.2017 22:30 20,3 C 26,1 C 77 % 1016,5 hPa 0,0 l/m 2,1 km/h (1 Bft) SW 231 0 min 0,000 mm 0,0 UV-I 0 W/m 16,1 C 20,3 C 4,8 km/h (1 Bft) 100,00 %
31.05.2017 22:32 20,3 C 26,1 C 77 % 1016,5 hPa 0,0 l/m 3,6 km/h (1 Bft) SW 231 0 min 0,000 mm 0,0 UV-I 0 W/m 16,1 C 20,3 C 6,4 km/h (2 Bft) 97,37 %
31.05.2017 22:34 20,2 C 26,1 C 77 % 1016,5 hPa 0,0 l/m 3,5 km/h (1 Bft) SW 231 0 min 0,000 mm 0,0 UV-I 0 W/m 16,0 C 20,2 C 8,0 km/h (2 Bft) 97,67 %
31.05.2017 22:36 20,2 C 26,1 C 77 % 1016,5 hPa 0,0 l/m 2,6 km/h (1 Bft) SW 231 0 min 0,000 mm 0,0 UV-I 0 W/m 16,0 C 20,2 C 4,8 km/h (1 Bft) 97,01 %
31.05.2017 22:38 20,2 C 26,1 C 77 % 1016,5 hPa 0,0 l/m 5,5 km/h (1 Bft) SW 231 0 min 0,000 mm 0,0 UV-I 0 W/m 16,0 C 20,2 C 8,0 km/h (2 Bft) 100,00 %
31.05.2017 22:40 20,2 C 26,1 C 77 % 1016,5 hPa 0,0 l/m 5,4 km/h (1 Bft) SW 231 0 min 0,000 mm 0,0 UV-I 0 W/m 16,0 C 20,2 C 6,4 km/h (2 Bft) 100,00 %
31.05.2017 22:42 20,1 C 26,1 C 77 % 1016,6 hPa 0,0 l/m 4,7 km/h (1 Bft) SW 230 0 min 0,000 mm 0,0 UV-I 0 W/m 15,9 C 20,1 C 8,0 km/h (2 Bft) 97,14 %
31.05.2017 22:44 20,1 C 26,1 C 78 % 1016,5 hPa 0,0 l/m 4,9 km/h (1 Bft) SW 229 0 min 0,000 mm 0,0 UV-I 0 W/m 16,1 C 20,1 C 8,0 km/h (2 Bft) 95,92 %
31.05.2017 22:46 19,9 C 26,1 C 78 % 1016,5 hPa 0,0 l/m 5,7 km/h (1 Bft) SW 223 0 min 0,000 mm 0,0 UV-I 0 W/m 15,9 C 19,9 C 8,0 km/h (2 Bft) 100,00 %
31.05.2017 22:48 19,9 C 26,1 C 79 % 1016,5 hPa 0,0 l/m 5,6 km/h (1 Bft) S-SW 211 0 min 0,000 mm 0,0 UV-I 0 W/m 16,1 C 19,9 C 9,7 km/h (2 Bft) 97,56 %
31.05.2017 22:50 19,8 C 26,1 C 79 % 1016,5 hPa 0,0 l/m 4,6 km/h (1 Bft) SW 227 0 min 0,000 mm 0,0 UV-I 0 W/m 16,0 C 19,8 C 8,0 km/h (2 Bft) 100,00 %
31.05.2017 22:52 19,8 C 26,1 C 79 % 1016,5 hPa 0,0 l/m 5,4 km/h (1 Bft) S-SW 212 0 min 0,000 mm 0,0 UV-I 0 W/m 16,0 C 19,8 C 8,0 km/h (2 Bft) 97,37 %
31.05.2017 22:54 19,8 C 26,1 C 79 % 1016,6 hPa 0,0 l/m 4,9 km/h (1 Bft) S-SW 213 0 min 0,000 mm 0,0 UV-I 0 W/m 16,0 C 19,8 C 8,0 km/h (2 Bft) 98,08 %
31.05.2017 22:56 19,8 C 26,1 C 79 % 1016,6 hPa 0,0 l/m 5,4 km/h (1 Bft) S-SW 212 0 min 0,000 mm 0,0 UV-I 0 W/m 16,0 C 19,8 C 9,7 km/h (2 Bft) 100,00 %
31.05.2017 22:58 19,8 C 26,1 C 79 % 1016,5 hPa 0,0 l/m 6,0 km/h (2 Bft) S-SW 213 0 min 0,000 mm 0,0 UV-I 0 W/m 16,0 C 19,8 C 9,7 km/h (2 Bft) 97,56 %
31.05.2017 23:00 19,8 C 26,1 C 79 % 1016,6 hPa 0,0 l/m 6,4 km/h (2 Bft) S-SW 209 0 min 0,000 mm 0,0 UV-I 0 W/m 16,0 C 19,8 C 9,7 km/h (2 Bft) 100,00 %
31.05.2017 23:02 19,9 C 26,1 C 79 % 1016,6 hPa 0,0 l/m 6,6 km/h (2 Bft) SW 214 0 min 0,026 mm 0,0 UV-I 0 W/m 16,1 C 19,8 C 9,7 km/h (2 Bft) 97,22 %
31.05.2017 23:04 19,9 C 26,1 C 78 % 1016,6 hPa 0,0 l/m 5,5 km/h (1 Bft) SW 223 0 min 0,000 mm 0,0 UV-I 0 W/m 15,9 C 19,9 C 8,0 km/h (2 Bft) 100,00 %
31.05.2017 23:06 20,0 C 26,1 C 78 % 1016,6 hPa 0,0 l/m 6,4 km/h (2 Bft) S-SW 204 0 min 0,000 mm 0,0 UV-I 0 W/m 16,0 C 20,0 C 9,7 km/h (2 Bft) 95,12 %
31.05.2017 23:08 20,0 C 26,1 C 78 % 1016,7 hPa 0,0 l/m 5,4 km/h (1 Bft) S-SW 202 0 min 0,000 mm 0,0 UV-I 0 W/m 16,0 C 20,0 C 8,0 km/h (2 Bft) 98,00 %
31.05.2017 23:10 19,9 C 26,1 C 79 % 1016,7 hPa 0,0 l/m 5,3 km/h (1 Bft) S-SW 202 0 min 0,000 mm 0,0 UV-I 0 W/m 16,1 C 19,9 C 8,0 km/h (2 Bft) 95,74 %
31.05.2017 23:12 19,9 C 26,1 C 78 % 1016,7 hPa 0,0 l/m 4,9 km/h (1 Bft) S-SW 200 0 min 0,000 mm 0,0 UV-I 0 W/m 15,9 C 19,9 C 8,0 km/h (2 Bft) 98,00 %
31.05.2017 23:14 19,9 C 26,1 C 78 % 1016,7 hPa 0,0 l/m 5,2 km/h (1 Bft) S-SW 204 0 min 0,000 mm 0,0 UV-I 0 W/m 15,9 C 19,9 C 8,0 km/h (2 Bft) 94,00 %
31.05.2017 23:16 19,9 C 26,1 C 78 % 1016,7 hPa 0,0 l/m 5,1 km/h (1 Bft) S-SW 205 0 min 0,000 mm 0,0 UV-I 0 W/m 15,9 C 19,9 C 8,0 km/h (2 Bft) 98,00 %
31.05.2017 23:18 20,0 C 26,1 C 78 % 1016,6 hPa 0,0 l/m 3,9 km/h (1 Bft) S-SW 205 0 min 0,000 mm 0,0 UV-I 0 W/m 16,0 C 20,0 C 6,4 km/h (2 Bft) 97,37 %
31.05.2017 23:20 20,0 C 26,1 C 78 % 1016,6 hPa 0,0 l/m 5,7 km/h (1 Bft) SW 220 0 min 0,000 mm 0,0 UV-I 0 W/m 16,0 C 20,0 C 8,0 km/h (2 Bft) 94,00 %
31.05.2017 23:23 20,1 C 26,1 C 78 % 1016,6 hPa 0,0 l/m 6,2 km/h (2 Bft) S-SW 212 0 min 0,000 mm 0,0 UV-I 0 W/m 16,1 C 20,1 C 9,7 km/h (2 Bft) 94,74 %
31.05.2017 23:24 20,1 C 26,1 C 78 % 1016,6 hPa 0,0 l/m 5,5 km/h (1 Bft) S-SW 209 0 min 0,000 mm 0,0 UV-I 0 W/m 16,1 C 20,1 C 8,0 km/h (2 Bft) 93,33 %
31.05.2017 23:25 20,1 C 26,1 C 78 % 1016,6 hPa 0,0 l/m 6,4 km/h (2 Bft) SW 225 0 min 0,000 mm 0,0 UV-I 0 W/m 16,1 C 20,1 C 9,7 km/h (2 Bft) 100,00 %
31.05.2017 23:28 20,0 C 26,1 C 78 % 1016,6 hPa 0,0 l/m 3,7 km/h (1 Bft) SW 220 0 min 0,000 mm 0,0 UV-I 0 W/m 16,0 C 20,0 C 4,8 km/h (1 Bft) 97,44 %
31.05.2017 23:30 19,9 C 26,1 C 79 % 1016,6 hPa 0,0 l/m 4,7 km/h (1 Bft) SW 221 0 min 0,000 mm 0,0 UV-I 0 W/m 16,1 C 19,9 C 6,4 km/h (2 Bft) 96,00 %
31.05.2017 23:32 19,9 C 26,1 C 79 % 1016,6 hPa 0,0 l/m 4,9 km/h (1 Bft) W-SW 238 0 min 0,000 mm 0,0 UV-I 0 W/m 16,1 C 19,9 C 8,0 km/h (2 Bft) 96,00 %
31.05.2017 23:34 19,8 C 26,1 C 79 % 1016,6 hPa 0,0 l/m 5,2 km/h (1 Bft) SW 234 0 min 0,000 mm 0,0 UV-I 0 W/m 16,0 C 19,8 C 6,4 km/h (2 Bft) 100,00 %
31.05.2017 23:36 19,8 C 26,1 C 79 % 1016,7 hPa 0,0 l/m 4,7 km/h (1 Bft) SW 234 0 min 0,000 mm 0,0 UV-I 0 W/m 16,0 C 19,8 C 8,0 km/h (2 Bft) 95,74 %
31.05.2017 23:38 19,7 C 26,1 C 80 % 1016,8 hPa 0,0 l/m 3,1 km/h (1 Bft) SW 234 0 min 0,000 mm 0,0 UV-I 0 W/m 16,1 C 19,7 C 4,8 km/h (1 Bft) 97,87 %
31.05.2017 23:40 19,6 C 26,1 C 80 % 1016,8 hPa 0,0 l/m 4,4 km/h (1 Bft) SW 234 0 min 0,000 mm 0,0 UV-I 0 W/m 16,1 C 19,6 C 6,4 km/h (2 Bft) 94,00 %
31.05.2017 23:42 19,5 C 26,1 C 80 % 1016,8 hPa 0,0 l/m 4,1 km/h (1 Bft) SW 234 0 min 0,000 mm 0,0 UV-I 0 W/m 16,0 C 19,5 C 6,4 km/h (2 Bft) 97,44 %
31.05.2017 23:44 19,5 C 26,1 C 80 % 1016,8 hPa 0,0 l/m 1,0 km/h (0 Bft) SW 234 0 min 0,000 mm 0,0 UV-I 0 W/m 16,0 C 19,5 C 4,8 km/h (1 Bft) 98,00 %
31.05.2017 23:46 19,4 C 26,1 C 80 % 1016,9 hPa 0,0 l/m 2,7 km/h (1 Bft) N-NO 24 0 min 0,000 mm 0,0 UV-I 0 W/m 15,9 C 19,4 C 6,4 km/h (2 Bft) 98,00 %
31.05.2017 23:48 19,3 C 26,1 C 81 % 1016,9 hPa 0,0 l/m 5,1 km/h (1 Bft) NO 37 0 min 0,000 mm 0,0 UV-I 0 W/m 16,0 C 19,3 C 8,0 km/h (2 Bft) 97,37 %
31.05.2017 23:50 19,1 C 26,1 C 82 % 1016,9 hPa 0,0 l/m 4,4 km/h (1 Bft) NO 37 0 min 0,000 mm 0,0 UV-I 0 W/m 16,0 C 19,1 C 4,8 km/h (1 Bft) 100,00 %
31.05.2017 23:52 18,8 C 26,1 C 83 % 1017,0 hPa 0,0 l/m 9,2 km/h (2 Bft) N-NO 23 0 min 0,000 mm 0,0 UV-I 0 W/m 15,8 C 17,6 C 14,5 km/h (3 Bft) 95,74 %
31.05.2017 23:54 18,8 C 26,1 C 83 % 1017,0 hPa 0,0 l/m 7,5 km/h (2 Bft) N-NO 26 0 min 0,000 mm 0,0 UV-I 0 W/m 15,8 C 18,3 C 9,7 km/h (2 Bft) 100,00 %
31.05.2017 23:56 18,7 C 26,1 C 84 % 1017,0 hPa 0,0 l/m 5,8 km/h (2 Bft) N-NO 31 0 min 0,000 mm 0,0 UV-I 0 W/m 15,9 C 18,7 C 9,7 km/h (2 Bft) 97,87 %
31.05.2017 23:58 18,7 C 26,1 C 84 % 1017,0 hPa 0,0 l/m 0,3 km/h (0 Bft) N-NO 31 0 min 0,000 mm 0,0 UV-I 0 W/m 15,9 C 18,7 C 3,2 km/h (1 Bft) 95,74 %
_ Min-Zeit 05:50 04:38 18:16 00:00 - 00:18 - - - - - - 18:16 00:38 00:18 04:12
Minimum _ 16,9 C 25,0 C 52 % 1014,3 hPa - 0,0 km/h (0 Bft) - - - - - - 15,1 C 14,4 C 0,0 km/h (0 Bft) 60,53 %
_ Max-Zeit 15:30 15:24 01:16 10:28 00:32 09:48 - - 19:13 15:00 13:20 11:34 12:56 15:30 08:58 00:20
Maximum _ 26,6 C 26,7 C 94 % 1018,0 hPa 0,2 l/m 18,5 km/h
SW (3 Bft)
- - 3 min 0,559 mm 5,7 UV-I 1091 W/m 18,9 C 26,6 C 25,7 km/h
W-SW (4 Bft)
100,00 %
Durchschnitt _ 21,3 C 25,9 C 76 % 1016,4 hPa #1,2 l/m 5,9 km/h (2 Bft) SW - #9:36 h #4,293 mm 2,8 UV-I 383 W/m 16,7 C 20,9 C 10,2 km/h (2 Bft) 96,43 %